GEFSMW_prec_meanprec_066.txt.gz
QPF
0.08 0.08 0.07 0.09 0.05 0.04 0.05 0.06 0.07 0.08 0.09 0.08 0.07 0.07 0.09 0.10 0.08 0.08 0.09 0.09 0.09 0.11 0.14 0.16 0.15 0.15 0.15 0.16 0.19 0.20 0.20 0.19 0.17 0.20 0.21 0.17 0.14 0.14 0.12 0.10 0.08 0.09 0.10
0.22 0.25 0.22 0.21 0.10 0.06 0.07 0.09 0.10 0.11 0.10 0.10 0.11 0.13 0.15 0.14 0.14 0.13 0.12 0.11 0.12 0.14 0.16 0.19 0.18 0.16 0.15 0.15 0.16 0.17 0.20 0.19 0.17 0.20 0.21 0.19 0.15 0.12 0.09 0.08 0.08 0.08 0.08
0.43 0.40 0.37 0.32 0.18 0.12 0.12 0.11 0.13 0.14 0.14 0.15 0.14 0.16 0.18 0.21 0.24 0.24 0.22 0.20 0.20 0.17 0.17 0.18 0.17 0.18 0.20 0.22 0.20 0.19 0.21 0.20 0.18 0.17 0.18 0.20 0.21 0.17 0.11 0.09 0.08 0.07 0.06
0.45 0.44 0.46 0.35 0.26 0.19 0.15 0.16 0.18 0.18 0.18 0.19 0.22 0.23 0.24 0.26 0.28 0.30 0.32 0.30 0.26 0.20 0.19 0.19 0.19 0.20 0.20 0.21 0.20 0.18 0.16 0.16 0.16 0.16 0.15 0.14 0.13 0.14 0.12 0.09 0.07 0.06 0.05
0.25 0.30 0.37 0.30 0.24 0.19 0.16 0.15 0.16 0.19 0.23 0.26 0.36 0.32 0.29 0.31 0.34 0.33 0.30 0.26 0.22 0.20 0.22 0.22 0.21 0.21 0.21 0.19 0.16 0.13 0.11 0.11 0.12 0.11 0.11 0.11 0.11 0.10 0.11 0.10 0.07 0.06 0.05
0.09 0.08 0.14 0.18 0.13 0.13 0.14 0.13 0.13 0.15 0.21 0.25 0.33 0.36 0.40 0.41 0.36 0.31 0.27 0.27 0.31 0.31 0.27 0.22 0.19 0.17 0.16 0.15 0.13 0.11 0.08 0.07 0.07 0.08 0.07 0.07 0.08 0.08 0.09 0.09 0.08 0.06 0.05
0.03 0.03 0.04 0.08 0.09 0.09 0.10 0.12 0.12 0.14 0.17 0.20 0.23 0.30 0.36 0.38 0.36 0.32 0.27 0.26 0.24 0.21 0.17 0.14 0.12 0.11 0.10 0.10 0.10 0.08 0.08 0.07 0.07 0.07 0.07 0.07 0.06 0.05 0.05 0.06 0.06 0.05 0.03
0.02 0.02 0.02 0.02 0.03 0.04 0.06 0.06 0.07 0.09 0.12 0.13 0.15 0.18 0.19 0.22 0.22 0.19 0.18 0.17 0.14 0.11 0.10 0.09 0.08 0.08 0.08 0.08 0.08 0.08 0.08 0.07 0.07 0.06 0.06 0.06 0.05 0.05 0.05 0.04 0.04 0.04 0.04
0.02 0.02 0.03 0.02 0.02 0.03 0.04 0.04 0.04 0.05 0.05 0.07 0.08 0.09 0.09 0.11 0.12 0.11 0.09 0.08 0.07 0.07 0.07 0.07 0.06 0.06 0.06 0.07 0.08 0.09 0.09 0.09 0.08 0.06 0.05 0.05 0.04 0.05 0.05 0.05 0.04 0.03 0.03
0.03 0.02 0.02 0.02 0.02 0.02 0.03 0.04 0.03 0.03 0.03 0.04 0.05 0.05 0.06 0.06 0.06 0.05 0.05 0.05 0.05 0.05 0.07 0.07 0.07 0.07 0.07 0.06 0.06 0.07 0.07 0.07 0.08 0.07 0.07 0.07 0.06 0.05 0.04 0.03 0.03 0.02 0.02
0.02 0.02 0.01 0.01 0.01 0.02 0.02 0.02 0.02 0.02 0.02 0.02 0.02 0.02 0.03 0.03 0.03 0.03 0.03 0.03 0.03 0.03 0.04 0.05 0.05 0.05 0.05 0.06 0.06 0.07 0.08 0.09 0.09 0.08 0.07 0.06 0.05 0.04 0.03 0.02 0.02 0.02 0.02
0.01 0.01 0.01 0.01 0.01 0.01 0.01 0.01 0.01 0.01 0.01 0.01 0.01 0.01 0.01 0.01 0.01 0.01 0.02 0.02 0.02 0.03 0.03 0.04 0.04 0.04 0.04 0.05 0.05 0.04 0.04 0.04 0.04 0.04 0.03 0.03 0.02 0.02 0.02 0.02 0.02 0.02 0.02
0.01 0.01 0.01 0.01 0.01 0.01 0.01 0.01 0.01 0.01 0.01 0.01 0.01 0.01 0.01 0.01 0.01 0.01 0.02 0.03 0.03 0.03 0.02 0.02 0.02 0.03 0.03 0.03 0.03 0.03 0.03 0.03 0.03 0.03 0.03 0.03 0.03 0.03 0.02 0.02 0.02 0.02 0.01
0.01 0.01 0.01 0.01 0.01 0.01 0.00 0.00 0.01 0.01 0.01 0.01 0.01 0.01 0.01 0.01 0.01 0.02 0.02 0.01 0.01 0.01 0.01 0.01 0.01 0.02 0.02 0.02 0.02 0.03 0.03 0.03 0.03 0.03 0.03 0.02 0.02 0.02 0.02 0.02 0.02 0.02 0.01
0.04 0.04 0.03 0.03 0.02 0.01 0.01 0.01 0.01 0.01 0.01 0.01 0.01 0.01 0.01 0.01 0.01 0.01 0.01 0.01 0.00 0.00 0.00 0.00 0.00 0.01 0.01 0.01 0.01 0.01 0.01 0.02 0.02 0.02 0.01 0.01 0.00 0.00 0.00 0.00 0.00 0.01 0.01
0.08 0.07 0.06 0.04 0.03 0.02 0.01 0.01 0.01 0.01 0.01 0.01 0.01 0.01 0.01 0.01 0.01 0.01 0.01 0.01 0.00 0.00 0.00 0.00 0.00 0.00 0.00 0.00 0.00 0.00 0.01 0.01 0.01 0.02 0.01 0.01 0.00 0.00 0.00 0.00 0.00 0.00 0.00
0.10 0.09 0.08 0.07 0.05 0.03 0.02 0.01 0.01 0.01 0.01 0.01 0.01 0.01 0.01 0.01 0.00 0.00 0.01 0.01 0.01 0.01 0.01 0.01 0.01 0.01 0.00 0.00 0.00 0.00 0.00 0.01 0.02 0.02 0.02 0.01 0.01 0.01 0.01 0.01 0.00 0.01 0.01
0.14 0.13 0.10 0.07 0.05 0.03 0.02 0.01 0.01 0.02 0.02 0.01 0.01 0.00 0.00 0.00 0.00 0.01 0.01 0.02 0.02 0.02 0.02 0.01 0.01 0.02 0.00 0.00 0.00 0.00 0.00 0.02 0.03 0.03 0.03 0.03 0.03 0.01 0.00 0.00 0.01 0.04 0.07
0.16 0.14 0.12 0.10 0.08 0.05 0.04 0.02 0.02 0.02 0.01 0.01 0.01 0.00 0.00 0.00 0.01 0.01 0.02 0.02 0.02 0.02 0.01 0.01 0.02 0.03 0.01 0.00 0.00 0.00 0.01 0.02 0.03 0.03 0.02 0.01 0.02 0.00 0.00 0.00 0.02 0.05 0.09
0.11 0.09 0.08 0.07 0.05 0.04 0.04 0.03 0.02 0.02 0.01 0.01 0.01 0.01 0.01 0.01 0.01 0.02 0.02 0.02 0.02 0.02 0.01 0.01 0.02 0.03 0.02 0.00 0.00 0.00 0.00 0.02 0.03 0.05 0.06 0.03 0.00 0.00 0.00 0.00 0.01 0.04 0.05
0.05 0.04 0.04 0.05 0.04 0.03 0.03 0.03 0.03 0.02 0.01 0.01 0.01 0.01 0.01 0.01 0.01 0.02 0.02 0.02 0.02 0.02 0.02 0.02 0.03 0.03 0.01 0.00 0.00 0.00 0.00 0.00 0.01 0.05 0.08 0.06 0.00 0.00 0.00 0.00 0.01 0.01 0.01
0.03 0.03 0.04 0.04 0.04 0.03 0.03 0.03 0.03 0.02 0.01 0.01 0.01 0.01 0.01 0.00 0.01 0.02 0.03 0.02 0.02 0.02 0.03 0.03 0.04 0.04 0.03 0.01 0.00 0.00 0.00 0.00 0.01 0.06 0.06 0.03 0.00 0.00 0.00 0.00 0.00 0.00 0.01
0.04 0.04 0.03 0.04 0.04 0.04 0.04 0.05 0.03 0.01 0.01 0.02 0.02 0.02 0.01 0.00 0.00 0.01 0.03 0.02 0.02 0.01 0.01 0.01 0.03 0.03 0.04 0.03 0.00 0.00 0.00 0.00 0.01 0.03 0.01 0.00 0.00 0.00 0.03 0.02 0.00 0.01 0.05
0.04 0.04 0.04 0.04 0.04 0.03 0.04 0.04 0.02 0.01 0.02 0.02 0.02 0.01 0.01 0.01 0.01 0.01 0.00 0.00 0.00 0.00 0.01 0.02 0.03 0.04 0.04 0.02 0.00 0.00 0.01 0.01 0.01 0.01 0.02 0.02 0.02 0.03 0.04 0.05 0.06 0.07 0.08
0.04 0.04 0.05 0.05 0.04 0.03 0.03 0.02 0.01 0.01 0.02 0.02 0.01 0.01 0.01 0.01 0.01 0.01 0.00 0.00 0.00 0.00 0.00 0.00 0.01 0.01 0.02 0.00 0.00 0.00 0.00 0.00 0.00 0.00 0.04 0.09 0.10 0.10 0.10 0.10 0.09 0.09 0.07
0.05 0.06 0.05 0.04 0.03 0.03 0.03 0.01 0.00 0.00 0.01 0.02 0.01 0.01 0.01 0.01 0.01 0.01 0.01 0.00 0.00 0.00 0.00 0.00 0.00 0.00 0.00 0.00 0.00 0.00 0.00 0.00 0.00 0.01 0.05 0.07 0.07 0.06 0.06 0.05 0.05 0.05 0.05

GEFSMW_prec_meanprec_072.txt.gz
QPF
0.19 0.30 0.38 0.56 0.72 0.62 0.53 0.48 0.34 0.28 0.26 0.27 0.28 0.25 0.27 0.29 0.33 0.37 0.35 0.34 0.30 0.26 0.22 0.17 0.12 0.10 0.09 0.08 0.08 0.08 0.09 0.09 0.07 0.07 0.07 0.09 0.14 0.18 0.20 0.21 0.20 0.21 0.18
0.17 0.31 0.45 0.70 0.91 0.86 0.80 0.75 0.60 0.43 0.37 0.32 0.27 0.29 0.31 0.35 0.36 0.34 0.31 0.29 0.27 0.27 0.26 0.25 0.21 0.16 0.13 0.12 0.12 0.10 0.09 0.08 0.07 0.07 0.07 0.07 0.07 0.09 0.11 0.12 0.13 0.15 0.18
0.24 0.45 0.59 0.78 1.00 1.01 0.88 0.82 0.76 0.59 0.48 0.44 0.39 0.37 0.37 0.35 0.33 0.33 0.33 0.32 0.30 0.30 0.29 0.28 0.23 0.17 0.14 0.13 0.14 0.13 0.12 0.10 0.09 0.09 0.08 0.06 0.05 0.05 0.05 0.06 0.07 0.09 0.11
0.31 0.51 0.64 0.79 0.92 0.96 0.87 0.83 0.77 0.72 0.59 0.51 0.46 0.39 0.37 0.36 0.33 0.33 0.34 0.32 0.30 0.28 0.27 0.25 0.19 0.15 0.12 0.10 0.10 0.10 0.09 0.07 0.06 0.06 0.06 0.05 0.05 0.05 0.04 0.03 0.03 0.04 0.04
0.26 0.45 0.55 0.67 0.79 0.82 0.81 0.83 0.77 0.69 0.64 0.60 0.54 0.51 0.46 0.41 0.36 0.32 0.31 0.28 0.24 0.22 0.19 0.19 0.18 0.12 0.08 0.07 0.06 0.05 0.05 0.05 0.05 0.04 0.03 0.03 0.04 0.05 0.05 0.05 0.04 0.04 0.05
0.18 0.25 0.30 0.38 0.50 0.56 0.62 0.68 0.71 0.63 0.54 0.50 0.48 0.50 0.48 0.46 0.42 0.35 0.28 0.26 0.23 0.19 0.15 0.14 0.11 0.07 0.06 0.06 0.05 0.04 0.03 0.03 0.04 0.04 0.05 0.05 0.05 0.06 0.06 0.05 0.04 0.03 0.03
0.13 0.12 0.13 0.19 0.25 0.27 0.32 0.43 0.49 0.47 0.38 0.35 0.38 0.40 0.38 0.39 0.40 0.34 0.29 0.23 0.17 0.14 0.10 0.06 0.04 0.03 0.02 0.02 0.02 0.02 0.02 0.02 0.03 0.03 0.04 0.04 0.04 0.04 0.04 0.04 0.04 0.03 0.04
0.07 0.07 0.07 0.08 0.14 0.16 0.19 0.22 0.26 0.29 0.25 0.20 0.19 0.20 0.22 0.21 0.20 0.16 0.14 0.12 0.08 0.05 0.04 0.03 0.02 0.01 0.01 0.01 0.01 0.01 0.01 0.02 0.02 0.02 0.03 0.03 0.03 0.04 0.04 0.05 0.05 0.05 0.06
0.04 0.05 0.04 0.04 0.05 0.06 0.07 0.07 0.09 0.09 0.08 0.07 0.08 0.09 0.10 0.10 0.08 0.07 0.06 0.05 0.04 0.03 0.02 0.02 0.01 0.01 0.01 0.01 0.01 0.01 0.01 0.02 0.02 0.02 0.02 0.03 0.03 0.03 0.03 0.04 0.05 0.06 0.07
0.03 0.03 0.03 0.03 0.03 0.03 0.04 0.04 0.04 0.04 0.03 0.04 0.04 0.04 0.04 0.04 0.03 0.04 0.03 0.03 0.02 0.02 0.01 0.01 0.01 0.01 0.01 0.01 0.01 0.02 0.02 0.02 0.02 0.02 0.02 0.02 0.02 0.03 0.03 0.03 0.04 0.04 0.05
0.02 0.03 0.03 0.02 0.03 0.03 0.03 0.03 0.03 0.03 0.03 0.03 0.03 0.03 0.02 0.02 0.02 0.02 0.01 0.01 0.01 0.01 0.00 0.00 0.00 0.00 0.01 0.01 0.01 0.01 0.01 0.01 0.01 0.01 0.01 0.01 0.01 0.01 0.02 0.02 0.02 0.02 0.02
0.03 0.03 0.03 0.02 0.02 0.02 0.02 0.02 0.01 0.02 0.02 0.02 0.01 0.01 0.01 0.01 0.01 0.00 0.00 0.00 0.00 0.00 0.00 0.00 0.00 0.00 0.00 0.00 0.00 0.00 0.00 0.00 0.00 0.00 0.00 0.00 0.01 0.01 0.01 0.01 0.02 0.02 0.02
0.02 0.02 0.02 0.01 0.01 0.01 0.01 0.01 0.01 0.01 0.01 0.01 0.01 0.00 0.00 0.00 0.00 0.00 0.00 0.00 0.00 0.00 0.00 0.00 0.00 0.00 0.00 0.00 0.00 0.00 0.00 0.00 0.00 0.00 0.00 0.00 0.01 0.01 0.01 0.02 0.02 0.02 0.02
0.02 0.01 0.02 0.01 0.01 0.01 0.01 0.01 0.00 0.00 0.00 0.00 0.00 0.00 0.00 0.00 0.00 0.00 0.00 0.00 0.00 0.00 0.00 0.00 0.00 0.00 0.00 0.00 0.00 0.00 0.00 0.00 0.00 0.00 0.00 0.00 0.00 0.00 0.00 0.01 0.01 0.01 0.01
0.02 0.02 0.01 0.01 0.01 0.01 0.01 0.01 0.00 0.00 0.00 0.00 0.00 0.00 0.00 0.00 0.00 0.00 0.00 0.00 0.00 0.00 0.00 0.00 0.00 0.00 0.00 0.00 0.00 0.00 0.00 0.00 0.00 0.00 0.00 0.00 0.00 0.00 0.00 0.00 0.00 0.00 0.00
0.04 0.03 0.03 0.02 0.01 0.01 0.01 0.00 0.00 0.00 0.00 0.00 0.00 0.00 0.00 0.00 0.00 0.00 0.00 0.00 0.00 0.00 0.00 0.00 0.00 0.00 0.00 0.00 0.00 0.00 0.00 0.00 0.00 0.00 0.00 0.00 0.00 0.00 0.00 0.00 0.00 0.00 0.00
0.07 0.07 0.06 0.04 0.02 0.01 0.01 0.00 0.00 0.00 0.00 0.00 0.00 0.00 0.00 0.00 0.00 0.00 0.00 0.00 0.00 0.00 0.00 0.00 0.00 0.00 0.00 0.00 0.00 0.00 0.00 0.00 0.00 0.00 0.00 0.00 0.00 0.00 0.00 0.00 0.00 0.00 0.00
0.09 0.10 0.07 0.04 0.03 0.02 0.01 0.01 0.01 0.01 0.00 0.00 0.00 0.00 0.00 0.00 0.00 0.00 0.00 0.00 0.00 0.00 0.00 0.00 0.00 0.00 0.00 0.00 0.00 0.00 0.00 0.00 0.00 0.00 0.00 0.00 0.01 0.00 0.00 0.00 0.00 0.00 0.00
0.07 0.06 0.05 0.04 0.03 0.02 0.02 0.01 0.02 0.01 0.01 0.00 0.00 0.00 0.00 0.00 0.00 0.00 0.00 0.00 0.00 0.00 0.00 0.00 0.00 0.00 0.00 0.00 0.00 0.00 0.00 0.00 0.00 0.00 0.00 0.00 0.00 0.00 0.00 0.00 0.00 0.00 0.00
0.04 0.03 0.02 0.02 0.02 0.01 0.01 0.01 0.01 0.00 0.00 0.00 0.00 0.00 0.00 0.00 0.00 0.00 0.00 0.00 0.00 0.00 0.00 0.00 0.00 0.00 0.00 0.00 0.00 0.00 0.00 0.00 0.00 0.00 0.01 0.00 0.00 0.00 0.00 0.00 0.00 0.00 0.00
0.02 0.02 0.01 0.02 0.02 0.02 0.01 0.01 0.00 0.00 0.00 0.00 0.00 0.00 0.00 0.00 0.00 0.00 0.00 0.00 0.00 0.00 0.00 0.00 0.00 0.00 0.00 0.00 0.00 0.00 0.00 0.00 0.00 0.00 0.00 0.01 0.00 0.00 0.00 0.00 0.00 0.00 0.00
0.02 0.02 0.02 0.01 0.01 0.01 0.01 0.01 0.01 0.00 0.00 0.00 0.00 0.00 0.00 0.00 0.00 0.00 0.00 0.00 0.00 0.00 0.00 0.00 0.00 0.00 0.00 0.00 0.00 0.00 0.00 0.00 0.00 0.00 0.00 0.00 0.00 0.00 0.00 0.00 0.00 0.00 0.00
0.01 0.01 0.02 0.01 0.01 0.01 0.01 0.01 0.00 0.00 0.00 0.00 0.00 0.00 0.00 0.00 0.00 0.00 0.00 0.00 0.00 0.00 0.00 0.00 0.00 0.00 0.00 0.00 0.00 0.00 0.00 0.00 0.00 0.00 0.00 0.00 0.00 0.00 0.00 0.00 0.00 0.00 0.00
0.01 0.01 0.02 0.02 0.02 0.02 0.02 0.01 0.01 0.00 0.00 0.01 0.00 0.00 0.00 0.00 0.00 0.00 0.00 0.00 0.00 0.00 0.00 0.00 0.00 0.00 0.00 0.00 0.00 0.00 0.00 0.00 0.00 0.00 0.00 0.00 0.00 0.01 0.01 0.01 0.01 0.00 0.01
0.02 0.02 0.02 0.02 0.02 0.02 0.01 0.01 0.01 0.00 0.01 0.01 0.01 0.00 0.00 0.00 0.00 0.00 0.00 0.00 0.00 0.00 0.00 0.00 0.00 0.00 0.00 0.00 0.00 0.00 0.00 0.00 0.00 0.00 0.00 0.01 0.01 0.01 0.01 0.01 0.01 0.01 0.01
0.02 0.02 0.02 0.01 0.01 0.01 0.01 0.01 0.01 0.00 0.00 0.01 0.00 0.00 0.00 0.00 0.00 0.00 0.00 0.00 0.00 0.00 0.00 0.00 0.00 0.00 0.00 0.00 0.00 0.00 0.00 0.00 0.00 0.00 0.00 0.01 0.00 0.00 0.01 0.00 0.00 0.00 0.00

GEFSMW_prec_meanprec_078.txt.gz
QPF
0.04 0.07 0.09 0.14 0.27 0.32 0.32 0.42 0.55 0.52 0.50 0.53 0.49 0.45 0.43 0.43 0.42 0.37 0.32 0.30 0.28 0.28 0.26 0.25 0.25 0.24 0.21 0.18 0.15 0.13 0.12 0.11 0.10 0.08 0.06 0.04 0.03 0.03 0.03 0.04 0.05 0.07 0.09
0.04 0.07 0.10 0.17 0.27 0.33 0.42 0.43 0.63 0.74 0.73 0.71 0.64 0.57 0.52 0.48 0.44 0.41 0.38 0.39 0.38 0.33 0.29 0.29 0.29 0.27 0.22 0.19 0.16 0.15 0.14 0.12 0.10 0.08 0.06 0.04 0.02 0.03 0.03 0.03 0.03 0.03 0.05
0.04 0.06 0.08 0.14 0.22 0.28 0.37 0.47 0.56 0.79 0.93 0.91 0.80 0.69 0.60 0.53 0.42 0.34 0.34 0.37 0.36 0.34 0.33 0.35 0.26 0.18 0.15 0.13 0.13 0.13 0.14 0.12 0.09 0.08 0.06 0.04 0.02 0.01 0.01 0.01 0.02 0.02 0.02
0.06 0.07 0.09 0.13 0.20 0.31 0.38 0.50 0.75 0.94 1.09 1.07 1.02 0.97 0.82 0.66 0.51 0.38 0.32 0.32 0.32 0.30 0.27 0.24 0.20 0.17 0.14 0.12 0.10 0.09 0.09 0.08 0.06 0.05 0.04 0.03 0.02 0.02 0.02 0.01 0.01 0.01 0.01
0.10 0.10 0.11 0.12 0.17 0.26 0.35 0.45 0.66 0.80 0.95 1.07 1.06 1.00 0.91 0.76 0.63 0.47 0.33 0.25 0.23 0.20 0.18 0.15 0.13 0.13 0.12 0.10 0.08 0.07 0.06 0.05 0.04 0.03 0.03 0.03 0.02 0.02 0.02 0.02 0.02 0.02 0.03
0.09 0.09 0.09 0.10 0.12 0.20 0.29 0.33 0.38 0.52 0.66 0.79 0.85 0.85 0.81 0.70 0.58 0.46 0.35 0.23 0.16 0.14 0.12 0.10 0.08 0.06 0.05 0.04 0.03 0.03 0.02 0.02 0.01 0.01 0.01 0.02 0.02 0.02 0.02 0.03 0.03 0.03 0.03
0.06 0.07 0.08 0.07 0.09 0.12 0.18 0.22 0.26 0.38 0.51 0.59 0.64 0.60 0.59 0.53 0.45 0.37 0.30 0.23 0.16 0.12 0.11 0.08 0.05 0.03 0.02 0.02 0.01 0.01 0.01 0.01 0.01 0.01 0.01 0.01 0.01 0.01 0.02 0.02 0.02 0.02 0.02
0.04 0.06 0.07 0.06 0.07 0.08 0.11 0.14 0.16 0.21 0.26 0.32 0.35 0.34 0.32 0.29 0.26 0.25 0.21 0.16 0.11 0.07 0.05 0.04 0.02 0.02 0.01 0.01 0.01 0.00 0.00 0.00 0.00 0.00 0.00 0.00 0.01 0.01 0.01 0.01 0.01 0.02 0.02
0.04 0.04 0.04 0.03 0.05 0.07 0.07 0.08 0.09 0.11 0.13 0.16 0.17 0.18 0.17 0.14 0.13 0.11 0.08 0.06 0.04 0.03 0.02 0.02 0.01 0.01 0.00 0.00 0.00 0.00 0.00 0.00 0.00 0.00 0.00 0.00 0.01 0.00 0.00 0.01 0.01 0.01 0.01
0.02 0.02 0.03 0.02 0.04 0.06 0.06 0.06 0.08 0.09 0.10 0.10 0.10 0.12 0.12 0.10 0.10 0.09 0.05 0.03 0.02 0.02 0.01 0.01 0.02 0.01 0.00 0.00 0.00 0.00 0.00 0.00 0.00 0.00 0.00 0.00 0.00 0.00 0.00 0.00 0.00 0.00 0.00
0.02 0.02 0.03 0.02 0.03 0.04 0.04 0.05 0.07 0.07 0.08 0.08 0.09 0.09 0.08 0.06 0.05 0.05 0.04 0.03 0.02 0.02 0.01 0.01 0.00 0.00 0.00 0.00 0.00 0.00 0.00 0.00 0.00 0.00 0.00 0.00 0.00 0.00 0.00 0.00 0.00 0.00 0.00
0.04 0.03 0.03 0.03 0.03 0.04 0.04 0.04 0.05 0.07 0.07 0.06 0.05 0.07 0.06 0.05 0.03 0.03 0.03 0.02 0.02 0.01 0.01 0.01 0.00 0.00 0.00 0.00 0.00 0.00 0.00 0.00 0.00 0.00 0.00 0.00 0.00 0.00 0.00 0.00 0.00 0.00 0.00
0.09 0.06 0.05 0.04 0.03 0.03 0.02 0.03 0.03 0.04 0.05 0.05 0.03 0.02 0.03 0.02 0.01 0.01 0.01 0.01 0.01 0.01 0.00 0.00 0.00 0.00 0.00 0.00 0.00 0.00 0.00 0.00 0.00 0.00 0.00 0.00 0.00 0.00 0.00 0.00 0.00 0.00 0.00
0.12 0.09 0.07 0.06 0.04 0.03 0.02 0.01 0.01 0.01 0.02 0.03 0.02 0.01 0.01 0.01 0.01 0.00 0.00 0.00 0.00 0.00 0.00 0.00 0.00 0.00 0.00 0.00 0.00 0.00 0.00 0.00 0.00 0.00 0.00 0.00 0.00 0.00 0.00 0.00 0.00 0.00 0.00
0.10 0.07 0.05 0.04 0.03 0.02 0.02 0.01 0.01 0.01 0.01 0.01 0.00 0.00 0.00 0.00 0.00 0.00 0.00 0.00 0.00 0.00 0.00 0.00 0.00 0.00 0.00 0.00 0.00 0.00 0.00 0.00 0.00 0.00 0.00 0.00 0.00 0.00 0.00 0.00 0.00 0.00 0.00
0.06 0.03 0.03 0.02 0.03 0.02 0.01 0.01 0.00 0.00 0.00 0.00 0.00 0.00 0.00 0.00 0.00 0.00 0.00 0.00 0.00 0.00 0.00 0.00 0.00 0.00 0.00 0.00 0.00 0.00 0.00 0.00 0.00 0.00 0.00 0.00 0.00 0.00 0.00 0.00 0.00 0.00 0.00
0.07 0.03 0.02 0.02 0.02 0.02 0.01 0.00 0.00 0.00 0.00 0.00 0.00 0.00 0.00 0.00 0.00 0.00 0.00 0.00 0.00 0.00 0.00 0.00 0.00 0.00 0.00 0.00 0.00 0.00 0.00 0.00 0.00 0.00 0.00 0.00 0.00 0.00 0.00 0.00 0.00 0.00 0.00
0.08 0.04 0.03 0.02 0.02 0.02 0.01 0.00 0.00 0.00 0.00 0.00 0.00 0.00 0.00 0.00 0.00 0.00 0.00 0.00 0.00 0.00 0.00 0.00 0.00 0.00 0.00 0.00 0.00 0.00 0.00 0.00 0.00 0.00 0.00 0.00 0.00 0.00 0.00 0.00 0.00 0.00 0.00
0.07 0.05 0.04 0.03 0.03 0.02 0.02 0.01 0.00 0.00 0.00 0.00 0.00 0.00 0.00 0.00 0.00 0.00 0.00 0.00 0.00 0.00 0.00 0.00 0.00 0.00 0.00 0.00 0.00 0.00 0.00 0.00 0.00 0.00 0.00 0.00 0.00 0.00 0.00 0.00 0.00 0.00 0.00
0.07 0.06 0.04 0.03 0.02 0.01 0.01 0.00 0.00 0.00 0.00 0.00 0.00 0.00 0.00 0.00 0.00 0.00 0.00 0.00 0.00 0.00 0.00 0.00 0.00 0.00 0.00 0.00 0.00 0.00 0.00 0.00 0.00 0.00 0.00 0.00 0.00 0.00 0.00 0.00 0.00 0.00 0.00
0.05 0.04 0.03 0.03 0.02 0.01 0.01 0.01 0.01 0.01 0.00 0.00 0.00 0.00 0.00 0.00 0.00 0.00 0.00 0.00 0.00 0.00 0.00 0.00 0.00 0.00 0.00 0.00 0.00 0.00 0.00 0.00 0.00 0.00 0.00 0.00 0.00 0.00 0.00 0.00 0.00 0.00 0.00
0.05 0.03 0.03 0.03 0.03 0.01 0.01 0.01 0.01 0.01 0.00 0.00 0.00 0.00 0.00 0.00 0.00 0.00 0.00 0.00 0.00 0.00 0.00 0.00 0.00 0.00 0.00 0.00 0.00 0.00 0.00 0.00 0.00 0.00 0.00 0.00 0.00 0.00 0.00 0.00 0.00 0.00 0.00
0.03 0.02 0.02 0.03 0.02 0.01 0.01 0.01 0.00 0.00 0.00 0.00 0.00 0.00 0.00 0.00 0.00 0.00 0.00 0.00 0.00 0.00 0.00 0.00 0.00 0.00 0.00 0.00 0.00 0.00 0.00 0.00 0.00 0.00 0.00 0.00 0.00 0.00 0.00 0.00 0.00 0.00 0.00
0.02 0.02 0.02 0.01 0.01 0.01 0.01 0.01 0.00 0.00 0.00 0.00 0.00 0.00 0.00 0.00 0.00 0.00 0.00 0.00 0.00 0.00 0.00 0.00 0.00 0.00 0.00 0.00 0.00 0.00 0.00 0.00 0.00 0.00 0.00 0.00 0.00 0.01 0.01 0.01 0.01 0.00 0.00
0.01 0.02 0.02 0.01 0.01 0.01 0.02 0.02 0.01 0.00 0.01 0.01 0.02 0.02 0.01 0.00 0.00 0.00 0.00 0.00 0.00 0.00 0.00 0.00 0.00 0.00 0.00 0.00 0.00 0.00 0.00 0.00 0.00 0.00 0.00 0.00 0.00 0.00 0.00 0.00 0.01 0.01 0.00
0.01 0.02 0.02 0.01 0.01 0.01 0.02 0.01 0.00 0.00 0.01 0.02 0.03 0.02 0.01 0.00 0.00 0.00 0.00 0.00 0.00 0.00 0.00 0.00 0.00 0.00 0.00 0.00 0.00 0.00 0.00 0.00 0.00 0.00 0.00 0.00 0.00 0.00 0.00 0.00 0.00 0.00 0.00

GEFSMW_prec_meanprec_084.txt.gz
QPF
0.01 0.01 0.01 0.02 0.04 0.06 0.08 0.12 0.16 0.19 0.25 0.34 0.38 0.35 0.33 0.30 0.30 0.32 0.28 0.28 0.26 0.26 0.26 0.23 0.20 0.17 0.14 0.11 0.12 0.10 0.08 0.07 0.07 0.08 0.07 0.05 0.03 0.02 0.02 0.02 0.02 0.02 0.02
0.01 0.02 0.02 0.03 0.04 0.05 0.07 0.09 0.12 0.17 0.21 0.27 0.37 0.39 0.37 0.34 0.38 0.42 0.35 0.31 0.28 0.25 0.25 0.23 0.21 0.18 0.16 0.13 0.11 0.08 0.07 0.06 0.07 0.07 0.08 0.07 0.06 0.04 0.03 0.01 0.01 0.01 0.01
0.01 0.02 0.02 0.03 0.04 0.04 0.07 0.09 0.11 0.16 0.21 0.28 0.37 0.44 0.43 0.41 0.39 0.36 0.33 0.28 0.26 0.25 0.26 0.23 0.21 0.19 0.16 0.13 0.10 0.08 0.08 0.08 0.07 0.07 0.09 0.09 0.09 0.06 0.03 0.01 0.01 0.01 0.00
0.02 0.03 0.03 0.03 0.03 0.04 0.06 0.08 0.10 0.17 0.25 0.29 0.31 0.36 0.41 0.41 0.38 0.32 0.28 0.25 0.23 0.21 0.21 0.20 0.19 0.17 0.14 0.10 0.08 0.08 0.08 0.07 0.07 0.07 0.07 0.07 0.07 0.07 0.06 0.04 0.02 0.01 0.01
0.02 0.02 0.02 0.02 0.03 0.04 0.06 0.09 0.11 0.14 0.19 0.24 0.24 0.29 0.33 0.37 0.38 0.33 0.31 0.29 0.25 0.23 0.22 0.20 0.18 0.15 0.12 0.08 0.07 0.06 0.05 0.05 0.04 0.04 0.05 0.05 0.05 0.05 0.06 0.05 0.03 0.02 0.02
0.02 0.02 0.02 0.02 0.03 0.04 0.06 0.07 0.10 0.14 0.16 0.18 0.21 0.23 0.28 0.32 0.34 0.34 0.32 0.33 0.29 0.27 0.26 0.21 0.18 0.14 0.10 0.08 0.07 0.05 0.05 0.04 0.03 0.03 0.03 0.03 0.03 0.03 0.03 0.03 0.02 0.02 0.02
0.04 0.03 0.03 0.03 0.04 0.04 0.05 0.06 0.08 0.12 0.16 0.19 0.23 0.28 0.30 0.34 0.37 0.38 0.35 0.33 0.30 0.29 0.26 0.21 0.17 0.13 0.09 0.07 0.05 0.04 0.04 0.03 0.02 0.02 0.01 0.01 0.01 0.01 0.01 0.01 0.01 0.01 0.01
0.03 0.03 0.03 0.04 0.05 0.06 0.06 0.07 0.08 0.11 0.12 0.14 0.15 0.19 0.24 0.26 0.30 0.30 0.30 0.32 0.29 0.24 0.19 0.16 0.12 0.08 0.06 0.05 0.03 0.03 0.02 0.02 0.01 0.01 0.01 0.01 0.00 0.00 0.00 0.01 0.01 0.01 0.01
0.03 0.03 0.03 0.04 0.05 0.06 0.05 0.06 0.06 0.07 0.08 0.11 0.11 0.12 0.15 0.16 0.16 0.16 0.17 0.18 0.17 0.14 0.12 0.09 0.06 0.04 0.03 0.02 0.02 0.01 0.01 0.01 0.00 0.00 0.00 0.00 0.00 0.00 0.00 0.00 0.00 0.00 0.00
0.04 0.03 0.02 0.02 0.03 0.04 0.06 0.06 0.05 0.04 0.05 0.09 0.11 0.10 0.11 0.11 0.11 0.11 0.11 0.11 0.09 0.08 0.07 0.05 0.03 0.03 0.03 0.01 0.01 0.00 0.00 0.00 0.00 0.00 0.00 0.00 0.00 0.00 0.00 0.00 0.00 0.00 0.00
0.04 0.03 0.03 0.02 0.02 0.02 0.04 0.05 0.04 0.05 0.06 0.08 0.09 0.10 0.11 0.11 0.10 0.10 0.10 0.09 0.07 0.04 0.03 0.03 0.02 0.02 0.01 0.01 0.01 0.01 0.01 0.00 0.00 0.00 0.00 0.00 0.00 0.00 0.00 0.00 0.00 0.00 0.00
0.03 0.04 0.04 0.03 0.03 0.04 0.04 0.04 0.05 0.06 0.07 0.07 0.08 0.09 0.08 0.08 0.06 0.06 0.06 0.06 0.05 0.04 0.03 0.02 0.01 0.01 0.01 0.00 0.00 0.00 0.00 0.00 0.00 0.00 0.00 0.00 0.00 0.00 0.00 0.00 0.00 0.00 0.00
0.06 0.04 0.05 0.05 0.06 0.07 0.06 0.05 0.05 0.06 0.08 0.07 0.06 0.07 0.07 0.07 0.06 0.05 0.03 0.03 0.02 0.02 0.01 0.01 0.00 0.00 0.00 0.00 0.00 0.00 0.00 0.00 0.00 0.00 0.00 0.00 0.00 0.00 0.00 0.00 0.00 0.00 0.00
0.08 0.08 0.08 0.07 0.07 0.09 0.08 0.07 0.06 0.06 0.06 0.08 0.07 0.05 0.03 0.04 0.04 0.03 0.02 0.01 0.01 0.00 0.00 0.00 0.00 0.00 0.00 0.00 0.00 0.00 0.00 0.00 0.00 0.00 0.00 0.00 0.00 0.00 0.00 0.00 0.00 0.00 0.00
0.12 0.12 0.11 0.09 0.09 0.09 0.09 0.08 0.06 0.05 0.04 0.05 0.06 0.05 0.02 0.01 0.01 0.01 0.01 0.01 0.00 0.00 0.00 0.00 0.00 0.00 0.00 0.00 0.00 0.00 0.00 0.00 0.00 0.00 0.00 0.00 0.00 0.00 0.00 0.00 0.00 0.00 0.01
0.13 0.14 0.12 0.11 0.11 0.09 0.08 0.07 0.05 0.04 0.03 0.02 0.03 0.04 0.03 0.01 0.00 0.00 0.00 0.00 0.00 0.00 0.00 0.00 0.00 0.00 0.00 0.00 0.00 0.00 0.00 0.00 0.00 0.00 0.00 0.00 0.00 0.00 0.00 0.00 0.00 0.00 0.00
0.12 0.12 0.11 0.10 0.09 0.07 0.06 0.05 0.03 0.02 0.01 0.01 0.01 0.01 0.01 0.01 0.00 0.00 0.00 0.00 0.00 0.00 0.00 0.00 0.00 0.00 0.00 0.00 0.00 0.00 0.00 0.00 0.00 0.01 0.01 0.00 0.00 0.00 0.00 0.00 0.00 0.00 0.00
0.11 0.10 0.10 0.06 0.06 0.06 0.04 0.03 0.02 0.01 0.01 0.01 0.01 0.01 0.01 0.00 0.00 0.00 0.00 0.00 0.00 0.00 0.00 0.00 0.00 0.00 0.00 0.00 0.00 0.00 0.00 0.01 0.01 0.01 0.01 0.01 0.01 0.00 0.00 0.00 0.01 0.01 0.01
0.10 0.08 0.07 0.04 0.03 0.03 0.02 0.01 0.01 0.01 0.01 0.01 0.02 0.01 0.01 0.01 0.00 0.01 0.01 0.01 0.01 0.01 0.01 0.00 0.01 0.01 0.00 0.00 0.00 0.00 0.00 0.00 0.00 0.00 0.00 0.00 0.01 0.00 0.00 0.01 0.03 0.03 0.03
0.08 0.07 0.04 0.03 0.04 0.02 0.02 0.02 0.01 0.01 0.01 0.01 0.02 0.01 0.01 0.01 0.01 0.01 0.01 0.01 0.01 0.01 0.01 0.01 0.01 0.01 0.01 0.00 0.00 0.00 0.00 0.00 0.00 0.00 0.00 0.00 0.00 0.00 0.00 0.01 0.03 0.03 0.02
0.07 0.06 0.04 0.02 0.03 0.02 0.02 0.02 0.02 0.02 0.02 0.01 0.01 0.01 0.01 0.01 0.01 0.01 0.01 0.01 0.01 0.01 0.01 0.01 0.01 0.01 0.00 0.00 0.00 0.00 0.00 0.00 0.00 0.01 0.01 0.00 0.00 0.00 0.00 0.00 0.01 0.01 0.00
0.06 0.05 0.03 0.03 0.03 0.02 0.02 0.02 0.03 0.03 0.03 0.01 0.01 0.01 0.01 0.00 0.00 0.01 0.01 0.01 0.01 0.01 0.01 0.01 0.01 0.01 0.00 0.00 0.00 0.00 0.00 0.00 0.00 0.01 0.00 0.00 0.00 0.00 0.00 0.00 0.00 0.00 0.00
0.05 0.05 0.05 0.04 0.03 0.03 0.03 0.03 0.03 0.03 0.01 0.01 0.01 0.01 0.01 0.01 0.01 0.01 0.01 0.01 0.01 0.01 0.00 0.01 0.01 0.00 0.00 0.00 0.00 0.00 0.00 0.00 0.00 0.00 0.00 0.00 0.00 0.00 0.00 0.00 0.00 0.00 0.01
0.04 0.05 0.05 0.05 0.04 0.03 0.03 0.04 0.03 0.02 0.01 0.01 0.01 0.01 0.01 0.01 0.01 0.00 0.00 0.00 0.00 0.00 0.00 0.00 0.00 0.00 0.00 0.00 0.00 0.00 0.00 0.00 0.00 0.00 0.00 0.00 0.00 0.00 0.00 0.00 0.00 0.01 0.01
0.04 0.04 0.06 0.07 0.05 0.03 0.03 0.03 0.03 0.02 0.02 0.02 0.02 0.02 0.02 0.01 0.00 0.00 0.00 0.00 0.00 0.00 0.00 0.00 0.00 0.00 0.00 0.00 0.00 0.00 0.00 0.00 0.00 0.00 0.01 0.01 0.01 0.00 0.00 0.00 0.00 0.00 0.00
0.03 0.04 0.05 0.04 0.03 0.03 0.03 0.02 0.01 0.01 0.02 0.02 0.02 0.01 0.01 0.01 0.00 0.00 0.00 0.00 0.00 0.00 0.00 0.00 0.00 0.00 0.00 0.00 0.00 0.00 0.00 0.00 0.00 0.00 0.01 0.00 0.00 0.00 0.00 0.00 0.00 0.00 0.00

GEFSMW_prec_meanprec_090.txt.gz
QPF
0.03 0.03 0.07 0.07 0.10 0.11 0.14 0.18 0.26 0.26 0.21 0.20 0.19 0.25 0.35 0.40 0.41 0.38 0.38 0.43 0.41 0.40 0.40 0.37 0.30 0.26 0.25 0.24 0.25 0.24 0.22 0.17 0.15 0.16 0.13 0.10 0.10 0.09 0.07 0.06 0.05 0.04 0.03
0.03 0.03 0.04 0.06 0.13 0.16 0.14 0.18 0.22 0.24 0.22 0.19 0.17 0.22 0.29 0.32 0.32 0.32 0.31 0.29 0.29 0.31 0.32 0.34 0.31 0.28 0.27 0.26 0.25 0.26 0.27 0.19 0.15 0.18 0.17 0.14 0.13 0.10 0.06 0.04 0.03 0.02 0.01
0.02 0.02 0.03 0.04 0.08 0.11 0.13 0.18 0.22 0.24 0.23 0.20 0.20 0.23 0.24 0.27 0.28 0.28 0.28 0.26 0.22 0.22 0.24 0.28 0.27 0.26 0.26 0.25 0.23 0.22 0.21 0.18 0.14 0.13 0.17 0.17 0.15 0.11 0.08 0.04 0.03 0.02 0.02
0.04 0.03 0.04 0.05 0.06 0.07 0.11 0.15 0.20 0.24 0.28 0.29 0.31 0.27 0.23 0.22 0.22 0.24 0.22 0.20 0.19 0.19 0.19 0.23 0.26 0.22 0.20 0.21 0.20 0.19 0.16 0.16 0.14 0.10 0.10 0.12 0.14 0.13 0.12 0.08 0.05 0.03 0.02
0.03 0.03 0.03 0.05 0.04 0.06 0.09 0.13 0.19 0.23 0.26 0.33 0.38 0.41 0.34 0.26 0.22 0.20 0.19 0.17 0.17 0.16 0.15 0.15 0.18 0.20 0.18 0.15 0.13 0.12 0.12 0.11 0.10 0.08 0.07 0.07 0.08 0.10 0.11 0.09 0.06 0.04 0.02
0.02 0.02 0.02 0.02 0.02 0.03 0.05 0.09 0.16 0.21 0.23 0.27 0.28 0.28 0.26 0.24 0.22 0.18 0.16 0.16 0.16 0.17 0.17 0.16 0.15 0.16 0.16 0.13 0.11 0.10 0.09 0.09 0.09 0.08 0.07 0.06 0.06 0.07 0.08 0.09 0.07 0.05 0.03
0.02 0.03 0.03 0.03 0.03 0.03 0.05 0.07 0.10 0.15 0.19 0.21 0.21 0.18 0.20 0.18 0.18 0.21 0.21 0.20 0.18 0.17 0.18 0.17 0.15 0.14 0.13 0.12 0.11 0.10 0.09 0.08 0.08 0.08 0.07 0.06 0.05 0.04 0.05 0.05 0.06 0.04 0.03
0.04 0.04 0.03 0.04 0.03 0.05 0.05 0.06 0.08 0.08 0.11 0.12 0.12 0.13 0.17 0.17 0.14 0.15 0.17 0.17 0.17 0.16 0.16 0.15 0.15 0.14 0.13 0.11 0.10 0.09 0.08 0.07 0.06 0.06 0.05 0.04 0.03 0.03 0.02 0.02 0.02 0.02 0.02
0.05 0.05 0.04 0.04 0.04 0.03 0.04 0.05 0.06 0.06 0.06 0.06 0.07 0.09 0.12 0.12 0.12 0.11 0.12 0.15 0.16 0.15 0.13 0.11 0.11 0.11 0.11 0.09 0.06 0.05 0.04 0.04 0.03 0.03 0.02 0.02 0.01 0.01 0.01 0.02 0.02 0.02 0.02
0.03 0.04 0.03 0.04 0.04 0.04 0.04 0.03 0.04 0.05 0.06 0.06 0.05 0.06 0.08 0.09 0.09 0.08 0.08 0.08 0.08 0.09 0.09 0.08 0.07 0.06 0.05 0.04 0.03 0.02 0.02 0.02 0.02 0.02 0.02 0.02 0.02 0.01 0.01 0.01 0.01 0.01 0.01
0.02 0.03 0.03 0.03 0.03 0.04 0.05 0.06 0.05 0.06 0.06 0.06 0.06 0.06 0.06 0.07 0.07 0.08 0.07 0.06 0.05 0.05 0.06 0.05 0.04 0.04 0.03 0.02 0.02 0.01 0.01 0.02 0.02 0.01 0.01 0.01 0.01 0.01 0.00 0.00 0.00 0.00 0.00
0.01 0.03 0.03 0.03 0.03 0.04 0.05 0.07 0.07 0.07 0.08 0.07 0.06 0.06 0.05 0.04 0.05 0.05 0.05 0.05 0.05 0.04 0.03 0.02 0.02 0.02 0.02 0.02 0.02 0.01 0.01 0.01 0.01 0.00 0.00 0.00 0.00 0.00 0.00 0.00 0.00 0.00 0.00
0.03 0.04 0.05 0.05 0.04 0.04 0.04 0.05 0.06 0.06 0.06 0.07 0.05 0.04 0.04 0.04 0.04 0.03 0.02 0.02 0.02 0.03 0.02 0.01 0.01 0.01 0.00 0.01 0.00 0.01 0.01 0.00 0.00 0.00 0.00 0.00 0.00 0.00 0.00 0.00 0.00 0.00 0.00
0.04 0.04 0.06 0.06 0.06 0.06 0.05 0.05 0.05 0.06 0.06 0.06 0.05 0.05 0.05 0.05 0.04 0.04 0.03 0.02 0.01 0.01 0.01 0.01 0.00 0.00 0.00 0.00 0.00 0.00 0.00 0.00 0.00 0.00 0.00 0.00 0.00 0.00 0.00 0.00 0.00 0.01 0.01
0.04 0.05 0.07 0.07 0.07 0.07 0.07 0.07 0.06 0.06 0.06 0.07 0.07 0.07 0.05 0.04 0.03 0.03 0.03 0.03 0.02 0.01 0.01 0.00 0.00 0.00 0.00 0.00 0.00 0.00 0.00 0.01 0.01 0.00 0.00 0.00 0.00 0.00 0.00 0.00 0.00 0.00 0.01
0.06 0.07 0.08 0.08 0.08 0.08 0.08 0.08 0.08 0.08 0.06 0.07 0.08 0.07 0.06 0.04 0.03 0.02 0.02 0.02 0.01 0.01 0.01 0.00 0.00 0.00 0.00 0.00 0.00 0.00 0.01 0.01 0.01 0.01 0.01 0.00 0.00 0.00 0.00 0.00 0.00 0.00 0.00
0.09 0.08 0.08 0.09 0.09 0.10 0.10 0.10 0.09 0.08 0.06 0.05 0.06 0.06 0.06 0.06 0.05 0.03 0.02 0.02 0.01 0.01 0.01 0.01 0.00 0.00 0.00 0.00 0.00 0.00 0.01 0.02 0.02 0.02 0.02 0.01 0.00 0.00 0.00 0.00 0.01 0.01 0.00
0.10 0.09 0.09 0.10 0.09 0.08 0.08 0.08 0.08 0.07 0.06 0.05 0.05 0.04 0.04 0.04 0.04 0.03 0.03 0.02 0.02 0.02 0.02 0.01 0.01 0.01 0.00 0.00 0.00 0.00 0.01 0.03 0.02 0.01 0.02 0.03 0.02 0.00 0.00 0.01 0.04 0.06 0.03
0.12 0.12 0.10 0.09 0.08 0.07 0.07 0.07 0.07 0.08 0.07 0.07 0.06 0.04 0.03 0.03 0.04 0.03 0.03 0.03 0.03 0.03 0.03 0.02 0.03 0.02 0.00 0.00 0.00 0.00 0.01 0.03 0.02 0.01 0.00 0.01 0.01 0.00 0.00 0.02 0.07 0.07 0.04
0.10 0.10 0.10 0.09 0.07 0.06 0.05 0.05 0.05 0.05 0.05 0.04 0.04 0.03 0.03 0.04 0.04 0.04 0.03 0.03 0.03 0.03 0.02 0.02 0.02 0.02 0.01 0.00 0.00 0.00 0.01 0.03 0.03 0.03 0.02 0.00 0.00 0.00 0.00 0.01 0.03 0.03 0.02
0.08 0.08 0.09 0.08 0.07 0.05 0.05 0.05 0.04 0.04 0.03 0.02 0.02 0.02 0.03 0.03 0.03 0.03 0.04 0.04 0.03 0.02 0.02 0.02 0.02 0.01 0.00 0.00 0.00 0.00 0.01 0.02 0.03 0.03 0.03 0.01 0.00 0.00 0.00 0.00 0.01 0.00 0.00
0.07 0.07 0.06 0.05 0.05 0.04 0.05 0.05 0.05 0.03 0.02 0.02 0.02 0.02 0.02 0.01 0.02 0.03 0.04 0.03 0.03 0.03 0.02 0.03 0.03 0.02 0.01 0.00 0.00 0.00 0.00 0.00 0.02 0.02 0.01 0.00 0.00 0.00 0.00 0.00 0.00 0.00 0.00
0.06 0.06 0.05 0.04 0.06 0.06 0.06 0.06 0.04 0.02 0.01 0.02 0.02 0.02 0.01 0.01 0.01 0.02 0.02 0.01 0.02 0.02 0.02 0.02 0.02 0.02 0.02 0.00 0.00 0.00 0.00 0.00 0.01 0.01 0.00 0.00 0.00 0.00 0.00 0.00 0.00 0.00 0.01
0.06 0.05 0.05 0.05 0.06 0.07 0.06 0.05 0.03 0.02 0.02 0.03 0.03 0.03 0.01 0.01 0.01 0.01 0.00 0.00 0.01 0.01 0.01 0.01 0.01 0.02 0.02 0.01 0.01 0.01 0.01 0.00 0.00 0.01 0.01 0.00 0.00 0.00 0.00 0.00 0.00 0.00 0.00
0.07 0.07 0.07 0.06 0.05 0.05 0.04 0.03 0.04 0.03 0.04 0.04 0.04 0.02 0.01 0.01 0.02 0.01 0.00 0.00 0.00 0.00 0.01 0.01 0.01 0.02 0.01 0.00 0.00 0.00 0.00 0.00 0.00 0.01 0.01 0.01 0.01 0.01 0.01 0.00 0.00 0.01 0.00
0.07 0.07 0.06 0.06 0.04 0.02 0.03 0.03 0.03 0.03 0.04 0.03 0.02 0.01 0.01 0.01 0.01 0.01 0.00 0.00 0.00 0.00 0.00 0.00 0.00 0.00 0.00 0.00 0.00 0.00 0.00 0.00 0.00 0.00 0.02 0.01 0.01 0.00 0.00 0.00 0.00 0.00 0.00

GEFSMW_prec_meanprec_096.txt.gz
QPF
0.04 0.05 0.09 0.14 0.22 0.28 0.29 0.26 0.24 0.25 0.21 0.23 0.26 0.29 0.34 0.42 0.48 0.45 0.42 0.38 0.42 0.49 0.52 0.56 0.45 0.40 0.39 0.34 0.31 0.27 0.25 0.21 0.19 0.20 0.19 0.16 0.15 0.15 0.11 0.08 0.06 0.05 0.04
0.06 0.05 0.08 0.12 0.16 0.24 0.28 0.24 0.22 0.23 0.23 0.25 0.33 0.38 0.40 0.42 0.46 0.47 0.40 0.38 0.38 0.40 0.40 0.41 0.40 0.36 0.36 0.35 0.32 0.29 0.24 0.19 0.17 0.17 0.18 0.14 0.15 0.12 0.08 0.06 0.05 0.04 0.03
0.07 0.06 0.07 0.10 0.12 0.16 0.26 0.27 0.24 0.22 0.24 0.27 0.33 0.39 0.46 0.48 0.42 0.41 0.41 0.39 0.36 0.35 0.34 0.28 0.25 0.26 0.29 0.30 0.29 0.27 0.24 0.20 0.17 0.14 0.15 0.14 0.14 0.15 0.11 0.06 0.04 0.03 0.02
0.10 0.07 0.09 0.12 0.13 0.16 0.20 0.24 0.25 0.24 0.27 0.29 0.31 0.41 0.46 0.42 0.38 0.33 0.31 0.27 0.24 0.22 0.20 0.16 0.15 0.16 0.19 0.20 0.21 0.23 0.21 0.19 0.17 0.15 0.12 0.11 0.10 0.11 0.10 0.09 0.07 0.05 0.04
0.09 0.07 0.06 0.09 0.13 0.14 0.15 0.14 0.18 0.25 0.30 0.30 0.30 0.32 0.38 0.38 0.35 0.30 0.28 0.23 0.21 0.19 0.17 0.16 0.13 0.12 0.12 0.13 0.15 0.16 0.17 0.17 0.17 0.16 0.14 0.14 0.12 0.10 0.08 0.09 0.07 0.06 0.05
0.07 0.07 0.05 0.04 0.07 0.07 0.07 0.08 0.11 0.14 0.25 0.31 0.28 0.27 0.27 0.25 0.24 0.20 0.19 0.18 0.14 0.14 0.15 0.17 0.15 0.13 0.11 0.09 0.09 0.10 0.11 0.11 0.11 0.12 0.12 0.12 0.14 0.14 0.13 0.11 0.10 0.08 0.06
0.02 0.02 0.02 0.02 0.02 0.02 0.04 0.05 0.09 0.14 0.16 0.19 0.25 0.26 0.24 0.21 0.17 0.13 0.11 0.10 0.10 0.11 0.11 0.10 0.11 0.12 0.12 0.12 0.11 0.09 0.09 0.09 0.10 0.10 0.11 0.12 0.12 0.12 0.12 0.11 0.09 0.06 0.04
0.03 0.02 0.01 0.02 0.02 0.02 0.03 0.04 0.05 0.09 0.12 0.14 0.18 0.20 0.18 0.20 0.20 0.13 0.10 0.09 0.07 0.07 0.07 0.06 0.07 0.08 0.08 0.09 0.09 0.08 0.08 0.07 0.08 0.08 0.07 0.07 0.06 0.05 0.04 0.03 0.03 0.03 0.02
0.03 0.02 0.01 0.01 0.01 0.01 0.02 0.03 0.05 0.06 0.08 0.09 0.10 0.10 0.11 0.13 0.15 0.14 0.11 0.08 0.06 0.05 0.05 0.05 0.06 0.07 0.08 0.08 0.07 0.05 0.05 0.04 0.03 0.03 0.02 0.02 0.02 0.01 0.01 0.01 0.01 0.01 0.01
0.02 0.02 0.01 0.01 0.01 0.01 0.01 0.02 0.03 0.05 0.06 0.06 0.06 0.06 0.05 0.05 0.06 0.06 0.04 0.03 0.03 0.02 0.02 0.02 0.03 0.03 0.04 0.03 0.03 0.02 0.01 0.01 0.01 0.01 0.01 0.01 0.01 0.01 0.00 0.00 0.00 0.00 0.00
0.01 0.01 0.01 0.01 0.01 0.01 0.02 0.02 0.02 0.03 0.05 0.06 0.06 0.07 0.06 0.05 0.04 0.03 0.03 0.02 0.01 0.01 0.01 0.01 0.01 0.01 0.02 0.02 0.02 0.02 0.02 0.01 0.01 0.01 0.01 0.01 0.00 0.00 0.00 0.00 0.00 0.00 0.00
0.01 0.01 0.01 0.01 0.02 0.02 0.02 0.02 0.03 0.03 0.05 0.05 0.05 0.06 0.07 0.06 0.06 0.04 0.02 0.01 0.01 0.00 0.00 0.00 0.01 0.01 0.01 0.01 0.01 0.01 0.01 0.01 0.01 0.01 0.00 0.00 0.00 0.00 0.00 0.00 0.00 0.00 0.00
0.01 0.01 0.01 0.02 0.03 0.03 0.03 0.02 0.03 0.04 0.04 0.05 0.05 0.05 0.05 0.04 0.04 0.03 0.02 0.01 0.01 0.00 0.00 0.00 0.00 0.00 0.00 0.00 0.00 0.00 0.00 0.00 0.00 0.00 0.00 0.00 0.00 0.00 0.00 0.00 0.00 0.00 0.00
0.02 0.01 0.02 0.03 0.04 0.05 0.04 0.04 0.04 0.05 0.05 0.05 0.05 0.04 0.03 0.03 0.02 0.01 0.02 0.02 0.01 0.01 0.00 0.00 0.00 0.00 0.00 0.00 0.00 0.00 0.00 0.00 0.00 0.00 0.00 0.00 0.00 0.00 0.00 0.00 0.00 0.00 0.00
0.01 0.01 0.02 0.03 0.04 0.05 0.05 0.04 0.03 0.04 0.05 0.06 0.05 0.03 0.02 0.02 0.01 0.01 0.01 0.01 0.01 0.01 0.00 0.00 0.00 0.00 0.00 0.00 0.00 0.00 0.00 0.00 0.00 0.00 0.00 0.00 0.00 0.00 0.00 0.00 0.00 0.00 0.00
0.01 0.01 0.02 0.03 0.03 0.03 0.04 0.03 0.04 0.05 0.04 0.04 0.04 0.03 0.02 0.02 0.01 0.01 0.01 0.00 0.00 0.00 0.00 0.00 0.00 0.00 0.00 0.00 0.00 0.00 0.00 0.00 0.00 0.00 0.00 0.00 0.00 0.00 0.00 0.00 0.00 0.00 0.00
0.01 0.02 0.02 0.02 0.03 0.03 0.03 0.03 0.02 0.04 0.04 0.03 0.02 0.03 0.03 0.02 0.02 0.02 0.02 0.02 0.01 0.01 0.00 0.00 0.00 0.00 0.00 0.00 0.00 0.00 0.00 0.00 0.00 0.00 0.00 0.00 0.00 0.00 0.00 0.00 0.00 0.00 0.00
0.03 0.03 0.02 0.02 0.03 0.03 0.03 0.03 0.02 0.02 0.02 0.02 0.03 0.03 0.03 0.03 0.02 0.02 0.02 0.01 0.01 0.01 0.00 0.00 0.00 0.00 0.00 0.00 0.00 0.00 0.00 0.00 0.00 0.00 0.00 0.00 0.00 0.00 0.00 0.00 0.00 0.00 0.00
0.03 0.03 0.02 0.03 0.03 0.03 0.03 0.03 0.02 0.02 0.02 0.02 0.02 0.02 0.02 0.02 0.02 0.01 0.01 0.01 0.00 0.00 0.00 0.00 0.00 0.00 0.00 0.00 0.00 0.00 0.00 0.00 0.00 0.00 0.00 0.00 0.00 0.00 0.00 0.00 0.00 0.00 0.00
0.04 0.04 0.03 0.03 0.03 0.03 0.03 0.03 0.02 0.02 0.03 0.02 0.02 0.01 0.01 0.01 0.01 0.01 0.01 0.00 0.01 0.01 0.00 0.00 0.00 0.00 0.00 0.00 0.00 0.00 0.00 0.00 0.00 0.00 0.00 0.00 0.00 0.00 0.00 0.00 0.00 0.00 0.00
0.04 0.04 0.03 0.03 0.03 0.03 0.03 0.02 0.02 0.02 0.02 0.01 0.01 0.01 0.01 0.01 0.01 0.01 0.01 0.00 0.01 0.01 0.00 0.00 0.00 0.00 0.00 0.00 0.00 0.00 0.00 0.00 0.00 0.00 0.00 0.00 0.00 0.00 0.00 0.00 0.00 0.00 0.00
0.04 0.03 0.03 0.03 0.03 0.03 0.02 0.02 0.01 0.01 0.01 0.01 0.01 0.01 0.01 0.01 0.00 0.00 0.00 0.01 0.01 0.00 0.00 0.00 0.00 0.00 0.00 0.00 0.00 0.00 0.00 0.00 0.00 0.00 0.00 0.00 0.00 0.00 0.00 0.00 0.00 0.00 0.00
0.04 0.04 0.02 0.02 0.02 0.02 0.02 0.01 0.01 0.01 0.00 0.00 0.01 0.01 0.01 0.00 0.00 0.00 0.00 0.01 0.01 0.00 0.00 0.00 0.00 0.00 0.00 0.00 0.00 0.00 0.00 0.00 0.00 0.00 0.00 0.00 0.00 0.00 0.00 0.00 0.00 0.00 0.00
0.04 0.03 0.02 0.02 0.02 0.02 0.01 0.01 0.01 0.01 0.01 0.01 0.01 0.00 0.00 0.00 0.00 0.00 0.00 0.00 0.00 0.00 0.00 0.00 0.00 0.00 0.00 0.00 0.00 0.00 0.00 0.00 0.00 0.00 0.00 0.00 0.00 0.00 0.00 0.00 0.00 0.00 0.00
0.03 0.03 0.03 0.02 0.03 0.02 0.02 0.01 0.01 0.01 0.01 0.01 0.00 0.00 0.00 0.00 0.00 0.00 0.00 0.00 0.00 0.00 0.00 0.00 0.00 0.00 0.00 0.00 0.00 0.00 0.00 0.00 0.00 0.00 0.00 0.00 0.00 0.00 0.00 0.00 0.00 0.00 0.00
0.03 0.03 0.04 0.03 0.02 0.02 0.02 0.01 0.01 0.00 0.00 0.00 0.00 0.00 0.00 0.00 0.00 0.00 0.00 0.00 0.00 0.00 0.00 0.00 0.00 0.00 0.00 0.00 0.00 0.00 0.00 0.00 0.00 0.00 0.00 0.00 0.00 0.00 0.00 0.00 0.00 0.00 0.00

GEFSMW_prec_meanprec_102.txt.gz
QPF
0.01 0.02 0.03 0.04 0.06 0.07 0.10 0.15 0.20 0.24 0.28 0.30 0.31 0.31 0.30 0.27 0.25 0.26 0.27 0.28 0.28 0.30 0.31 0.30 0.32 0.39 0.43 0.44 0.41 0.39 0.34 0.29 0.26 0.23 0.19 0.16 0.13 0.11 0.10 0.09 0.08 0.07 0.07
0.02 0.02 0.03 0.04 0.05 0.08 0.10 0.16 0.20 0.25 0.28 0.30 0.32 0.32 0.33 0.32 0.26 0.26 0.25 0.28 0.31 0.34 0.38 0.40 0.41 0.44 0.46 0.46 0.39 0.39 0.38 0.31 0.25 0.22 0.18 0.14 0.11 0.09 0.08 0.08 0.07 0.05 0.04
0.02 0.03 0.03 0.04 0.04 0.06 0.08 0.11 0.17 0.21 0.22 0.25 0.29 0.30 0.29 0.25 0.22 0.21 0.25 0.31 0.37 0.42 0.42 0.43 0.46 0.44 0.41 0.44 0.43 0.39 0.38 0.34 0.30 0.23 0.19 0.14 0.10 0.09 0.10 0.09 0.08 0.07 0.05
0.03 0.03 0.04 0.05 0.04 0.04 0.05 0.07 0.10 0.15 0.18 0.21 0.24 0.26 0.23 0.23 0.21 0.20 0.22 0.27 0.33 0.36 0.37 0.36 0.36 0.37 0.31 0.31 0.36 0.36 0.35 0.34 0.33 0.30 0.23 0.17 0.13 0.13 0.14 0.14 0.12 0.11 0.09
0.04 0.06 0.07 0.07 0.05 0.04 0.04 0.06 0.06 0.10 0.12 0.16 0.21 0.24 0.24 0.22 0.20 0.19 0.17 0.18 0.21 0.24 0.26 0.27 0.25 0.28 0.27 0.22 0.26 0.30 0.31 0.30 0.29 0.29 0.25 0.21 0.17 0.15 0.15 0.15 0.15 0.15 0.14
0.05 0.06 0.06 0.04 0.03 0.03 0.03 0.04 0.05 0.06 0.10 0.15 0.21 0.23 0.24 0.24 0.21 0.18 0.16 0.16 0.17 0.18 0.20 0.21 0.20 0.19 0.21 0.19 0.19 0.21 0.23 0.26 0.27 0.27 0.25 0.21 0.17 0.15 0.13 0.13 0.15 0.16 0.17
0.05 0.04 0.03 0.03 0.03 0.03 0.02 0.03 0.04 0.05 0.06 0.09 0.12 0.15 0.17 0.20 0.18 0.15 0.15 0.16 0.14 0.15 0.17 0.18 0.19 0.20 0.20 0.20 0.19 0.17 0.16 0.17 0.21 0.22 0.21 0.20 0.19 0.17 0.15 0.16 0.18 0.18 0.16
0.05 0.04 0.02 0.02 0.02 0.02 0.02 0.03 0.02 0.03 0.04 0.05 0.06 0.08 0.10 0.14 0.17 0.17 0.15 0.15 0.13 0.14 0.14 0.14 0.13 0.11 0.12 0.15 0.17 0.17 0.16 0.15 0.15 0.17 0.17 0.17 0.17 0.16 0.15 0.14 0.13 0.14 0.14
0.03 0.02 0.01 0.01 0.01 0.02 0.02 0.02 0.02 0.03 0.03 0.04 0.05 0.05 0.05 0.07 0.10 0.15 0.16 0.13 0.12 0.11 0.09 0.08 0.08 0.07 0.07 0.07 0.07 0.10 0.12 0.14 0.14 0.15 0.15 0.14 0.12 0.10 0.08 0.07 0.07 0.07 0.08
0.01 0.01 0.00 0.01 0.01 0.01 0.01 0.01 0.02 0.03 0.03 0.04 0.05 0.05 0.05 0.05 0.05 0.07 0.11 0.11 0.08 0.07 0.06 0.04 0.03 0.03 0.04 0.04 0.04 0.05 0.07 0.08 0.09 0.10 0.09 0.08 0.07 0.05 0.05 0.05 0.05 0.05 0.04
0.00 0.00 0.00 0.00 0.00 0.01 0.01 0.01 0.02 0.02 0.03 0.04 0.04 0.05 0.06 0.06 0.05 0.05 0.06 0.06 0.05 0.03 0.02 0.02 0.02 0.02 0.02 0.02 0.02 0.02 0.03 0.03 0.03 0.03 0.03 0.03 0.03 0.03 0.03 0.02 0.02 0.02 0.02
0.00 0.00 0.00 0.00 0.01 0.01 0.01 0.02 0.02 0.02 0.02 0.04 0.06 0.08 0.07 0.06 0.05 0.05 0.04 0.04 0.04 0.03 0.01 0.01 0.01 0.01 0.01 0.01 0.01 0.01 0.02 0.03 0.03 0.02 0.02 0.02 0.01 0.01 0.01 0.01 0.01 0.00 0.00
0.00 0.00 0.00 0.00 0.00 0.01 0.02 0.02 0.02 0.02 0.03 0.04 0.06 0.08 0.09 0.08 0.07 0.06 0.05 0.03 0.03 0.03 0.02 0.01 0.01 0.01 0.00 0.00 0.00 0.00 0.01 0.01 0.01 0.01 0.01 0.01 0.00 0.00 0.00 0.00 0.00 0.00 0.00
0.01 0.01 0.01 0.00 0.00 0.01 0.02 0.03 0.02 0.02 0.02 0.03 0.05 0.07 0.08 0.08 0.08 0.06 0.06 0.04 0.02 0.02 0.02 0.02 0.00 0.00 0.00 0.00 0.00 0.00 0.00 0.00 0.00 0.00 0.00 0.00 0.00 0.00 0.00 0.00 0.00 0.00 0.00
0.02 0.01 0.01 0.01 0.01 0.01 0.02 0.02 0.02 0.02 0.02 0.03 0.05 0.06 0.06 0.06 0.05 0.03 0.02 0.02 0.02 0.02 0.02 0.01 0.01 0.00 0.00 0.00 0.00 0.00 0.00 0.00 0.00 0.00 0.00 0.00 0.00 0.00 0.00 0.00 0.00 0.00 0.00
0.01 0.01 0.01 0.01 0.01 0.01 0.02 0.02 0.02 0.02 0.02 0.04 0.06 0.06 0.05 0.05 0.05 0.03 0.02 0.02 0.02 0.01 0.01 0.01 0.01 0.01 0.00 0.00 0.00 0.00 0.00 0.00 0.00 0.00 0.00 0.00 0.00 0.00 0.00 0.00 0.00 0.00 0.00
0.01 0.01 0.01 0.01 0.01 0.01 0.02 0.02 0.02 0.02 0.03 0.04 0.05 0.06 0.05 0.04 0.04 0.04 0.02 0.02 0.02 0.01 0.01 0.01 0.01 0.00 0.00 0.00 0.00 0.00 0.00 0.00 0.00 0.00 0.00 0.00 0.00 0.00 0.00 0.00 0.00 0.00 0.00
0.02 0.01 0.01 0.01 0.01 0.01 0.01 0.02 0.02 0.03 0.03 0.04 0.04 0.05 0.04 0.03 0.03 0.02 0.02 0.01 0.01 0.01 0.01 0.01 0.00 0.00 0.00 0.00 0.00 0.00 0.00 0.00 0.00 0.00 0.00 0.00 0.00 0.00 0.00 0.00 0.00 0.00 0.00
0.02 0.02 0.02 0.01 0.01 0.01 0.01 0.01 0.02 0.02 0.02 0.03 0.03 0.03 0.03 0.02 0.02 0.02 0.01 0.01 0.01 0.01 0.01 0.01 0.01 0.00 0.00 0.00 0.00 0.00 0.00 0.00 0.00 0.00 0.00 0.00 0.00 0.00 0.00 0.00 0.00 0.00 0.00
0.02 0.02 0.02 0.02 0.02 0.01 0.01 0.02 0.03 0.03 0.03 0.03 0.03 0.02 0.02 0.01 0.01 0.01 0.01 0.01 0.01 0.01 0.01 0.01 0.01 0.01 0.00 0.00 0.00 0.00 0.00 0.00 0.00 0.00 0.00 0.00 0.00 0.00 0.00 0.00 0.00 0.00 0.00
0.02 0.03 0.04 0.04 0.03 0.03 0.03 0.04 0.03 0.03 0.02 0.02 0.03 0.02 0.01 0.01 0.01 0.01 0.01 0.00 0.00 0.01 0.01 0.00 0.00 0.00 0.00 0.00 0.00 0.00 0.00 0.00 0.00 0.00 0.00 0.00 0.00 0.00 0.00 0.00 0.00 0.00 0.00
0.03 0.04 0.05 0.05 0.05 0.05 0.04 0.03 0.03 0.03 0.02 0.02 0.03 0.02 0.01 0.01 0.01 0.01 0.01 0.01 0.01 0.01 0.00 0.00 0.00 0.00 0.00 0.00 0.00 0.00 0.00 0.00 0.00 0.00 0.00 0.00 0.00 0.00 0.00 0.00 0.00 0.00 0.00
0.04 0.05 0.05 0.04 0.05 0.04 0.03 0.02 0.02 0.02 0.02 0.02 0.02 0.01 0.01 0.01 0.00 0.00 0.01 0.01 0.01 0.00 0.00 0.00 0.00 0.00 0.00 0.00 0.00 0.00 0.00 0.00 0.00 0.00 0.00 0.00 0.00 0.00 0.00 0.00 0.00 0.00 0.00
0.03 0.04 0.04 0.04 0.03 0.02 0.02 0.01 0.01 0.02 0.02 0.02 0.01 0.01 0.00 0.00 0.00 0.00 0.00 0.01 0.01 0.01 0.00 0.00 0.00 0.00 0.00 0.00 0.00 0.00 0.00 0.00 0.00 0.00 0.00 0.00 0.00 0.00 0.00 0.00 0.00 0.00 0.00
0.02 0.02 0.03 0.03 0.03 0.02 0.01 0.01 0.02 0.02 0.01 0.01 0.01 0.00 0.00 0.00 0.00 0.00 0.00 0.00 0.01 0.00 0.00 0.00 0.00 0.00 0.00 0.00 0.00 0.00 0.00 0.00 0.00 0.00 0.00 0.00 0.00 0.00 0.00 0.00 0.00 0.00 0.00
0.02 0.02 0.03 0.03 0.02 0.02 0.02 0.01 0.02 0.01 0.01 0.01 0.00 0.00 0.00 0.00 0.00 0.00 0.00 0.00 0.00 0.00 0.00 0.00 0.00 0.00 0.00 0.00 0.00 0.00 0.00 0.00 0.00 0.00 0.00 0.00 0.00 0.00 0.00 0.00 0.00 0.00 0.00

GEFSMW_prec_meanprec_108.txt.gz
QPF
0.01 0.01 0.01 0.02 0.03 0.03 0.03 0.03 0.04 0.04 0.04 0.04 0.05 0.07 0.10 0.15 0.18 0.19 0.20 0.20 0.17 0.14 0.14 0.17 0.15 0.13 0.16 0.20 0.21 0.21 0.21 0.19 0.18 0.16 0.14 0.12 0.12 0.11 0.10 0.08 0.08 0.08 0.08
0.01 0.01 0.01 0.01 0.02 0.03 0.03 0.03 0.04 0.05 0.05 0.05 0.06 0.07 0.09 0.12 0.15 0.15 0.13 0.13 0.12 0.12 0.12 0.14 0.18 0.17 0.15 0.18 0.21 0.23 0.23 0.21 0.20 0.19 0.18 0.17 0.16 0.12 0.10 0.09 0.09 0.08 0.07
0.01 0.01 0.01 0.02 0.03 0.04 0.04 0.04 0.04 0.06 0.06 0.05 0.05 0.07 0.07 0.07 0.09 0.08 0.09 0.10 0.10 0.10 0.08 0.08 0.11 0.17 0.18 0.17 0.19 0.21 0.23 0.23 0.22 0.22 0.24 0.22 0.18 0.14 0.13 0.13 0.12 0.11 0.09
0.01 0.00 0.01 0.01 0.03 0.06 0.07 0.08 0.07 0.06 0.05 0.04 0.05 0.07 0.07 0.08 0.08 0.07 0.06 0.06 0.08 0.10 0.10 0.10 0.10 0.15 0.20 0.21 0.22 0.23 0.21 0.22 0.23 0.26 0.24 0.24 0.20 0.17 0.18 0.20 0.19 0.16 0.13
0.00 0.00 0.01 0.01 0.02 0.03 0.04 0.05 0.06 0.05 0.04 0.03 0.04 0.06 0.08 0.10 0.10 0.10 0.07 0.05 0.05 0.07 0.09 0.12 0.16 0.19 0.22 0.24 0.26 0.31 0.31 0.28 0.28 0.31 0.31 0.28 0.24 0.20 0.19 0.23 0.24 0.22 0.18
0.00 0.00 0.00 0.00 0.01 0.02 0.03 0.03 0.03 0.03 0.03 0.03 0.03 0.04 0.08 0.12 0.11 0.10 0.08 0.06 0.04 0.05 0.06 0.08 0.13 0.18 0.20 0.20 0.24 0.30 0.33 0.35 0.34 0.37 0.36 0.32 0.28 0.25 0.22 0.21 0.24 0.23 0.20
0.00 0.00 0.00 0.00 0.00 0.02 0.02 0.02 0.02 0.01 0.01 0.01 0.01 0.02 0.04 0.06 0.07 0.09 0.09 0.07 0.05 0.05 0.05 0.07 0.09 0.12 0.15 0.18 0.20 0.24 0.29 0.30 0.31 0.34 0.35 0.33 0.30 0.29 0.29 0.31 0.31 0.27 0.23
0.01 0.01 0.01 0.00 0.00 0.01 0.01 0.01 0.01 0.01 0.01 0.01 0.01 0.02 0.03 0.03 0.05 0.07 0.07 0.06 0.05 0.05 0.05 0.06 0.08 0.08 0.11 0.12 0.12 0.14 0.18 0.22 0.23 0.27 0.32 0.36 0.35 0.32 0.31 0.32 0.33 0.32 0.29
0.00 0.00 0.00 0.00 0.00 0.00 0.01 0.01 0.01 0.01 0.01 0.01 0.01 0.02 0.03 0.03 0.04 0.05 0.06 0.06 0.06 0.06 0.05 0.05 0.07 0.07 0.07 0.07 0.07 0.09 0.13 0.18 0.21 0.21 0.25 0.31 0.32 0.30 0.27 0.26 0.25 0.24 0.24
0.00 0.00 0.00 0.01 0.01 0.01 0.01 0.01 0.01 0.01 0.01 0.02 0.01 0.01 0.02 0.02 0.03 0.04 0.06 0.07 0.07 0.06 0.06 0.05 0.05 0.05 0.06 0.07 0.06 0.06 0.07 0.10 0.14 0.16 0.19 0.24 0.28 0.30 0.26 0.24 0.22 0.19 0.17
0.01 0.00 0.00 0.00 0.01 0.01 0.01 0.01 0.01 0.01 0.01 0.02 0.01 0.01 0.02 0.02 0.03 0.03 0.05 0.07 0.07 0.06 0.06 0.05 0.04 0.05 0.05 0.05 0.06 0.07 0.07 0.07 0.09 0.11 0.13 0.17 0.20 0.24 0.23 0.19 0.16 0.14 0.13
0.01 0.01 0.01 0.00 0.00 0.00 0.00 0.01 0.01 0.01 0.01 0.01 0.02 0.02 0.01 0.02 0.03 0.04 0.03 0.04 0.04 0.05 0.05 0.04 0.03 0.04 0.03 0.03 0.03 0.05 0.05 0.06 0.06 0.06 0.08 0.09 0.11 0.12 0.13 0.13 0.12 0.11 0.10
0.01 0.01 0.02 0.01 0.00 0.00 0.00 0.01 0.01 0.01 0.01 0.01 0.01 0.02 0.02 0.02 0.04 0.04 0.03 0.03 0.04 0.04 0.04 0.03 0.03 0.03 0.02 0.02 0.02 0.02 0.02 0.03 0.04 0.04 0.04 0.05 0.05 0.05 0.05 0.06 0.06 0.05 0.05
0.01 0.01 0.01 0.01 0.00 0.00 0.01 0.01 0.01 0.01 0.01 0.01 0.01 0.02 0.02 0.02 0.03 0.04 0.05 0.06 0.05 0.03 0.02 0.03 0.02 0.02 0.02 0.02 0.02 0.02 0.01 0.01 0.01 0.01 0.01 0.02 0.02 0.02 0.02 0.02 0.02 0.02 0.02
0.02 0.02 0.02 0.01 0.01 0.01 0.01 0.01 0.01 0.01 0.01 0.01 0.02 0.02 0.03 0.02 0.03 0.04 0.05 0.05 0.05 0.04 0.02 0.02 0.02 0.01 0.01 0.01 0.01 0.00 0.00 0.01 0.00 0.00 0.00 0.00 0.00 0.00 0.01 0.01 0.01 0.01 0.01
0.03 0.03 0.03 0.02 0.01 0.01 0.01 0.01 0.01 0.01 0.01 0.01 0.01 0.02 0.02 0.02 0.03 0.03 0.03 0.04 0.04 0.04 0.04 0.02 0.01 0.01 0.00 0.00 0.00 0.00 0.00 0.00 0.00 0.00 0.00 0.00 0.00 0.00 0.00 0.00 0.00 0.00 0.01
0.03 0.03 0.02 0.02 0.01 0.01 0.01 0.01 0.01 0.01 0.01 0.01 0.01 0.02 0.02 0.02 0.02 0.03 0.03 0.03 0.03 0.03 0.03 0.02 0.01 0.01 0.00 0.00 0.00 0.00 0.00 0.00 0.00 0.00 0.00 0.00 0.00 0.00 0.00 0.00 0.00 0.00 0.00
0.04 0.03 0.02 0.01 0.01 0.01 0.01 0.01 0.02 0.02 0.02 0.01 0.02 0.02 0.02 0.02 0.03 0.02 0.02 0.03 0.02 0.02 0.02 0.01 0.01 0.01 0.00 0.00 0.00 0.00 0.00 0.00 0.00 0.00 0.00 0.00 0.00 0.00 0.00 0.00 0.00 0.00 0.00
0.03 0.03 0.03 0.02 0.01 0.01 0.01 0.01 0.02 0.02 0.02 0.02 0.03 0.03 0.02 0.02 0.03 0.02 0.02 0.02 0.02 0.02 0.02 0.02 0.01 0.01 0.00 0.00 0.00 0.00 0.00 0.00 0.00 0.00 0.00 0.00 0.00 0.00 0.00 0.00 0.00 0.00 0.00
0.02 0.03 0.03 0.02 0.02 0.01 0.02 0.02 0.02 0.02 0.02 0.02 0.02 0.03 0.03 0.03 0.02 0.02 0.02 0.02 0.02 0.02 0.02 0.02 0.01 0.01 0.00 0.00 0.00 0.00 0.01 0.01 0.00 0.00 0.00 0.00 0.00 0.00 0.00 0.01 0.01 0.01 0.00
0.02 0.02 0.02 0.03 0.03 0.02 0.02 0.02 0.03 0.03 0.03 0.03 0.03 0.03 0.03 0.02 0.02 0.02 0.02 0.02 0.02 0.02 0.02 0.02 0.01 0.00 0.00 0.00 0.00 0.00 0.00 0.00 0.00 0.00 0.00 0.00 0.00 0.00 0.00 0.00 0.01 0.00 0.00
0.02 0.02 0.03 0.04 0.04 0.03 0.03 0.04 0.04 0.04 0.04 0.03 0.03 0.04 0.03 0.01 0.01 0.02 0.02 0.02 0.02 0.02 0.02 0.02 0.01 0.01 0.00 0.00 0.00 0.00 0.00 0.00 0.00 0.00 0.00 0.00 0.00 0.00 0.00 0.00 0.00 0.00 0.00
0.02 0.03 0.04 0.04 0.04 0.04 0.05 0.05 0.04 0.04 0.04 0.04 0.04 0.03 0.03 0.02 0.02 0.03 0.03 0.02 0.02 0.02 0.02 0.02 0.01 0.01 0.00 0.00 0.00 0.00 0.00 0.00 0.00 0.00 0.00 0.00 0.00 0.00 0.00 0.00 0.00 0.00 0.00
0.02 0.03 0.04 0.04 0.04 0.05 0.06 0.05 0.04 0.03 0.03 0.03 0.03 0.03 0.03 0.02 0.02 0.02 0.02 0.02 0.02 0.01 0.01 0.00 0.00 0.00 0.00 0.00 0.00 0.00 0.00 0.00 0.00 0.00 0.00 0.00 0.00 0.00 0.00 0.00 0.00 0.00 0.00
0.02 0.03 0.04 0.03 0.03 0.04 0.05 0.03 0.03 0.03 0.03 0.02 0.02 0.02 0.02 0.01 0.01 0.01 0.01 0.02 0.01 0.01 0.01 0.01 0.00 0.00 0.00 0.00 0.00 0.00 0.00 0.00 0.00 0.00 0.00 0.00 0.00 0.00 0.00 0.00 0.00 0.00 0.00
0.02 0.03 0.04 0.03 0.03 0.04 0.04 0.03 0.02 0.03 0.02 0.02 0.02 0.01 0.01 0.01 0.01 0.00 0.00 0.00 0.00 0.00 0.00 0.00 0.00 0.00 0.00 0.00 0.00 0.00 0.00 0.00 0.00 0.00 0.00 0.00 0.00 0.00 0.00 0.00 0.00 0.00 0.00

GEFSMW_prec_meanprec_114.txt.gz
QPF
0.01 0.01 0.01 0.01 0.01 0.02 0.03 0.03 0.03 0.03 0.04 0.04 0.05 0.05 0.05 0.04 0.05 0.05 0.07 0.08 0.09 0.10 0.10 0.11 0.15 0.17 0.20 0.19 0.22 0.24 0.27 0.28 0.27 0.25 0.23 0.20 0.17 0.15 0.15 0.16 0.16 0.16 0.16
0.00 0.00 0.01 0.01 0.01 0.01 0.02 0.03 0.03 0.04 0.04 0.05 0.06 0.05 0.04 0.04 0.04 0.05 0.07 0.07 0.07 0.08 0.09 0.11 0.14 0.16 0.18 0.19 0.22 0.23 0.23 0.23 0.25 0.23 0.21 0.19 0.16 0.12 0.11 0.13 0.12 0.11 0.13
0.00 0.00 0.00 0.00 0.00 0.00 0.01 0.01 0.02 0.02 0.03 0.04 0.05 0.05 0.05 0.05 0.04 0.04 0.05 0.04 0.04 0.05 0.06 0.08 0.11 0.14 0.21 0.23 0.25 0.24 0.22 0.21 0.25 0.26 0.23 0.21 0.18 0.14 0.12 0.11 0.09 0.09 0.10
0.00 0.00 0.00 0.00 0.00 0.00 0.00 0.01 0.01 0.01 0.02 0.04 0.05 0.05 0.05 0.05 0.04 0.04 0.04 0.04 0.03 0.03 0.04 0.05 0.07 0.09 0.15 0.21 0.27 0.29 0.25 0.21 0.19 0.22 0.22 0.20 0.19 0.17 0.16 0.16 0.16 0.14 0.15
0.00 0.00 0.00 0.00 0.00 0.00 0.00 0.01 0.01 0.01 0.02 0.03 0.04 0.04 0.05 0.05 0.05 0.05 0.05 0.05 0.04 0.04 0.04 0.05 0.05 0.06 0.08 0.11 0.17 0.27 0.31 0.29 0.23 0.21 0.22 0.23 0.23 0.21 0.18 0.20 0.22 0.22 0.21
0.00 0.00 0.00 0.00 0.00 0.01 0.01 0.01 0.01 0.01 0.01 0.02 0.03 0.03 0.04 0.04 0.04 0.04 0.05 0.05 0.05 0.05 0.03 0.05 0.07 0.07 0.07 0.07 0.10 0.15 0.21 0.27 0.28 0.28 0.27 0.28 0.27 0.25 0.24 0.23 0.24 0.25 0.25
0.00 0.00 0.00 0.00 0.00 0.00 0.01 0.01 0.01 0.01 0.01 0.01 0.01 0.01 0.02 0.04 0.04 0.05 0.06 0.07 0.06 0.06 0.04 0.03 0.05 0.07 0.08 0.10 0.12 0.14 0.16 0.23 0.27 0.28 0.29 0.31 0.34 0.33 0.33 0.33 0.30 0.29 0.29
0.00 0.00 0.00 0.00 0.00 0.00 0.00 0.01 0.01 0.01 0.01 0.01 0.01 0.01 0.02 0.02 0.03 0.03 0.03 0.04 0.05 0.05 0.05 0.04 0.03 0.03 0.05 0.07 0.10 0.14 0.16 0.19 0.24 0.27 0.30 0.32 0.35 0.37 0.37 0.35 0.32 0.33 0.33
0.00 0.00 0.00 0.00 0.00 0.00 0.00 0.00 0.01 0.00 0.01 0.01 0.01 0.01 0.02 0.01 0.02 0.02 0.02 0.02 0.02 0.02 0.03 0.03 0.03 0.03 0.04 0.05 0.06 0.08 0.10 0.13 0.15 0.20 0.23 0.27 0.33 0.37 0.39 0.38 0.35 0.33 0.33
0.00 0.00 0.00 0.00 0.00 0.00 0.00 0.00 0.01 0.01 0.00 0.01 0.01 0.01 0.01 0.01 0.01 0.01 0.02 0.02 0.03 0.03 0.02 0.02 0.03 0.03 0.03 0.04 0.05 0.07 0.07 0.08 0.10 0.13 0.16 0.18 0.21 0.25 0.31 0.34 0.33 0.30 0.26
0.00 0.00 0.00 0.00 0.00 0.00 0.00 0.01 0.01 0.01 0.01 0.01 0.02 0.02 0.01 0.01 0.01 0.01 0.01 0.02 0.03 0.03 0.02 0.02 0.02 0.03 0.03 0.03 0.04 0.06 0.08 0.08 0.09 0.10 0.12 0.13 0.13 0.15 0.20 0.22 0.23 0.23 0.19
0.00 0.00 0.00 0.00 0.00 0.00 0.00 0.00 0.01 0.01 0.01 0.01 0.02 0.04 0.03 0.01 0.01 0.01 0.01 0.01 0.02 0.03 0.03 0.03 0.03 0.04 0.05 0.05 0.04 0.05 0.07 0.08 0.09 0.09 0.10 0.11 0.12 0.12 0.14 0.15 0.18 0.19 0.18
0.00 0.00 0.01 0.01 0.01 0.01 0.01 0.01 0.01 0.01 0.01 0.01 0.01 0.01 0.01 0.01 0.01 0.01 0.02 0.01 0.02 0.02 0.03 0.03 0.03 0.04 0.04 0.05 0.04 0.04 0.05 0.06 0.07 0.07 0.08 0.08 0.08 0.09 0.09 0.10 0.12 0.13 0.15
0.01 0.01 0.01 0.01 0.00 0.01 0.01 0.01 0.01 0.00 0.00 0.01 0.01 0.01 0.01 0.01 0.01 0.01 0.01 0.01 0.02 0.02 0.02 0.02 0.02 0.02 0.03 0.04 0.04 0.04 0.04 0.05 0.05 0.05 0.05 0.04 0.05 0.05 0.06 0.07 0.08 0.09 0.10
0.01 0.01 0.01 0.01 0.01 0.00 0.01 0.01 0.01 0.01 0.00 0.00 0.00 0.01 0.01 0.01 0.01 0.01 0.01 0.01 0.01 0.01 0.02 0.01 0.02 0.01 0.02 0.03 0.03 0.04 0.04 0.04 0.04 0.03 0.03 0.02 0.01 0.01 0.01 0.02 0.03 0.04 0.06
0.01 0.01 0.01 0.01 0.01 0.01 0.01 0.01 0.01 0.01 0.00 0.00 0.01 0.01 0.01 0.01 0.01 0.01 0.01 0.01 0.02 0.02 0.02 0.01 0.01 0.01 0.01 0.02 0.02 0.02 0.03 0.03 0.02 0.01 0.01 0.00 0.00 0.00 0.00 0.00 0.01 0.02 0.03
0.02 0.02 0.02 0.01 0.01 0.01 0.01 0.01 0.01 0.01 0.01 0.01 0.01 0.01 0.01 0.02 0.02 0.02 0.02 0.02 0.03 0.03 0.04 0.03 0.02 0.01 0.01 0.00 0.00 0.01 0.02 0.02 0.02 0.02 0.01 0.00 0.00 0.00 0.00 0.00 0.00 0.00 0.01
0.02 0.03 0.03 0.02 0.02 0.01 0.02 0.01 0.01 0.01 0.01 0.01 0.01 0.01 0.02 0.03 0.03 0.03 0.03 0.03 0.04 0.04 0.04 0.04 0.02 0.01 0.00 0.00 0.00 0.00 0.02 0.02 0.02 0.02 0.02 0.01 0.01 0.00 0.01 0.01 0.01 0.01 0.00
0.02 0.02 0.02 0.02 0.02 0.02 0.02 0.02 0.01 0.01 0.01 0.02 0.02 0.03 0.03 0.04 0.04 0.03 0.04 0.04 0.05 0.05 0.05 0.04 0.02 0.01 0.00 0.00 0.00 0.00 0.02 0.02 0.01 0.00 0.01 0.01 0.00 0.00 0.00 0.03 0.03 0.01 0.01
0.02 0.02 0.03 0.03 0.03 0.03 0.03 0.03 0.03 0.03 0.02 0.02 0.02 0.03 0.03 0.03 0.04 0.04 0.04 0.04 0.05 0.04 0.03 0.03 0.03 0.01 0.00 0.00 0.00 0.00 0.01 0.02 0.01 0.00 0.00 0.00 0.00 0.00 0.00 0.02 0.03 0.02 0.02
0.01 0.02 0.03 0.04 0.04 0.04 0.05 0.06 0.05 0.04 0.03 0.01 0.02 0.02 0.04 0.04 0.03 0.04 0.04 0.04 0.04 0.04 0.03 0.03 0.02 0.01 0.00 0.00 0.00 0.00 0.01 0.01 0.01 0.00 0.00 0.00 0.00 0.00 0.00 0.01 0.01 0.01 0.01
0.01 0.02 0.03 0.04 0.05 0.05 0.07 0.08 0.07 0.04 0.03 0.03 0.03 0.03 0.04 0.03 0.03 0.04 0.04 0.04 0.04 0.04 0.03 0.03 0.02 0.01 0.00 0.00 0.00 0.00 0.00 0.00 0.01 0.00 0.00 0.00 0.00 0.00 0.00 0.00 0.00 0.00 0.00
0.01 0.02 0.03 0.04 0.05 0.06 0.08 0.08 0.06 0.03 0.03 0.03 0.04 0.04 0.04 0.04 0.05 0.05 0.05 0.04 0.04 0.04 0.03 0.03 0.02 0.01 0.00 0.00 0.00 0.00 0.00 0.00 0.00 0.00 0.00 0.00 0.00 0.00 0.00 0.00 0.00 0.00 0.00
0.02 0.03 0.04 0.04 0.05 0.06 0.06 0.06 0.05 0.04 0.04 0.04 0.04 0.04 0.04 0.05 0.06 0.05 0.05 0.05 0.04 0.04 0.03 0.02 0.01 0.01 0.00 0.00 0.00 0.00 0.00 0.00 0.00 0.00 0.00 0.00 0.00 0.00 0.00 0.00 0.00 0.00 0.00
0.03 0.04 0.05 0.05 0.04 0.04 0.04 0.03 0.04 0.06 0.06 0.05 0.04 0.04 0.04 0.04 0.04 0.03 0.02 0.03 0.02 0.01 0.02 0.01 0.01 0.00 0.00 0.00 0.00 0.00 0.00 0.00 0.00 0.00 0.00 0.00 0.00 0.00 0.00 0.00 0.00 0.00 0.00
0.04 0.04 0.05 0.04 0.03 0.03 0.03 0.03 0.03 0.06 0.07 0.05 0.04 0.03 0.02 0.03 0.02 0.01 0.00 0.00 0.00 0.00 0.00 0.00 0.00 0.00 0.00 0.00 0.00 0.00 0.00 0.00 0.00 0.00 0.00 0.00 0.00 0.00 0.00 0.00 0.00 0.00 0.00

GEFSMW_prec_meanprec_120.txt.gz
QPF
0.04 0.02 0.04 0.10 0.10 0.11 0.13 0.12 0.13 0.09 0.08 0.09 0.08 0.08 0.06 0.06 0.07 0.07 0.07 0.07 0.04 0.04 0.03 0.04 0.04 0.05 0.06 0.07 0.08 0.08 0.10 0.11 0.13 0.14 0.13 0.12 0.11 0.12 0.13 0.19 0.23 0.21 0.18
0.02 0.01 0.02 0.03 0.04 0.05 0.06 0.06 0.05 0.05 0.05 0.06 0.05 0.05 0.05 0.05 0.05 0.05 0.06 0.05 0.04 0.03 0.03 0.02 0.03 0.05 0.05 0.06 0.07 0.08 0.09 0.10 0.13 0.15 0.17 0.16 0.16 0.14 0.12 0.12 0.15 0.18 0.21
0.02 0.01 0.01 0.01 0.02 0.02 0.03 0.02 0.03 0.03 0.03 0.03 0.04 0.04 0.05 0.05 0.04 0.04 0.04 0.04 0.04 0.03 0.02 0.02 0.03 0.05 0.08 0.08 0.08 0.09 0.11 0.11 0.13 0.16 0.19 0.17 0.15 0.15 0.15 0.13 0.13 0.15 0.18
0.02 0.02 0.01 0.01 0.01 0.01 0.01 0.01 0.01 0.01 0.01 0.01 0.02 0.03 0.04 0.03 0.04 0.05 0.04 0.04 0.05 0.04 0.03 0.02 0.02 0.02 0.03 0.04 0.06 0.08 0.10 0.11 0.12 0.16 0.17 0.15 0.12 0.14 0.15 0.16 0.15 0.18 0.21
0.03 0.02 0.01 0.01 0.00 0.01 0.01 0.01 0.01 0.01 0.01 0.01 0.01 0.01 0.02 0.02 0.04 0.04 0.05 0.05 0.04 0.03 0.02 0.02 0.01 0.02 0.03 0.03 0.03 0.04 0.07 0.11 0.13 0.12 0.13 0.13 0.12 0.12 0.12 0.14 0.16 0.18 0.21
0.04 0.01 0.00 0.00 0.00 0.00 0.00 0.00 0.00 0.00 0.00 0.00 0.00 0.00 0.01 0.02 0.02 0.03 0.04 0.03 0.03 0.02 0.01 0.01 0.01 0.01 0.02 0.03 0.03 0.02 0.03 0.07 0.11 0.13 0.15 0.16 0.16 0.17 0.18 0.17 0.17 0.18 0.19
0.03 0.01 0.00 0.00 0.00 0.00 0.00 0.00 0.00 0.00 0.00 0.00 0.00 0.00 0.00 0.01 0.01 0.02 0.02 0.02 0.02 0.02 0.02 0.02 0.02 0.03 0.03 0.02 0.02 0.02 0.02 0.04 0.07 0.09 0.12 0.16 0.18 0.19 0.20 0.22 0.22 0.21 0.21
0.01 0.00 0.00 0.00 0.00 0.00 0.00 0.00 0.00 0.00 0.00 0.00 0.00 0.00 0.00 0.00 0.01 0.01 0.01 0.01 0.01 0.01 0.02 0.02 0.01 0.02 0.03 0.03 0.02 0.02 0.02 0.03 0.04 0.06 0.09 0.11 0.14 0.15 0.16 0.18 0.20 0.24 0.27
0.01 0.01 0.00 0.00 0.00 0.00 0.00 0.00 0.00 0.00 0.00 0.00 0.00 0.00 0.00 0.00 0.00 0.01 0.00 0.00 0.00 0.00 0.00 0.01 0.01 0.01 0.01 0.03 0.03 0.03 0.03 0.03 0.05 0.06 0.08 0.09 0.10 0.11 0.12 0.15 0.16 0.18 0.22
0.01 0.00 0.00 0.00 0.00 0.00 0.00 0.00 0.00 0.00 0.00 0.00 0.00 0.00 0.00 0.01 0.01 0.01 0.00 0.00 0.00 0.00 0.00 0.00 0.00 0.00 0.01 0.01 0.02 0.03 0.03 0.03 0.04 0.05 0.05 0.07 0.08 0.09 0.10 0.13 0.15 0.16 0.17
0.01 0.00 0.00 0.00 0.00 0.00 0.00 0.00 0.00 0.00 0.00 0.00 0.00 0.00 0.02 0.02 0.02 0.02 0.01 0.00 0.00 0.00 0.00 0.00 0.00 0.00 0.01 0.01 0.01 0.02 0.03 0.04 0.04 0.05 0.04 0.04 0.05 0.06 0.06 0.07 0.10 0.12 0.12
0.01 0.00 0.00 0.00 0.00 0.00 0.00 0.00 0.00 0.00 0.00 0.00 0.00 0.01 0.02 0.02 0.02 0.02 0.01 0.00 0.00 0.00 0.00 0.00 0.00 0.00 0.00 0.00 0.01 0.02 0.02 0.03 0.03 0.04 0.04 0.04 0.05 0.06 0.07 0.07 0.08 0.09 0.09
0.01 0.01 0.00 0.00 0.00 0.00 0.00 0.00 0.00 0.00 0.00 0.00 0.00 0.00 0.01 0.00 0.00 0.01 0.01 0.01 0.01 0.01 0.01 0.01 0.01 0.01 0.01 0.01 0.02 0.03 0.03 0.04 0.05 0.05 0.05 0.06 0.06 0.06 0.05 0.05 0.05 0.06 0.07
0.02 0.01 0.01 0.00 0.00 0.00 0.00 0.00 0.00 0.00 0.00 0.00 0.00 0.00 0.00 0.00 0.00 0.00 0.00 0.00 0.00 0.01 0.01 0.01 0.01 0.01 0.01 0.01 0.02 0.03 0.04 0.05 0.05 0.04 0.04 0.05 0.05 0.05 0.04 0.04 0.04 0.04 0.05
0.02 0.01 0.01 0.01 0.01 0.00 0.00 0.00 0.00 0.00 0.00 0.00 0.00 0.00 0.00 0.00 0.00 0.00 0.00 0.00 0.00 0.00 0.00 0.01 0.01 0.01 0.01 0.01 0.01 0.02 0.03 0.04 0.03 0.03 0.03 0.03 0.03 0.03 0.02 0.02 0.02 0.02 0.02
0.02 0.01 0.01 0.01 0.00 0.00 0.00 0.00 0.00 0.00 0.00 0.00 0.00 0.00 0.00 0.00 0.00 0.00 0.00 0.00 0.00 0.00 0.00 0.00 0.00 0.01 0.01 0.01 0.02 0.02 0.03 0.03 0.02 0.02 0.02 0.01 0.01 0.01 0.00 0.01 0.01 0.01 0.01
0.01 0.01 0.02 0.02 0.01 0.00 0.00 0.00 0.00 0.00 0.00 0.00 0.00 0.01 0.01 0.01 0.01 0.01 0.00 0.00 0.00 0.00 0.01 0.00 0.00 0.00 0.01 0.01 0.01 0.02 0.02 0.02 0.01 0.01 0.01 0.00 0.00 0.00 0.00 0.00 0.00 0.00 0.01
0.03 0.02 0.02 0.02 0.01 0.01 0.00 0.00 0.00 0.00 0.00 0.00 0.01 0.01 0.01 0.01 0.01 0.00 0.00 0.00 0.00 0.00 0.01 0.01 0.00 0.00 0.01 0.01 0.01 0.01 0.02 0.01 0.00 0.00 0.00 0.00 0.00 0.01 0.00 0.00 0.00 0.00 0.00
0.04 0.02 0.02 0.02 0.02 0.01 0.01 0.00 0.00 0.00 0.00 0.01 0.01 0.01 0.00 0.00 0.01 0.00 0.00 0.00 0.00 0.01 0.01 0.01 0.01 0.00 0.00 0.00 0.00 0.00 0.01 0.00 0.00 0.00 0.00 0.00 0.00 0.00 0.00 0.00 0.00 0.00 0.00
0.04 0.02 0.01 0.02 0.02 0.01 0.01 0.01 0.01 0.01 0.01 0.00 0.00 0.01 0.01 0.00 0.01 0.01 0.01 0.01 0.01 0.01 0.01 0.01 0.01 0.01 0.00 0.00 0.01 0.00 0.00 0.00 0.00 0.00 0.00 0.00 0.00 0.00 0.00 0.00 0.00 0.00 0.00
0.02 0.02 0.02 0.01 0.01 0.01 0.01 0.01 0.02 0.01 0.00 0.00 0.00 0.01 0.01 0.01 0.01 0.00 0.01 0.01 0.01 0.01 0.01 0.00 0.01 0.01 0.01 0.00 0.01 0.01 0.00 0.00 0.00 0.00 0.00 0.00 0.00 0.00 0.00 0.00 0.00 0.00 0.00
0.01 0.01 0.01 0.01 0.02 0.02 0.01 0.02 0.02 0.01 0.01 0.01 0.01 0.01 0.01 0.01 0.01 0.01 0.01 0.01 0.01 0.01 0.01 0.01 0.01 0.01 0.00 0.00 0.00 0.01 0.00 0.00 0.00 0.00 0.00 0.00 0.00 0.00 0.00 0.00 0.00 0.00 0.00
0.00 0.01 0.01 0.01 0.01 0.02 0.02 0.02 0.02 0.02 0.02 0.01 0.01 0.01 0.01 0.01 0.01 0.01 0.01 0.01 0.01 0.01 0.00 0.00 0.00 0.00 0.00 0.00 0.00 0.00 0.00 0.00 0.00 0.00 0.00 0.00 0.00 0.00 0.00 0.00 0.00 0.00 0.00
0.00 0.00 0.01 0.01 0.01 0.02 0.03 0.02 0.02 0.01 0.02 0.02 0.01 0.01 0.01 0.01 0.01 0.01 0.01 0.01 0.01 0.01 0.01 0.00 0.00 0.00 0.00 0.00 0.00 0.00 0.00 0.00 0.00 0.00 0.00 0.00 0.00 0.00 0.00 0.00 0.00 0.00 0.00
0.01 0.01 0.01 0.01 0.01 0.01 0.02 0.02 0.02 0.02 0.01 0.02 0.01 0.01 0.01 0.01 0.01 0.01 0.00 0.00 0.00 0.01 0.00 0.00 0.00 0.00 0.00 0.00 0.00 0.00 0.00 0.00 0.00 0.00 0.00 0.00 0.00 0.00 0.00 0.00 0.00 0.00 0.00
0.02 0.03 0.02 0.01 0.01 0.01 0.01 0.01 0.01 0.01 0.01 0.02 0.01 0.01 0.01 0.00 0.01 0.00 0.00 0.00 0.00 0.00 0.00 0.00 0.00 0.00 0.00 0.00 0.00 0.00 0.00 0.00 0.00 0.00 0.00 0.00 0.00 0.00 0.00 0.00 0.00 0.00 0.00

GEFSMW_prec_meanprec_126.txt.gz
QPF
0.06 0.04 0.03 0.03 0.04 0.07 0.11 0.16 0.16 0.24 0.21 0.20 0.22 0.28 0.26 0.16 0.13 0.16 0.13 0.11 0.10 0.11 0.10 0.08 0.08 0.08 0.06 0.06 0.06 0.05 0.04 0.04 0.05 0.06 0.06 0.05 0.04 0.04 0.05 0.07 0.09 0.11 0.12
0.07 0.07 0.05 0.04 0.04 0.05 0.07 0.09 0.11 0.14 0.15 0.15 0.14 0.14 0.15 0.12 0.09 0.09 0.08 0.07 0.07 0.06 0.07 0.06 0.06 0.06 0.05 0.04 0.04 0.04 0.03 0.04 0.05 0.07 0.08 0.07 0.06 0.05 0.05 0.07 0.09 0.11 0.11
0.09 0.06 0.06 0.05 0.04 0.05 0.06 0.06 0.07 0.07 0.08 0.09 0.09 0.09 0.08 0.08 0.08 0.07 0.08 0.07 0.05 0.04 0.04 0.04 0.04 0.04 0.04 0.04 0.04 0.04 0.04 0.04 0.05 0.08 0.10 0.09 0.08 0.06 0.06 0.07 0.09 0.10 0.10
0.07 0.06 0.06 0.04 0.04 0.03 0.04 0.05 0.05 0.05 0.05 0.06 0.07 0.07 0.07 0.09 0.09 0.07 0.06 0.05 0.04 0.04 0.03 0.03 0.03 0.03 0.03 0.03 0.04 0.05 0.05 0.06 0.07 0.08 0.08 0.08 0.08 0.08 0.07 0.07 0.09 0.11 0.12
0.07 0.07 0.06 0.05 0.03 0.02 0.03 0.05 0.06 0.05 0.04 0.04 0.05 0.06 0.06 0.05 0.05 0.05 0.04 0.04 0.04 0.04 0.03 0.02 0.01 0.01 0.01 0.01 0.02 0.03 0.04 0.04 0.05 0.07 0.08 0.09 0.09 0.08 0.08 0.07 0.08 0.10 0.11
0.10 0.08 0.07 0.08 0.06 0.04 0.03 0.03 0.05 0.05 0.04 0.04 0.04 0.04 0.03 0.02 0.02 0.02 0.02 0.01 0.01 0.01 0.01 0.01 0.00 0.00 0.01 0.01 0.01 0.01 0.01 0.02 0.03 0.04 0.06 0.08 0.09 0.09 0.10 0.10 0.10 0.13 0.15
0.06 0.05 0.04 0.03 0.02 0.02 0.02 0.02 0.02 0.03 0.03 0.03 0.02 0.02 0.01 0.01 0.00 0.00 0.00 0.01 0.01 0.00 0.00 0.00 0.01 0.01 0.01 0.01 0.01 0.01 0.01 0.01 0.02 0.02 0.03 0.04 0.05 0.06 0.07 0.11 0.15 0.17 0.18
0.05 0.04 0.03 0.02 0.01 0.01 0.01 0.01 0.01 0.01 0.01 0.01 0.01 0.01 0.00 0.00 0.00 0.00 0.00 0.00 0.00 0.00 0.00 0.01 0.01 0.01 0.01 0.01 0.01 0.01 0.01 0.01 0.02 0.02 0.03 0.04 0.04 0.05 0.07 0.08 0.12 0.16 0.18
0.04 0.03 0.02 0.01 0.01 0.00 0.00 0.00 0.00 0.00 0.00 0.00 0.00 0.01 0.01 0.01 0.00 0.00 0.00 0.00 0.00 0.00 0.00 0.00 0.00 0.00 0.00 0.01 0.01 0.01 0.01 0.02 0.02 0.02 0.03 0.03 0.03 0.05 0.07 0.08 0.11 0.14 0.15
0.03 0.03 0.02 0.01 0.01 0.00 0.00 0.00 0.00 0.00 0.00 0.00 0.00 0.00 0.00 0.00 0.01 0.01 0.01 0.00 0.00 0.00 0.00 0.00 0.00 0.00 0.00 0.00 0.01 0.01 0.01 0.01 0.02 0.02 0.02 0.03 0.04 0.06 0.07 0.07 0.08 0.10 0.12
0.05 0.04 0.04 0.02 0.01 0.01 0.00 0.00 0.00 0.00 0.00 0.00 0.00 0.00 0.00 0.00 0.01 0.01 0.01 0.00 0.00 0.00 0.00 0.00 0.00 0.00 0.00 0.00 0.01 0.02 0.02 0.02 0.02 0.02 0.02 0.03 0.04 0.05 0.06 0.06 0.07 0.08 0.10
0.08 0.04 0.03 0.02 0.01 0.01 0.00 0.00 0.00 0.00 0.00 0.00 0.00 0.00 0.00 0.00 0.00 0.01 0.01 0.01 0.00 0.00 0.00 0.00 0.01 0.01 0.01 0.01 0.01 0.01 0.03 0.06 0.05 0.04 0.03 0.04 0.04 0.04 0.04 0.05 0.06 0.07 0.09
0.13 0.07 0.03 0.02 0.02 0.02 0.01 0.00 0.00 0.00 0.01 0.01 0.01 0.01 0.01 0.00 0.00 0.00 0.00 0.01 0.01 0.01 0.01 0.00 0.02 0.02 0.01 0.01 0.01 0.01 0.02 0.07 0.09 0.06 0.05 0.04 0.04 0.04 0.04 0.04 0.05 0.07 0.10
0.15 0.11 0.04 0.02 0.02 0.02 0.01 0.01 0.01 0.00 0.00 0.00 0.01 0.01 0.00 0.00 0.00 0.00 0.00 0.01 0.01 0.01 0.01 0.01 0.01 0.01 0.01 0.01 0.01 0.01 0.03 0.07 0.09 0.07 0.07 0.06 0.05 0.04 0.04 0.04 0.05 0.06 0.10
0.07 0.06 0.04 0.03 0.02 0.01 0.01 0.01 0.00 0.00 0.00 0.00 0.00 0.00 0.00 0.00 0.01 0.00 0.00 0.01 0.01 0.01 0.01 0.01 0.01 0.01 0.01 0.01 0.01 0.01 0.03 0.06 0.08 0.08 0.08 0.07 0.06 0.06 0.05 0.05 0.04 0.05 0.08
0.06 0.04 0.03 0.03 0.01 0.01 0.01 0.00 0.00 0.00 0.00 0.00 0.00 0.00 0.01 0.01 0.01 0.00 0.00 0.01 0.01 0.01 0.01 0.01 0.01 0.01 0.00 0.00 0.00 0.01 0.02 0.03 0.06 0.07 0.07 0.05 0.05 0.04 0.05 0.05 0.05 0.04 0.04
0.06 0.05 0.04 0.02 0.01 0.01 0.00 0.00 0.00 0.00 0.00 0.00 0.00 0.00 0.01 0.01 0.01 0.01 0.00 0.00 0.00 0.01 0.01 0.01 0.01 0.01 0.01 0.01 0.01 0.01 0.02 0.02 0.03 0.04 0.03 0.03 0.03 0.03 0.02 0.03 0.03 0.03 0.03
0.05 0.04 0.03 0.02 0.02 0.01 0.01 0.01 0.01 0.01 0.01 0.00 0.00 0.00 0.01 0.01 0.01 0.01 0.00 0.00 0.00 0.01 0.01 0.01 0.02 0.02 0.02 0.01 0.01 0.01 0.01 0.01 0.01 0.01 0.01 0.01 0.02 0.02 0.02 0.02 0.01 0.01 0.01
0.04 0.04 0.03 0.01 0.01 0.01 0.01 0.01 0.01 0.01 0.01 0.01 0.01 0.01 0.01 0.01 0.01 0.01 0.00 0.00 0.00 0.01 0.01 0.01 0.02 0.02 0.01 0.01 0.01 0.00 0.01 0.00 0.00 0.00 0.01 0.00 0.00 0.01 0.01 0.01 0.01 0.01 0.01
0.03 0.04 0.03 0.02 0.02 0.02 0.02 0.01 0.01 0.01 0.01 0.01 0.02 0.01 0.01 0.01 0.01 0.01 0.00 0.00 0.01 0.01 0.01 0.01 0.02 0.02 0.01 0.01 0.01 0.00 0.00 0.00 0.00 0.00 0.00 0.00 0.00 0.00 0.00 0.01 0.01 0.01 0.00
0.05 0.05 0.04 0.01 0.01 0.02 0.01 0.01 0.01 0.01 0.01 0.01 0.02 0.02 0.01 0.01 0.01 0.00 0.00 0.00 0.01 0.01 0.01 0.01 0.01 0.01 0.01 0.01 0.00 0.00 0.00 0.00 0.00 0.00 0.00 0.00 0.00 0.00 0.00 0.01 0.01 0.01 0.01
0.04 0.03 0.03 0.02 0.02 0.02 0.01 0.01 0.01 0.01 0.01 0.01 0.02 0.02 0.02 0.01 0.00 0.00 0.00 0.01 0.01 0.01 0.01 0.01 0.01 0.01 0.01 0.00 0.00 0.00 0.00 0.00 0.00 0.00 0.00 0.00 0.00 0.00 0.00 0.00 0.00 0.00 0.00
0.03 0.02 0.02 0.02 0.02 0.02 0.01 0.02 0.01 0.01 0.01 0.02 0.02 0.02 0.01 0.01 0.01 0.01 0.01 0.01 0.01 0.01 0.01 0.01 0.01 0.01 0.00 0.00 0.00 0.00 0.00 0.00 0.00 0.00 0.00 0.00 0.00 0.00 0.00 0.00 0.00 0.00 0.00
0.02 0.02 0.02 0.01 0.01 0.01 0.01 0.01 0.02 0.01 0.02 0.02 0.02 0.02 0.01 0.01 0.00 0.01 0.01 0.01 0.01 0.01 0.01 0.01 0.00 0.00 0.00 0.00 0.00 0.00 0.00 0.00 0.00 0.00 0.00 0.00 0.00 0.00 0.00 0.00 0.00 0.00 0.00
0.01 0.01 0.02 0.02 0.02 0.02 0.01 0.01 0.02 0.02 0.02 0.02 0.01 0.01 0.01 0.01 0.01 0.01 0.01 0.00 0.01 0.01 0.01 0.01 0.00 0.00 0.00 0.00 0.00 0.00 0.00 0.00 0.00 0.00 0.00 0.00 0.00 0.00 0.00 0.00 0.00 0.00 0.00
0.02 0.01 0.02 0.02 0.02 0.02 0.01 0.01 0.01 0.01 0.01 0.01 0.01 0.01 0.01 0.01 0.01 0.01 0.00 0.00 0.01 0.01 0.01 0.01 0.00 0.00 0.00 0.00 0.00 0.00 0.00 0.00 0.00 0.00 0.00 0.00 0.00 0.00 0.00 0.00 0.00 0.00 0.00

GEFSMW_prec_meanprec_132.txt.gz
QPF
0.01 0.01 0.01 0.01 0.01 0.01 0.02 0.03 0.05 0.07 0.07 0.07 0.08 0.09 0.11 0.10 0.08 0.08 0.09 0.07 0.07 0.08 0.09 0.08 0.08 0.07 0.06 0.07 0.06 0.06 0.05 0.04 0.04 0.04 0.03 0.02 0.01 0.02 0.02 0.02 0.03 0.04 0.06
0.02 0.02 0.02 0.02 0.02 0.02 0.02 0.03 0.04 0.04 0.06 0.07 0.07 0.08 0.08 0.08 0.06 0.07 0.07 0.07 0.07 0.07 0.06 0.07 0.07 0.06 0.05 0.05 0.05 0.05 0.05 0.04 0.03 0.04 0.05 0.04 0.03 0.03 0.03 0.02 0.03 0.04 0.06
0.03 0.04 0.03 0.03 0.02 0.02 0.03 0.03 0.03 0.04 0.04 0.06 0.07 0.07 0.08 0.07 0.07 0.08 0.07 0.06 0.06 0.06 0.05 0.05 0.05 0.05 0.04 0.03 0.04 0.04 0.05 0.05 0.04 0.04 0.06 0.07 0.06 0.04 0.03 0.03 0.03 0.04 0.06
0.04 0.07 0.06 0.05 0.04 0.03 0.03 0.03 0.04 0.04 0.04 0.05 0.07 0.08 0.08 0.07 0.07 0.07 0.06 0.04 0.03 0.04 0.04 0.04 0.04 0.04 0.03 0.03 0.02 0.02 0.03 0.05 0.04 0.04 0.05 0.07 0.07 0.08 0.08 0.07 0.05 0.05 0.07
0.03 0.05 0.05 0.04 0.05 0.04 0.03 0.03 0.03 0.03 0.03 0.04 0.05 0.06 0.08 0.07 0.06 0.05 0.05 0.03 0.02 0.02 0.03 0.03 0.03 0.03 0.02 0.02 0.02 0.02 0.02 0.03 0.04 0.04 0.05 0.06 0.07 0.08 0.09 0.09 0.07 0.07 0.07
0.03 0.02 0.03 0.03 0.05 0.05 0.03 0.02 0.03 0.04 0.03 0.03 0.04 0.06 0.07 0.07 0.05 0.03 0.02 0.02 0.01 0.02 0.02 0.01 0.01 0.01 0.01 0.01 0.01 0.02 0.01 0.02 0.03 0.03 0.04 0.06 0.07 0.08 0.09 0.09 0.09 0.09 0.08
0.04 0.03 0.03 0.03 0.03 0.02 0.01 0.03 0.03 0.03 0.04 0.04 0.05 0.06 0.06 0.04 0.03 0.02 0.01 0.01 0.01 0.01 0.01 0.01 0.00 0.01 0.01 0.01 0.01 0.01 0.01 0.01 0.01 0.02 0.03 0.04 0.05 0.06 0.07 0.09 0.10 0.11 0.11
0.06 0.06 0.05 0.03 0.02 0.01 0.00 0.00 0.01 0.02 0.02 0.02 0.03 0.04 0.04 0.03 0.02 0.01 0.01 0.01 0.01 0.01 0.01 0.00 0.00 0.00 0.00 0.00 0.01 0.01 0.01 0.01 0.01 0.01 0.02 0.03 0.03 0.04 0.04 0.07 0.08 0.10 0.10
0.06 0.06 0.04 0.03 0.02 0.01 0.00 0.00 0.00 0.01 0.01 0.01 0.01 0.02 0.02 0.02 0.02 0.01 0.01 0.01 0.01 0.00 0.00 0.00 0.00 0.00 0.00 0.00 0.00 0.01 0.01 0.01 0.00 0.01 0.01 0.02 0.02 0.03 0.03 0.05 0.06 0.07 0.07
0.06 0.05 0.04 0.03 0.02 0.01 0.00 0.00 0.00 0.00 0.00 0.00 0.00 0.01 0.01 0.01 0.01 0.01 0.01 0.01 0.00 0.00 0.00 0.00 0.00 0.00 0.00 0.00 0.00 0.00 0.01 0.01 0.01 0.01 0.01 0.02 0.02 0.02 0.03 0.04 0.05 0.06 0.07
0.05 0.04 0.04 0.03 0.03 0.02 0.01 0.00 0.00 0.00 0.00 0.00 0.00 0.00 0.00 0.01 0.01 0.01 0.01 0.01 0.01 0.00 0.00 0.00 0.00 0.00 0.00 0.01 0.01 0.01 0.01 0.01 0.01 0.01 0.01 0.01 0.01 0.02 0.02 0.02 0.03 0.04 0.06
0.06 0.05 0.05 0.04 0.03 0.02 0.01 0.01 0.01 0.01 0.00 0.00 0.00 0.00 0.00 0.00 0.01 0.02 0.01 0.01 0.01 0.01 0.00 0.00 0.00 0.00 0.00 0.01 0.01 0.01 0.01 0.01 0.01 0.01 0.01 0.01 0.01 0.02 0.02 0.02 0.02 0.04 0.05
0.08 0.06 0.05 0.04 0.03 0.02 0.02 0.02 0.01 0.01 0.00 0.00 0.01 0.01 0.01 0.00 0.00 0.01 0.01 0.01 0.01 0.01 0.01 0.01 0.01 0.01 0.00 0.01 0.01 0.01 0.02 0.02 0.01 0.02 0.02 0.02 0.02 0.02 0.02 0.02 0.03 0.03 0.05
0.11 0.10 0.07 0.06 0.04 0.03 0.03 0.03 0.02 0.01 0.01 0.01 0.01 0.01 0.01 0.01 0.01 0.00 0.00 0.00 0.01 0.01 0.01 0.01 0.01 0.01 0.01 0.01 0.01 0.01 0.02 0.02 0.02 0.02 0.03 0.03 0.02 0.02 0.03 0.03 0.03 0.04 0.07
0.09 0.15 0.13 0.09 0.07 0.04 0.03 0.02 0.01 0.01 0.01 0.01 0.01 0.01 0.01 0.01 0.01 0.01 0.01 0.01 0.01 0.01 0.00 0.01 0.01 0.01 0.01 0.01 0.00 0.01 0.01 0.01 0.02 0.03 0.03 0.04 0.04 0.03 0.03 0.03 0.04 0.06 0.08
0.07 0.09 0.11 0.11 0.07 0.03 0.02 0.01 0.01 0.01 0.01 0.01 0.01 0.01 0.01 0.01 0.02 0.01 0.01 0.01 0.01 0.01 0.01 0.01 0.03 0.03 0.02 0.01 0.00 0.00 0.01 0.01 0.02 0.04 0.04 0.06 0.06 0.05 0.04 0.04 0.05 0.06 0.07
0.04 0.05 0.06 0.07 0.05 0.03 0.02 0.01 0.01 0.01 0.01 0.01 0.01 0.01 0.02 0.01 0.01 0.01 0.01 0.01 0.01 0.01 0.01 0.03 0.04 0.04 0.02 0.01 0.00 0.00 0.01 0.01 0.02 0.03 0.05 0.06 0.07 0.07 0.07 0.06 0.06 0.05 0.05
0.05 0.05 0.03 0.03 0.03 0.02 0.01 0.01 0.01 0.01 0.01 0.01 0.01 0.01 0.01 0.02 0.02 0.02 0.01 0.01 0.01 0.02 0.02 0.04 0.03 0.04 0.01 0.00 0.00 0.00 0.01 0.02 0.02 0.03 0.04 0.05 0.06 0.06 0.07 0.06 0.04 0.04 0.04
0.04 0.04 0.03 0.03 0.02 0.01 0.01 0.02 0.02 0.02 0.01 0.02 0.02 0.01 0.01 0.02 0.03 0.03 0.02 0.01 0.01 0.01 0.02 0.04 0.04 0.04 0.02 0.01 0.00 0.01 0.01 0.02 0.02 0.02 0.02 0.02 0.02 0.03 0.04 0.04 0.04 0.03 0.03
0.02 0.02 0.02 0.02 0.01 0.01 0.02 0.02 0.02 0.02 0.02 0.02 0.01 0.01 0.01 0.01 0.02 0.03 0.03 0.02 0.01 0.01 0.02 0.04 0.06 0.04 0.02 0.01 0.01 0.01 0.01 0.02 0.02 0.01 0.01 0.01 0.01 0.01 0.02 0.03 0.04 0.03 0.02
0.03 0.03 0.03 0.02 0.01 0.02 0.02 0.01 0.02 0.02 0.01 0.01 0.02 0.02 0.02 0.02 0.02 0.02 0.02 0.01 0.01 0.01 0.02 0.04 0.04 0.03 0.01 0.01 0.01 0.01 0.01 0.02 0.02 0.02 0.01 0.01 0.01 0.01 0.01 0.02 0.02 0.02 0.01
0.02 0.03 0.04 0.04 0.03 0.02 0.03 0.02 0.02 0.02 0.01 0.01 0.03 0.03 0.03 0.01 0.01 0.01 0.01 0.01 0.01 0.02 0.02 0.02 0.02 0.01 0.00 0.00 0.00 0.00 0.01 0.01 0.01 0.01 0.01 0.01 0.01 0.01 0.01 0.01 0.01 0.01 0.01
0.03 0.02 0.03 0.04 0.03 0.03 0.03 0.02 0.02 0.02 0.02 0.03 0.03 0.03 0.02 0.01 0.01 0.01 0.01 0.01 0.01 0.02 0.02 0.01 0.01 0.00 0.00 0.00 0.00 0.00 0.00 0.00 0.01 0.01 0.00 0.00 0.00 0.00 0.00 0.00 0.00 0.00 0.01
0.03 0.02 0.03 0.04 0.03 0.03 0.03 0.03 0.02 0.02 0.03 0.03 0.03 0.02 0.02 0.01 0.01 0.01 0.01 0.01 0.01 0.01 0.01 0.01 0.01 0.01 0.00 0.00 0.00 0.00 0.00 0.00 0.00 0.00 0.00 0.00 0.00 0.00 0.00 0.00 0.00 0.00 0.00
0.02 0.02 0.03 0.03 0.03 0.03 0.03 0.03 0.02 0.02 0.03 0.03 0.02 0.02 0.02 0.01 0.01 0.01 0.01 0.01 0.01 0.00 0.01 0.00 0.00 0.00 0.01 0.00 0.00 0.00 0.00 0.00 0.00 0.00 0.00 0.00 0.00 0.00 0.00 0.00 0.00 0.00 0.00
0.02 0.02 0.02 0.03 0.03 0.03 0.03 0.02 0.02 0.02 0.02 0.02 0.02 0.02 0.01 0.01 0.01 0.01 0.01 0.00 0.00 0.00 0.00 0.00 0.00 0.00 0.00 0.00 0.00 0.00 0.00 0.00 0.00 0.00 0.00 0.00 0.00 0.00 0.00 0.00 0.00 0.00 0.00

GEFSMW_prec_meanprec_138.txt.gz
QPF
0.02 0.01 0.01 0.02 0.03 0.04 0.04 0.04 0.04 0.06 0.16 0.19 0.18 0.17 0.15 0.15 0.13 0.11 0.09 0.10 0.09 0.10 0.09 0.07 0.06 0.06 0.07 0.07 0.07 0.08 0.10 0.11 0.11 0.09 0.10 0.09 0.05 0.03 0.04 0.04 0.03 0.03 0.04
0.06 0.03 0.02 0.02 0.02 0.04 0.04 0.04 0.04 0.07 0.13 0.15 0.15 0.14 0.14 0.12 0.10 0.09 0.08 0.07 0.07 0.08 0.07 0.06 0.05 0.06 0.08 0.07 0.07 0.08 0.09 0.10 0.10 0.10 0.10 0.09 0.07 0.06 0.04 0.04 0.03 0.04 0.04
0.06 0.02 0.02 0.02 0.03 0.03 0.03 0.04 0.04 0.06 0.09 0.08 0.08 0.09 0.11 0.09 0.07 0.06 0.06 0.06 0.05 0.05 0.04 0.04 0.04 0.05 0.05 0.05 0.04 0.05 0.06 0.08 0.09 0.09 0.10 0.10 0.10 0.07 0.05 0.03 0.03 0.03 0.04
0.08 0.03 0.01 0.02 0.03 0.03 0.02 0.04 0.04 0.03 0.03 0.03 0.05 0.07 0.07 0.06 0.04 0.04 0.05 0.04 0.04 0.03 0.02 0.03 0.03 0.04 0.04 0.04 0.04 0.05 0.06 0.06 0.07 0.08 0.09 0.10 0.10 0.10 0.07 0.04 0.04 0.04 0.04
0.06 0.03 0.03 0.02 0.02 0.02 0.02 0.03 0.03 0.03 0.03 0.04 0.05 0.06 0.05 0.04 0.04 0.04 0.04 0.04 0.03 0.03 0.03 0.03 0.03 0.03 0.04 0.04 0.04 0.05 0.05 0.05 0.06 0.07 0.07 0.07 0.08 0.09 0.08 0.06 0.05 0.04 0.04
0.04 0.02 0.02 0.02 0.02 0.02 0.02 0.03 0.02 0.02 0.03 0.03 0.03 0.05 0.06 0.06 0.07 0.08 0.09 0.09 0.09 0.06 0.02 0.02 0.02 0.03 0.03 0.03 0.03 0.03 0.03 0.04 0.04 0.05 0.05 0.05 0.05 0.06 0.07 0.06 0.05 0.04 0.04
0.06 0.04 0.02 0.02 0.02 0.02 0.03 0.02 0.02 0.02 0.02 0.02 0.03 0.03 0.05 0.06 0.07 0.07 0.08 0.09 0.09 0.07 0.02 0.01 0.01 0.02 0.02 0.02 0.02 0.02 0.02 0.02 0.03 0.03 0.03 0.03 0.04 0.05 0.05 0.06 0.04 0.03 0.03
0.03 0.03 0.04 0.04 0.04 0.04 0.03 0.02 0.02 0.03 0.02 0.02 0.02 0.03 0.03 0.03 0.04 0.06 0.07 0.08 0.08 0.06 0.04 0.02 0.01 0.01 0.01 0.01 0.01 0.02 0.02 0.02 0.02 0.02 0.03 0.03 0.03 0.04 0.04 0.04 0.04 0.03 0.03
0.02 0.05 0.05 0.04 0.03 0.02 0.02 0.01 0.02 0.01 0.01 0.01 0.02 0.03 0.03 0.03 0.03 0.03 0.04 0.05 0.06 0.04 0.03 0.02 0.01 0.01 0.01 0.01 0.01 0.02 0.02 0.02 0.02 0.02 0.02 0.02 0.02 0.04 0.04 0.04 0.04 0.04 0.04
0.02 0.04 0.04 0.03 0.02 0.02 0.01 0.02 0.02 0.02 0.01 0.01 0.01 0.02 0.03 0.04 0.03 0.02 0.02 0.03 0.03 0.02 0.01 0.01 0.01 0.01 0.01 0.01 0.01 0.02 0.02 0.02 0.03 0.02 0.02 0.02 0.02 0.02 0.02 0.03 0.03 0.03 0.03
0.04 0.03 0.04 0.04 0.03 0.02 0.01 0.01 0.01 0.01 0.01 0.01 0.01 0.01 0.02 0.02 0.02 0.02 0.02 0.02 0.02 0.01 0.01 0.01 0.01 0.01 0.01 0.02 0.02 0.02 0.02 0.03 0.02 0.02 0.02 0.02 0.02 0.02 0.02 0.02 0.03 0.03 0.03
0.04 0.05 0.05 0.04 0.03 0.02 0.01 0.02 0.01 0.01 0.01 0.01 0.01 0.02 0.02 0.02 0.02 0.02 0.02 0.02 0.02 0.01 0.01 0.01 0.01 0.01 0.01 0.02 0.02 0.02 0.02 0.02 0.02 0.02 0.02 0.02 0.02 0.02 0.02 0.03 0.03 0.03 0.03
0.05 0.05 0.06 0.04 0.03 0.02 0.02 0.02 0.02 0.02 0.02 0.02 0.02 0.02 0.02 0.02 0.01 0.01 0.01 0.01 0.01 0.02 0.01 0.01 0.01 0.01 0.01 0.01 0.01 0.01 0.02 0.02 0.02 0.02 0.02 0.02 0.02 0.02 0.02 0.03 0.03 0.04 0.04
0.06 0.06 0.05 0.06 0.05 0.03 0.03 0.03 0.03 0.02 0.02 0.01 0.02 0.02 0.02 0.01 0.01 0.01 0.01 0.01 0.01 0.01 0.01 0.01 0.01 0.02 0.01 0.00 0.01 0.01 0.02 0.02 0.03 0.02 0.01 0.01 0.01 0.01 0.01 0.02 0.04 0.04 0.05
0.06 0.06 0.06 0.05 0.05 0.03 0.03 0.02 0.02 0.02 0.01 0.01 0.02 0.02 0.02 0.01 0.01 0.02 0.02 0.01 0.01 0.01 0.01 0.02 0.02 0.02 0.01 0.00 0.01 0.02 0.03 0.04 0.03 0.02 0.01 0.00 0.00 0.01 0.01 0.02 0.03 0.03 0.05
0.06 0.06 0.05 0.05 0.05 0.04 0.03 0.02 0.02 0.02 0.02 0.02 0.02 0.01 0.01 0.01 0.01 0.01 0.02 0.02 0.01 0.01 0.01 0.01 0.02 0.01 0.00 0.01 0.01 0.01 0.02 0.03 0.03 0.02 0.02 0.01 0.00 0.01 0.01 0.02 0.02 0.03 0.05
0.05 0.05 0.04 0.04 0.04 0.05 0.04 0.03 0.03 0.02 0.02 0.01 0.01 0.01 0.01 0.01 0.01 0.02 0.03 0.04 0.03 0.02 0.02 0.02 0.02 0.02 0.01 0.01 0.01 0.01 0.02 0.03 0.02 0.02 0.02 0.02 0.01 0.02 0.03 0.04 0.04 0.03 0.03
0.04 0.04 0.03 0.03 0.04 0.05 0.04 0.04 0.03 0.03 0.02 0.02 0.01 0.01 0.01 0.01 0.02 0.03 0.04 0.05 0.05 0.03 0.02 0.03 0.03 0.04 0.02 0.01 0.01 0.01 0.03 0.04 0.02 0.01 0.02 0.03 0.02 0.02 0.04 0.06 0.05 0.04 0.03
0.07 0.09 0.09 0.06 0.03 0.03 0.03 0.03 0.03 0.03 0.02 0.02 0.02 0.02 0.01 0.02 0.02 0.03 0.05 0.06 0.05 0.04 0.02 0.02 0.03 0.03 0.02 0.02 0.02 0.03 0.06 0.05 0.03 0.02 0.02 0.03 0.02 0.03 0.03 0.05 0.07 0.07 0.06
0.07 0.06 0.06 0.03 0.02 0.02 0.02 0.03 0.02 0.03 0.03 0.03 0.02 0.02 0.02 0.02 0.02 0.04 0.06 0.06 0.05 0.04 0.02 0.02 0.04 0.04 0.02 0.02 0.03 0.04 0.06 0.06 0.06 0.05 0.04 0.03 0.03 0.03 0.04 0.06 0.07 0.07 0.07
0.04 0.03 0.02 0.02 0.02 0.02 0.03 0.04 0.03 0.03 0.03 0.03 0.04 0.03 0.02 0.02 0.03 0.04 0.05 0.05 0.05 0.04 0.03 0.03 0.05 0.06 0.03 0.03 0.03 0.04 0.05 0.05 0.06 0.05 0.04 0.04 0.03 0.03 0.04 0.05 0.05 0.05 0.05
0.04 0.03 0.03 0.03 0.03 0.03 0.04 0.04 0.03 0.02 0.02 0.04 0.05 0.04 0.02 0.02 0.02 0.02 0.03 0.04 0.03 0.04 0.04 0.04 0.05 0.05 0.03 0.02 0.02 0.02 0.03 0.04 0.05 0.04 0.03 0.03 0.03 0.03 0.04 0.04 0.05 0.05 0.04
0.06 0.04 0.04 0.04 0.04 0.05 0.05 0.05 0.05 0.03 0.02 0.04 0.03 0.03 0.01 0.01 0.01 0.02 0.02 0.02 0.02 0.02 0.02 0.02 0.03 0.03 0.02 0.02 0.02 0.01 0.01 0.02 0.03 0.03 0.03 0.02 0.02 0.02 0.02 0.02 0.03 0.04 0.03
0.03 0.03 0.04 0.04 0.05 0.05 0.05 0.05 0.05 0.04 0.04 0.03 0.02 0.02 0.02 0.01 0.01 0.01 0.01 0.01 0.02 0.01 0.01 0.01 0.02 0.01 0.01 0.01 0.01 0.01 0.01 0.01 0.01 0.02 0.02 0.02 0.02 0.01 0.01 0.01 0.01 0.01 0.02
0.03 0.03 0.03 0.04 0.04 0.03 0.04 0.04 0.03 0.03 0.03 0.02 0.02 0.02 0.02 0.02 0.01 0.01 0.01 0.01 0.01 0.01 0.01 0.01 0.01 0.01 0.01 0.00 0.00 0.00 0.00 0.00 0.00 0.01 0.01 0.01 0.01 0.01 0.01 0.01 0.01 0.00 0.00
0.03 0.04 0.03 0.02 0.02 0.02 0.02 0.02 0.03 0.02 0.02 0.02 0.02 0.03 0.02 0.01 0.01 0.01 0.00 0.00 0.00 0.00 0.01 0.01 0.01 0.00 0.00 0.00 0.00 0.00 0.00 0.00 0.00 0.00 0.00 0.00 0.00 0.00 0.00 0.00 0.00 0.00 0.00

GEFSMW_prec_meanprec_144.txt.gz
QPF
0.18 0.22 0.24 0.12 0.06 0.08 0.06 0.04 0.04 0.03 0.03 0.04 0.05 0.07 0.09 0.14 0.17 0.13 0.09 0.07 0.09 0.13 0.13 0.13 0.14 0.13 0.14 0.14 0.13 0.11 0.10 0.08 0.08 0.07 0.07 0.06 0.06 0.05 0.04 0.03 0.03 0.03 0.03
0.24 0.19 0.10 0.04 0.03 0.03 0.03 0.04 0.04 0.03 0.05 0.06 0.06 0.06 0.05 0.07 0.10 0.09 0.06 0.06 0.06 0.09 0.12 0.15 0.13 0.09 0.09 0.08 0.08 0.07 0.07 0.07 0.08 0.07 0.07 0.07 0.08 0.06 0.05 0.03 0.02 0.03 0.03
0.14 0.06 0.03 0.02 0.02 0.02 0.03 0.05 0.06 0.06 0.10 0.08 0.06 0.06 0.04 0.04 0.06 0.07 0.05 0.04 0.04 0.05 0.07 0.09 0.10 0.08 0.07 0.07 0.06 0.05 0.05 0.05 0.05 0.05 0.05 0.05 0.05 0.05 0.05 0.05 0.04 0.03 0.03
0.07 0.04 0.02 0.02 0.02 0.02 0.03 0.04 0.06 0.05 0.06 0.05 0.05 0.04 0.03 0.03 0.04 0.04 0.03 0.03 0.03 0.04 0.04 0.05 0.07 0.08 0.07 0.07 0.06 0.05 0.04 0.04 0.03 0.04 0.04 0.03 0.04 0.04 0.04 0.03 0.04 0.04 0.04
0.07 0.04 0.02 0.02 0.03 0.02 0.03 0.03 0.04 0.05 0.05 0.05 0.04 0.03 0.03 0.02 0.02 0.02 0.02 0.02 0.03 0.03 0.04 0.03 0.03 0.04 0.05 0.05 0.05 0.04 0.03 0.03 0.02 0.03 0.03 0.04 0.04 0.03 0.03 0.02 0.02 0.03 0.03
0.07 0.04 0.03 0.03 0.03 0.02 0.02 0.04 0.05 0.05 0.04 0.02 0.03 0.05 0.04 0.03 0.01 0.01 0.02 0.02 0.02 0.03 0.06 0.06 0.05 0.04 0.04 0.04 0.03 0.03 0.02 0.02 0.02 0.02 0.02 0.02 0.02 0.03 0.04 0.02 0.02 0.02 0.01
0.08 0.05 0.04 0.03 0.02 0.02 0.02 0.02 0.02 0.04 0.04 0.04 0.04 0.04 0.05 0.03 0.02 0.01 0.01 0.01 0.01 0.03 0.08 0.13 0.12 0.08 0.05 0.04 0.03 0.02 0.01 0.01 0.01 0.01 0.01 0.01 0.02 0.02 0.03 0.02 0.02 0.02 0.01
0.07 0.04 0.03 0.03 0.02 0.02 0.02 0.01 0.02 0.03 0.02 0.01 0.01 0.02 0.03 0.03 0.02 0.02 0.01 0.01 0.01 0.02 0.04 0.05 0.07 0.08 0.07 0.04 0.03 0.01 0.00 0.00 0.00 0.00 0.00 0.01 0.01 0.02 0.02 0.01 0.02 0.02 0.01
0.08 0.05 0.04 0.04 0.03 0.02 0.02 0.01 0.01 0.01 0.01 0.00 0.00 0.00 0.01 0.02 0.02 0.02 0.02 0.02 0.03 0.03 0.03 0.04 0.04 0.04 0.03 0.03 0.02 0.01 0.00 0.01 0.00 0.00 0.00 0.00 0.01 0.01 0.02 0.02 0.02 0.02 0.01
0.11 0.09 0.06 0.04 0.04 0.03 0.02 0.01 0.01 0.01 0.00 0.00 0.00 0.00 0.01 0.01 0.02 0.02 0.02 0.02 0.03 0.03 0.02 0.02 0.02 0.02 0.01 0.01 0.01 0.01 0.01 0.01 0.01 0.00 0.00 0.01 0.01 0.01 0.01 0.02 0.02 0.02 0.03
0.12 0.09 0.06 0.04 0.04 0.03 0.03 0.02 0.02 0.02 0.01 0.01 0.01 0.01 0.01 0.00 0.01 0.01 0.01 0.01 0.02 0.02 0.01 0.01 0.01 0.01 0.01 0.01 0.01 0.01 0.00 0.00 0.00 0.01 0.01 0.01 0.01 0.01 0.01 0.01 0.02 0.03 0.04
0.11 0.09 0.06 0.04 0.03 0.03 0.03 0.03 0.02 0.02 0.01 0.01 0.01 0.01 0.00 0.00 0.00 0.01 0.01 0.01 0.01 0.01 0.01 0.00 0.01 0.01 0.01 0.01 0.01 0.01 0.00 0.01 0.01 0.01 0.01 0.01 0.01 0.01 0.01 0.01 0.02 0.03 0.03
0.14 0.11 0.08 0.05 0.04 0.03 0.03 0.02 0.01 0.01 0.01 0.01 0.01 0.01 0.01 0.00 0.00 0.00 0.00 0.00 0.00 0.01 0.01 0.01 0.01 0.01 0.01 0.01 0.01 0.00 0.00 0.00 0.00 0.01 0.02 0.02 0.01 0.02 0.01 0.01 0.02 0.03 0.03
0.18 0.15 0.10 0.06 0.05 0.04 0.04 0.03 0.02 0.01 0.01 0.01 0.01 0.01 0.01 0.00 0.00 0.00 0.00 0.00 0.00 0.01 0.02 0.01 0.01 0.01 0.01 0.01 0.00 0.00 0.01 0.01 0.01 0.01 0.01 0.01 0.01 0.01 0.01 0.01 0.02 0.03 0.02
0.16 0.12 0.08 0.06 0.05 0.04 0.04 0.04 0.03 0.02 0.01 0.01 0.01 0.01 0.01 0.00 0.00 0.00 0.00 0.00 0.00 0.01 0.02 0.01 0.01 0.01 0.01 0.01 0.01 0.01 0.01 0.02 0.01 0.01 0.01 0.01 0.01 0.01 0.01 0.01 0.02 0.02 0.02
0.10 0.10 0.07 0.05 0.04 0.02 0.02 0.02 0.02 0.01 0.01 0.01 0.01 0.01 0.01 0.00 0.00 0.00 0.01 0.01 0.01 0.01 0.02 0.01 0.01 0.01 0.01 0.01 0.01 0.01 0.01 0.02 0.03 0.01 0.01 0.01 0.01 0.01 0.01 0.01 0.01 0.01 0.02
0.06 0.07 0.05 0.04 0.03 0.02 0.01 0.01 0.01 0.01 0.01 0.01 0.01 0.01 0.01 0.00 0.00 0.01 0.01 0.01 0.02 0.02 0.03 0.03 0.02 0.01 0.01 0.01 0.01 0.01 0.01 0.02 0.01 0.01 0.01 0.00 0.00 0.01 0.01 0.01 0.01 0.01 0.02
0.06 0.05 0.04 0.04 0.03 0.03 0.02 0.02 0.02 0.01 0.01 0.01 0.01 0.01 0.01 0.01 0.01 0.01 0.01 0.02 0.02 0.03 0.03 0.03 0.03 0.01 0.01 0.00 0.01 0.01 0.01 0.01 0.01 0.01 0.00 0.00 0.00 0.00 0.00 0.01 0.01 0.01 0.01
0.04 0.03 0.03 0.03 0.03 0.03 0.03 0.03 0.02 0.02 0.02 0.01 0.01 0.01 0.01 0.01 0.01 0.01 0.02 0.02 0.01 0.02 0.03 0.03 0.02 0.01 0.01 0.01 0.01 0.02 0.02 0.02 0.03 0.02 0.01 0.01 0.00 0.00 0.00 0.01 0.01 0.01 0.01
0.05 0.03 0.02 0.02 0.02 0.02 0.03 0.03 0.03 0.02 0.02 0.02 0.01 0.01 0.01 0.01 0.01 0.01 0.01 0.02 0.01 0.01 0.02 0.03 0.02 0.01 0.01 0.01 0.01 0.04 0.03 0.03 0.04 0.03 0.02 0.01 0.01 0.00 0.01 0.01 0.01 0.01 0.01
0.05 0.03 0.02 0.01 0.01 0.01 0.02 0.02 0.03 0.02 0.01 0.01 0.01 0.01 0.01 0.01 0.01 0.01 0.01 0.01 0.01 0.01 0.01 0.01 0.01 0.01 0.01 0.01 0.01 0.04 0.05 0.03 0.04 0.04 0.03 0.02 0.02 0.01 0.01 0.02 0.02 0.02 0.02
0.02 0.03 0.03 0.02 0.02 0.02 0.02 0.02 0.02 0.02 0.01 0.01 0.01 0.02 0.01 0.01 0.01 0.01 0.01 0.01 0.01 0.01 0.02 0.01 0.00 0.01 0.01 0.02 0.02 0.03 0.04 0.03 0.03 0.05 0.05 0.04 0.03 0.02 0.02 0.03 0.03 0.03 0.03
0.02 0.02 0.04 0.04 0.03 0.02 0.02 0.02 0.02 0.02 0.02 0.02 0.02 0.02 0.02 0.01 0.01 0.01 0.01 0.01 0.01 0.01 0.01 0.01 0.01 0.01 0.01 0.01 0.02 0.02 0.03 0.03 0.04 0.04 0.04 0.04 0.04 0.03 0.04 0.04 0.05 0.04 0.03
0.02 0.02 0.02 0.04 0.03 0.02 0.02 0.02 0.02 0.03 0.04 0.05 0.05 0.03 0.02 0.01 0.01 0.01 0.00 0.00 0.00 0.01 0.01 0.01 0.01 0.00 0.00 0.00 0.00 0.01 0.01 0.03 0.03 0.03 0.03 0.03 0.03 0.04 0.05 0.05 0.05 0.04 0.03
0.01 0.01 0.01 0.02 0.01 0.01 0.01 0.01 0.02 0.03 0.04 0.04 0.03 0.02 0.01 0.00 0.00 0.00 0.00 0.00 0.00 0.00 0.00 0.00 0.00 0.00 0.00 0.00 0.00 0.00 0.01 0.01 0.02 0.02 0.02 0.02 0.02 0.03 0.03 0.03 0.03 0.02 0.02
0.01 0.01 0.01 0.01 0.01 0.01 0.01 0.00 0.01 0.01 0.01 0.01 0.01 0.01 0.01 0.00 0.00 0.00 0.00 0.00 0.00 0.00 0.00 0.00 0.01 0.01 0.01 0.00 0.00 0.00 0.00 0.00 0.00 0.01 0.01 0.01 0.01 0.01 0.01 0.02 0.02 0.01 0.01

GEFSMW_prec_meanprec_150.txt.gz
QPF
0.07 0.07 0.06 0.06 0.08 0.11 0.12 0.08 0.06 0.06 0.05 0.04 0.03 0.02 0.03 0.04 0.06 0.06 0.09 0.10 0.07 0.06 0.06 0.05 0.05 0.06 0.06 0.08 0.11 0.12 0.14 0.15 0.13 0.13 0.12 0.09 0.07 0.06 0.04 0.04 0.04 0.04 0.05
0.08 0.07 0.06 0.06 0.05 0.06 0.06 0.06 0.05 0.05 0.04 0.03 0.04 0.05 0.04 0.04 0.07 0.07 0.08 0.08 0.06 0.05 0.05 0.05 0.06 0.08 0.08 0.09 0.10 0.11 0.13 0.14 0.13 0.11 0.13 0.10 0.07 0.05 0.05 0.04 0.04 0.04 0.04
0.07 0.07 0.05 0.04 0.03 0.04 0.04 0.04 0.04 0.03 0.02 0.03 0.05 0.07 0.04 0.03 0.05 0.05 0.05 0.06 0.06 0.07 0.07 0.06 0.07 0.06 0.06 0.07 0.08 0.09 0.11 0.11 0.10 0.10 0.11 0.11 0.08 0.04 0.04 0.04 0.04 0.03 0.03
0.08 0.07 0.05 0.04 0.04 0.04 0.04 0.03 0.03 0.03 0.03 0.04 0.07 0.07 0.04 0.04 0.05 0.05 0.04 0.03 0.03 0.06 0.07 0.06 0.05 0.03 0.03 0.05 0.06 0.06 0.09 0.10 0.08 0.08 0.10 0.09 0.08 0.07 0.05 0.03 0.02 0.02 0.02
0.09 0.08 0.06 0.05 0.04 0.04 0.04 0.03 0.03 0.03 0.03 0.05 0.07 0.04 0.03 0.03 0.03 0.04 0.04 0.03 0.02 0.03 0.04 0.04 0.04 0.03 0.03 0.03 0.04 0.05 0.06 0.07 0.06 0.05 0.06 0.08 0.07 0.06 0.06 0.03 0.02 0.02 0.01
0.11 0.09 0.07 0.06 0.05 0.03 0.03 0.03 0.03 0.04 0.04 0.04 0.05 0.05 0.03 0.02 0.02 0.02 0.01 0.01 0.02 0.01 0.01 0.02 0.02 0.03 0.03 0.03 0.02 0.03 0.04 0.05 0.05 0.04 0.04 0.04 0.05 0.06 0.05 0.03 0.02 0.01 0.01
0.14 0.11 0.09 0.08 0.07 0.04 0.04 0.04 0.04 0.04 0.03 0.03 0.04 0.05 0.06 0.04 0.03 0.02 0.01 0.01 0.01 0.01 0.01 0.01 0.02 0.04 0.04 0.04 0.03 0.04 0.04 0.03 0.03 0.03 0.03 0.03 0.03 0.03 0.03 0.03 0.02 0.01 0.01
0.17 0.14 0.13 0.12 0.09 0.06 0.06 0.06 0.05 0.03 0.02 0.02 0.03 0.04 0.06 0.04 0.03 0.02 0.01 0.01 0.01 0.01 0.01 0.01 0.01 0.02 0.04 0.05 0.06 0.05 0.04 0.03 0.03 0.02 0.02 0.02 0.02 0.02 0.02 0.02 0.02 0.02 0.02
0.12 0.13 0.13 0.12 0.08 0.06 0.06 0.05 0.04 0.03 0.02 0.02 0.02 0.02 0.02 0.02 0.03 0.01 0.01 0.01 0.01 0.01 0.01 0.02 0.02 0.02 0.03 0.05 0.07 0.06 0.04 0.03 0.02 0.01 0.01 0.01 0.01 0.01 0.01 0.02 0.02 0.02 0.02
0.07 0.09 0.11 0.10 0.08 0.06 0.05 0.05 0.05 0.03 0.03 0.03 0.02 0.01 0.01 0.01 0.01 0.01 0.01 0.02 0.02 0.02 0.01 0.02 0.01 0.01 0.01 0.02 0.04 0.05 0.04 0.03 0.01 0.01 0.00 0.00 0.00 0.01 0.01 0.01 0.02 0.02 0.02
0.05 0.07 0.09 0.09 0.09 0.08 0.08 0.07 0.06 0.04 0.04 0.04 0.03 0.02 0.02 0.01 0.01 0.01 0.01 0.01 0.02 0.03 0.02 0.01 0.01 0.01 0.01 0.01 0.02 0.03 0.03 0.02 0.01 0.00 0.00 0.00 0.00 0.00 0.00 0.01 0.02 0.02 0.02
0.04 0.05 0.05 0.06 0.06 0.05 0.05 0.04 0.04 0.04 0.04 0.03 0.03 0.02 0.02 0.01 0.01 0.01 0.01 0.01 0.01 0.02 0.02 0.02 0.01 0.01 0.01 0.01 0.01 0.01 0.01 0.01 0.01 0.00 0.00 0.00 0.01 0.01 0.00 0.00 0.01 0.03 0.03
0.05 0.05 0.05 0.06 0.05 0.04 0.03 0.02 0.02 0.02 0.02 0.01 0.01 0.01 0.01 0.01 0.01 0.01 0.01 0.01 0.01 0.01 0.01 0.02 0.02 0.01 0.01 0.01 0.01 0.01 0.01 0.01 0.01 0.00 0.01 0.01 0.01 0.01 0.01 0.01 0.01 0.03 0.03
0.05 0.05 0.05 0.06 0.05 0.04 0.02 0.03 0.03 0.03 0.02 0.02 0.02 0.02 0.02 0.01 0.01 0.01 0.01 0.01 0.01 0.01 0.01 0.01 0.01 0.01 0.01 0.02 0.02 0.01 0.01 0.01 0.01 0.00 0.01 0.01 0.01 0.01 0.01 0.01 0.01 0.02 0.03
0.05 0.06 0.05 0.06 0.05 0.04 0.03 0.03 0.04 0.04 0.04 0.02 0.02 0.01 0.01 0.01 0.01 0.00 0.00 0.00 0.01 0.01 0.01 0.01 0.01 0.02 0.02 0.01 0.01 0.01 0.01 0.01 0.01 0.00 0.00 0.01 0.01 0.02 0.02 0.02 0.02 0.02 0.03
0.05 0.07 0.06 0.05 0.05 0.05 0.05 0.05 0.05 0.04 0.03 0.02 0.02 0.01 0.01 0.01 0.01 0.00 0.00 0.00 0.01 0.02 0.01 0.01 0.03 0.04 0.02 0.02 0.02 0.02 0.01 0.01 0.01 0.01 0.01 0.01 0.01 0.02 0.03 0.03 0.03 0.03 0.02
0.03 0.04 0.04 0.05 0.05 0.06 0.07 0.06 0.04 0.02 0.02 0.02 0.02 0.03 0.03 0.02 0.01 0.00 0.00 0.01 0.02 0.02 0.02 0.02 0.05 0.06 0.04 0.02 0.01 0.02 0.02 0.02 0.01 0.00 0.00 0.01 0.01 0.01 0.02 0.02 0.02 0.02 0.02
0.02 0.03 0.04 0.04 0.05 0.05 0.05 0.04 0.03 0.02 0.01 0.01 0.01 0.01 0.01 0.01 0.01 0.01 0.01 0.01 0.02 0.02 0.02 0.04 0.06 0.07 0.05 0.03 0.02 0.02 0.03 0.01 0.01 0.01 0.01 0.01 0.01 0.01 0.01 0.01 0.01 0.01 0.02
0.02 0.03 0.04 0.04 0.03 0.04 0.03 0.04 0.02 0.02 0.01 0.01 0.01 0.01 0.01 0.01 0.01 0.01 0.01 0.02 0.02 0.01 0.02 0.04 0.06 0.06 0.05 0.03 0.02 0.03 0.02 0.01 0.01 0.02 0.02 0.01 0.01 0.01 0.01 0.00 0.01 0.01 0.02
0.05 0.06 0.07 0.06 0.04 0.05 0.05 0.04 0.03 0.03 0.03 0.02 0.01 0.01 0.01 0.01 0.01 0.01 0.01 0.01 0.01 0.02 0.01 0.02 0.04 0.04 0.03 0.02 0.03 0.03 0.02 0.02 0.02 0.02 0.02 0.02 0.01 0.01 0.01 0.00 0.01 0.01 0.01
0.04 0.07 0.09 0.08 0.07 0.07 0.07 0.07 0.06 0.05 0.04 0.02 0.01 0.01 0.01 0.01 0.01 0.01 0.01 0.01 0.01 0.02 0.02 0.01 0.02 0.02 0.02 0.02 0.03 0.03 0.02 0.02 0.03 0.03 0.02 0.01 0.01 0.01 0.01 0.01 0.00 0.01 0.01
0.02 0.04 0.06 0.05 0.05 0.05 0.05 0.05 0.05 0.02 0.01 0.03 0.03 0.02 0.03 0.02 0.02 0.02 0.01 0.01 0.01 0.01 0.02 0.01 0.01 0.02 0.01 0.01 0.02 0.03 0.03 0.03 0.03 0.02 0.01 0.01 0.01 0.02 0.02 0.02 0.01 0.02 0.02
0.04 0.05 0.05 0.04 0.03 0.03 0.03 0.03 0.03 0.02 0.01 0.02 0.02 0.02 0.03 0.03 0.02 0.02 0.01 0.02 0.01 0.01 0.02 0.02 0.01 0.01 0.01 0.01 0.01 0.02 0.02 0.02 0.02 0.02 0.01 0.01 0.01 0.02 0.02 0.02 0.03 0.03 0.02
0.05 0.05 0.06 0.05 0.03 0.02 0.02 0.02 0.02 0.01 0.01 0.02 0.01 0.01 0.01 0.01 0.01 0.01 0.01 0.01 0.01 0.01 0.01 0.01 0.01 0.01 0.00 0.00 0.00 0.01 0.01 0.01 0.02 0.02 0.02 0.02 0.02 0.02 0.02 0.02 0.03 0.03 0.02
0.04 0.04 0.05 0.06 0.05 0.03 0.01 0.00 0.01 0.01 0.01 0.02 0.01 0.01 0.01 0.01 0.01 0.01 0.00 0.00 0.00 0.00 0.00 0.00 0.00 0.00 0.00 0.00 0.00 0.00 0.01 0.01 0.02 0.01 0.02 0.03 0.03 0.03 0.03 0.03 0.02 0.02 0.02
0.02 0.02 0.02 0.03 0.03 0.02 0.01 0.00 0.00 0.00 0.00 0.00 0.00 0.01 0.00 0.00 0.00 0.00 0.00 0.00 0.00 0.00 0.00 0.00 0.00 0.00 0.00 0.00 0.00 0.01 0.01 0.01 0.01 0.01 0.01 0.02 0.03 0.03 0.03 0.03 0.02 0.02 0.02

GEFSMW_prec_meanprec_156.txt.gz
QPF
0.03 0.03 0.02 0.04 0.05 0.07 0.08 0.10 0.11 0.11 0.08 0.06 0.04 0.04 0.03 0.03 0.02 0.03 0.02 0.02 0.02 0.03 0.03 0.03 0.03 0.03 0.04 0.04 0.05 0.06 0.07 0.08 0.08 0.10 0.10 0.08 0.06 0.06 0.06 0.06 0.07 0.07 0.07
0.03 0.03 0.03 0.03 0.05 0.07 0.09 0.08 0.08 0.08 0.07 0.05 0.04 0.03 0.03 0.02 0.02 0.04 0.03 0.02 0.03 0.04 0.03 0.03 0.03 0.02 0.03 0.05 0.05 0.06 0.07 0.08 0.10 0.13 0.13 0.12 0.09 0.07 0.05 0.05 0.05 0.04 0.05
0.02 0.03 0.04 0.05 0.05 0.06 0.06 0.05 0.05 0.04 0.04 0.04 0.04 0.03 0.03 0.03 0.04 0.03 0.03 0.03 0.03 0.02 0.03 0.02 0.02 0.03 0.03 0.05 0.06 0.07 0.07 0.10 0.11 0.12 0.15 0.15 0.15 0.12 0.08 0.06 0.05 0.04 0.04
0.04 0.05 0.05 0.06 0.05 0.06 0.07 0.06 0.05 0.04 0.04 0.04 0.05 0.06 0.06 0.06 0.04 0.04 0.04 0.03 0.02 0.01 0.02 0.03 0.02 0.03 0.05 0.05 0.04 0.05 0.06 0.10 0.12 0.11 0.11 0.13 0.14 0.14 0.13 0.10 0.08 0.06 0.06
0.05 0.05 0.05 0.06 0.06 0.07 0.07 0.06 0.06 0.06 0.05 0.05 0.07 0.08 0.06 0.05 0.04 0.04 0.04 0.04 0.03 0.02 0.02 0.03 0.03 0.03 0.05 0.07 0.06 0.05 0.05 0.08 0.11 0.11 0.10 0.10 0.10 0.11 0.13 0.13 0.11 0.08 0.06
0.04 0.06 0.07 0.10 0.12 0.11 0.07 0.06 0.06 0.07 0.05 0.04 0.04 0.04 0.04 0.04 0.04 0.04 0.04 0.04 0.03 0.03 0.03 0.03 0.03 0.03 0.03 0.03 0.04 0.05 0.05 0.05 0.07 0.11 0.11 0.11 0.09 0.09 0.11 0.12 0.11 0.10 0.08
0.04 0.07 0.09 0.11 0.12 0.15 0.14 0.11 0.11 0.10 0.07 0.04 0.04 0.04 0.04 0.04 0.03 0.03 0.02 0.02 0.02 0.02 0.02 0.02 0.03 0.03 0.03 0.02 0.03 0.04 0.04 0.05 0.06 0.08 0.09 0.11 0.11 0.09 0.08 0.09 0.08 0.06 0.06
0.05 0.07 0.09 0.12 0.13 0.13 0.10 0.07 0.06 0.05 0.04 0.04 0.03 0.03 0.03 0.04 0.04 0.04 0.02 0.02 0.02 0.02 0.01 0.02 0.02 0.02 0.02 0.01 0.03 0.04 0.05 0.06 0.07 0.07 0.07 0.08 0.09 0.08 0.07 0.07 0.07 0.05 0.04
0.04 0.04 0.06 0.07 0.08 0.06 0.05 0.04 0.04 0.03 0.03 0.02 0.02 0.02 0.03 0.03 0.02 0.02 0.02 0.01 0.02 0.01 0.01 0.02 0.02 0.02 0.01 0.01 0.02 0.03 0.04 0.06 0.07 0.06 0.05 0.06 0.06 0.05 0.05 0.05 0.06 0.06 0.06
0.02 0.03 0.03 0.03 0.03 0.03 0.03 0.04 0.04 0.03 0.03 0.03 0.02 0.03 0.03 0.02 0.02 0.02 0.02 0.01 0.01 0.01 0.01 0.02 0.02 0.02 0.02 0.02 0.02 0.02 0.04 0.05 0.06 0.05 0.04 0.04 0.03 0.03 0.02 0.03 0.04 0.06 0.06
0.02 0.02 0.02 0.02 0.02 0.03 0.03 0.03 0.03 0.03 0.04 0.04 0.04 0.04 0.03 0.02 0.02 0.02 0.02 0.02 0.02 0.02 0.02 0.02 0.02 0.02 0.01 0.01 0.02 0.02 0.02 0.03 0.04 0.04 0.03 0.03 0.02 0.02 0.02 0.02 0.03 0.05 0.05
0.01 0.01 0.01 0.01 0.01 0.01 0.01 0.01 0.01 0.02 0.02 0.03 0.03 0.02 0.02 0.01 0.02 0.02 0.02 0.02 0.02 0.02 0.02 0.02 0.02 0.02 0.02 0.01 0.01 0.01 0.01 0.02 0.03 0.03 0.03 0.02 0.01 0.02 0.03 0.02 0.02 0.03 0.04
0.02 0.02 0.01 0.01 0.01 0.01 0.01 0.02 0.02 0.02 0.02 0.03 0.04 0.03 0.02 0.02 0.03 0.03 0.03 0.03 0.02 0.01 0.01 0.02 0.02 0.02 0.02 0.01 0.01 0.01 0.01 0.01 0.02 0.02 0.02 0.02 0.02 0.02 0.02 0.02 0.02 0.02 0.03
0.02 0.03 0.02 0.01 0.01 0.01 0.02 0.03 0.02 0.02 0.03 0.04 0.04 0.04 0.03 0.03 0.03 0.03 0.03 0.03 0.02 0.02 0.02 0.02 0.02 0.02 0.02 0.03 0.03 0.02 0.02 0.01 0.02 0.02 0.02 0.02 0.02 0.02 0.02 0.02 0.02 0.02 0.02
0.02 0.02 0.02 0.02 0.01 0.01 0.02 0.03 0.02 0.02 0.03 0.04 0.03 0.03 0.03 0.02 0.01 0.01 0.01 0.01 0.02 0.02 0.02 0.01 0.02 0.02 0.02 0.03 0.05 0.04 0.03 0.03 0.02 0.02 0.02 0.01 0.01 0.02 0.02 0.02 0.02 0.02 0.03
0.01 0.02 0.03 0.02 0.02 0.02 0.02 0.02 0.02 0.02 0.03 0.04 0.03 0.04 0.04 0.03 0.01 0.01 0.01 0.01 0.01 0.02 0.01 0.01 0.01 0.03 0.03 0.06 0.06 0.05 0.05 0.04 0.03 0.02 0.02 0.01 0.01 0.01 0.01 0.01 0.01 0.02 0.03
0.01 0.02 0.03 0.03 0.02 0.02 0.02 0.03 0.03 0.03 0.03 0.03 0.04 0.03 0.03 0.02 0.02 0.01 0.01 0.01 0.02 0.02 0.02 0.01 0.01 0.04 0.06 0.06 0.06 0.04 0.03 0.03 0.02 0.02 0.02 0.01 0.00 0.01 0.01 0.01 0.01 0.01 0.02
0.01 0.01 0.02 0.04 0.03 0.03 0.03 0.04 0.04 0.04 0.03 0.03 0.04 0.04 0.02 0.02 0.02 0.02 0.02 0.02 0.02 0.02 0.02 0.02 0.02 0.05 0.07 0.06 0.04 0.03 0.02 0.02 0.02 0.02 0.02 0.02 0.01 0.01 0.01 0.01 0.01 0.02 0.02
0.01 0.02 0.02 0.03 0.03 0.03 0.03 0.04 0.05 0.05 0.04 0.03 0.04 0.03 0.02 0.02 0.02 0.02 0.02 0.03 0.03 0.03 0.03 0.04 0.05 0.06 0.06 0.06 0.05 0.03 0.03 0.03 0.02 0.02 0.02 0.02 0.02 0.01 0.02 0.02 0.02 0.02 0.02
0.02 0.02 0.02 0.03 0.03 0.03 0.03 0.04 0.05 0.04 0.04 0.04 0.04 0.04 0.03 0.02 0.02 0.03 0.04 0.03 0.03 0.04 0.03 0.04 0.04 0.04 0.05 0.05 0.04 0.04 0.04 0.03 0.03 0.02 0.02 0.01 0.01 0.01 0.02 0.02 0.02 0.02 0.01
0.03 0.03 0.03 0.04 0.04 0.03 0.04 0.06 0.06 0.04 0.04 0.04 0.04 0.04 0.04 0.03 0.03 0.03 0.03 0.03 0.03 0.02 0.03 0.03 0.03 0.04 0.05 0.04 0.02 0.03 0.04 0.03 0.02 0.02 0.01 0.00 0.01 0.01 0.01 0.01 0.01 0.01 0.01
0.04 0.05 0.05 0.05 0.04 0.05 0.04 0.06 0.06 0.04 0.03 0.03 0.03 0.03 0.03 0.03 0.03 0.03 0.03 0.02 0.02 0.02 0.03 0.02 0.02 0.02 0.03 0.03 0.01 0.01 0.03 0.02 0.02 0.02 0.01 0.00 0.01 0.01 0.01 0.01 0.01 0.01 0.01
0.02 0.04 0.06 0.05 0.06 0.06 0.04 0.06 0.07 0.05 0.03 0.02 0.02 0.01 0.01 0.02 0.03 0.03 0.03 0.03 0.02 0.02 0.02 0.02 0.01 0.02 0.01 0.01 0.01 0.01 0.01 0.02 0.02 0.01 0.01 0.01 0.01 0.01 0.01 0.01 0.01 0.01 0.02
0.03 0.03 0.05 0.05 0.07 0.06 0.04 0.05 0.04 0.04 0.03 0.02 0.01 0.01 0.01 0.01 0.01 0.01 0.01 0.01 0.02 0.02 0.01 0.01 0.01 0.01 0.01 0.00 0.00 0.01 0.02 0.02 0.03 0.01 0.00 0.01 0.01 0.01 0.01 0.02 0.02 0.03 0.03
0.02 0.03 0.04 0.05 0.06 0.05 0.04 0.04 0.03 0.03 0.02 0.02 0.01 0.01 0.01 0.01 0.01 0.01 0.01 0.01 0.01 0.01 0.01 0.01 0.00 0.00 0.00 0.00 0.00 0.00 0.01 0.02 0.02 0.02 0.01 0.01 0.02 0.02 0.02 0.03 0.04 0.04 0.03
0.02 0.03 0.04 0.04 0.05 0.06 0.05 0.04 0.03 0.01 0.01 0.00 0.00 0.00 0.00 0.00 0.01 0.00 0.00 0.00 0.00 0.00 0.00 0.00 0.00 0.00 0.00 0.00 0.00 0.00 0.00 0.00 0.01 0.01 0.02 0.02 0.02 0.02 0.03 0.04 0.04 0.03 0.03

GEFSMW_prec_meanprec_162.txt.gz
QPF
0.05 0.05 0.08 0.07 0.07 0.06 0.07 0.07 0.06 0.09 0.09 0.09 0.08 0.09 0.10 0.08 0.07 0.07 0.07 0.05 0.05 0.05 0.06 0.07 0.09 0.08 0.08 0.08 0.08 0.08 0.08 0.10 0.12 0.10 0.09 0.08 0.07 0.08 0.09 0.09 0.10 0.09 0.11
0.02 0.02 0.02 0.03 0.03 0.05 0.05 0.06 0.06 0.07 0.08 0.10 0.12 0.12 0.11 0.09 0.10 0.10 0.11 0.08 0.06 0.06 0.06 0.08 0.09 0.09 0.09 0.09 0.08 0.09 0.08 0.09 0.11 0.12 0.11 0.09 0.08 0.07 0.08 0.08 0.08 0.08 0.08
0.02 0.01 0.01 0.02 0.03 0.03 0.04 0.05 0.05 0.06 0.08 0.09 0.10 0.09 0.09 0.08 0.10 0.11 0.10 0.08 0.06 0.05 0.05 0.05 0.06 0.08 0.08 0.08 0.07 0.08 0.08 0.09 0.11 0.12 0.13 0.13 0.11 0.11 0.09 0.08 0.07 0.07 0.07
0.03 0.02 0.01 0.02 0.03 0.04 0.04 0.04 0.06 0.07 0.08 0.09 0.10 0.10 0.10 0.10 0.10 0.08 0.08 0.07 0.06 0.04 0.03 0.03 0.04 0.05 0.07 0.08 0.06 0.06 0.07 0.07 0.09 0.11 0.11 0.11 0.12 0.11 0.11 0.11 0.09 0.07 0.07
0.03 0.03 0.02 0.03 0.04 0.05 0.05 0.05 0.06 0.06 0.07 0.09 0.10 0.11 0.10 0.10 0.09 0.08 0.07 0.06 0.06 0.05 0.04 0.05 0.05 0.05 0.06 0.06 0.06 0.06 0.07 0.07 0.07 0.08 0.09 0.09 0.10 0.10 0.10 0.10 0.12 0.09 0.08
0.03 0.03 0.02 0.02 0.05 0.06 0.06 0.06 0.06 0.07 0.08 0.08 0.08 0.08 0.09 0.09 0.09 0.09 0.09 0.08 0.09 0.08 0.07 0.05 0.05 0.05 0.05 0.04 0.04 0.05 0.06 0.07 0.08 0.08 0.09 0.08 0.08 0.08 0.09 0.09 0.10 0.09 0.08
0.05 0.04 0.04 0.04 0.04 0.05 0.06 0.06 0.07 0.08 0.09 0.08 0.07 0.07 0.07 0.08 0.10 0.12 0.13 0.11 0.09 0.08 0.07 0.06 0.06 0.06 0.05 0.04 0.05 0.06 0.07 0.07 0.07 0.07 0.07 0.08 0.10 0.11 0.11 0.11 0.11 0.09 0.07
0.08 0.06 0.05 0.03 0.03 0.03 0.04 0.06 0.07 0.07 0.08 0.09 0.08 0.08 0.09 0.08 0.10 0.13 0.13 0.11 0.09 0.08 0.07 0.06 0.06 0.05 0.05 0.05 0.07 0.07 0.07 0.06 0.06 0.06 0.07 0.08 0.08 0.10 0.11 0.12 0.13 0.11 0.07
0.05 0.05 0.04 0.03 0.02 0.02 0.03 0.04 0.05 0.07 0.07 0.07 0.08 0.08 0.08 0.08 0.08 0.08 0.08 0.07 0.06 0.06 0.05 0.04 0.04 0.04 0.05 0.05 0.05 0.06 0.05 0.05 0.05 0.06 0.07 0.07 0.07 0.08 0.10 0.11 0.12 0.12 0.09
0.06 0.09 0.06 0.04 0.02 0.02 0.02 0.03 0.05 0.05 0.06 0.05 0.05 0.05 0.06 0.06 0.06 0.07 0.06 0.06 0.07 0.06 0.05 0.04 0.04 0.03 0.04 0.04 0.05 0.05 0.04 0.04 0.05 0.05 0.06 0.06 0.06 0.08 0.09 0.10 0.10 0.10 0.10
0.03 0.05 0.04 0.03 0.02 0.02 0.02 0.02 0.02 0.02 0.02 0.03 0.03 0.03 0.05 0.05 0.06 0.06 0.06 0.06 0.05 0.04 0.03 0.03 0.03 0.03 0.03 0.04 0.05 0.04 0.02 0.02 0.03 0.05 0.06 0.07 0.07 0.09 0.11 0.09 0.08 0.08 0.09
0.02 0.03 0.03 0.03 0.03 0.02 0.01 0.01 0.01 0.01 0.02 0.03 0.03 0.03 0.02 0.03 0.04 0.05 0.04 0.04 0.03 0.03 0.03 0.02 0.02 0.02 0.03 0.03 0.03 0.03 0.01 0.01 0.02 0.04 0.06 0.06 0.07 0.07 0.07 0.07 0.06 0.07 0.08
0.02 0.02 0.02 0.03 0.04 0.03 0.02 0.01 0.01 0.02 0.01 0.01 0.03 0.04 0.04 0.04 0.04 0.05 0.05 0.05 0.05 0.04 0.03 0.02 0.02 0.02 0.03 0.03 0.03 0.03 0.02 0.01 0.02 0.03 0.05 0.05 0.05 0.06 0.06 0.06 0.06 0.07 0.07
0.02 0.02 0.03 0.04 0.05 0.04 0.02 0.01 0.01 0.02 0.01 0.01 0.02 0.04 0.05 0.05 0.05 0.05 0.04 0.05 0.04 0.04 0.03 0.02 0.02 0.02 0.02 0.02 0.02 0.03 0.03 0.02 0.02 0.02 0.03 0.03 0.04 0.06 0.06 0.06 0.07 0.06 0.07
0.02 0.02 0.03 0.04 0.04 0.04 0.03 0.02 0.02 0.01 0.01 0.02 0.02 0.03 0.04 0.04 0.03 0.03 0.03 0.03 0.03 0.03 0.03 0.03 0.03 0.02 0.02 0.02 0.02 0.02 0.04 0.04 0.03 0.03 0.03 0.02 0.02 0.02 0.03 0.03 0.05 0.05 0.06
0.02 0.03 0.03 0.04 0.05 0.05 0.04 0.03 0.01 0.01 0.02 0.03 0.02 0.02 0.03 0.03 0.02 0.02 0.03 0.03 0.03 0.03 0.03 0.03 0.03 0.03 0.02 0.01 0.02 0.02 0.05 0.07 0.05 0.04 0.03 0.02 0.02 0.02 0.02 0.02 0.02 0.03 0.04
0.02 0.03 0.04 0.04 0.05 0.07 0.06 0.03 0.02 0.02 0.02 0.02 0.03 0.03 0.03 0.04 0.03 0.03 0.04 0.05 0.04 0.03 0.03 0.03 0.03 0.03 0.02 0.01 0.01 0.03 0.04 0.04 0.04 0.03 0.04 0.03 0.03 0.02 0.02 0.02 0.01 0.02 0.02
0.01 0.02 0.04 0.05 0.05 0.06 0.07 0.05 0.02 0.01 0.02 0.02 0.03 0.03 0.03 0.04 0.04 0.04 0.04 0.04 0.04 0.04 0.04 0.03 0.04 0.03 0.03 0.02 0.02 0.03 0.02 0.03 0.02 0.02 0.03 0.03 0.04 0.02 0.02 0.02 0.02 0.03 0.02
0.02 0.03 0.04 0.06 0.07 0.05 0.06 0.06 0.03 0.02 0.02 0.03 0.03 0.03 0.03 0.04 0.04 0.04 0.04 0.04 0.04 0.04 0.05 0.04 0.05 0.05 0.04 0.02 0.01 0.02 0.03 0.04 0.04 0.03 0.02 0.03 0.04 0.02 0.02 0.02 0.03 0.03 0.04
0.02 0.03 0.04 0.05 0.06 0.06 0.06 0.06 0.04 0.03 0.03 0.02 0.02 0.03 0.03 0.04 0.06 0.05 0.05 0.04 0.03 0.03 0.04 0.04 0.05 0.04 0.04 0.03 0.02 0.01 0.02 0.04 0.05 0.05 0.04 0.03 0.03 0.02 0.02 0.02 0.03 0.03 0.03
0.02 0.03 0.04 0.06 0.06 0.06 0.06 0.06 0.05 0.03 0.02 0.02 0.02 0.02 0.02 0.04 0.05 0.05 0.04 0.04 0.04 0.03 0.04 0.04 0.04 0.03 0.03 0.03 0.02 0.02 0.03 0.03 0.03 0.04 0.04 0.02 0.01 0.01 0.01 0.02 0.03 0.03 0.02
0.02 0.03 0.03 0.05 0.06 0.07 0.07 0.06 0.05 0.04 0.04 0.03 0.03 0.02 0.02 0.02 0.02 0.04 0.04 0.04 0.04 0.04 0.03 0.04 0.04 0.03 0.03 0.02 0.02 0.01 0.02 0.02 0.03 0.04 0.02 0.00 0.00 0.00 0.01 0.01 0.02 0.03 0.03
0.04 0.05 0.05 0.06 0.07 0.08 0.06 0.04 0.04 0.05 0.06 0.06 0.04 0.03 0.02 0.01 0.01 0.02 0.01 0.02 0.02 0.02 0.02 0.02 0.03 0.03 0.03 0.02 0.01 0.01 0.01 0.00 0.02 0.02 0.01 0.00 0.00 0.01 0.01 0.01 0.01 0.02 0.03
0.04 0.04 0.04 0.04 0.04 0.04 0.04 0.05 0.05 0.05 0.06 0.05 0.04 0.03 0.02 0.01 0.01 0.01 0.01 0.01 0.01 0.01 0.01 0.01 0.02 0.02 0.02 0.01 0.01 0.01 0.01 0.01 0.01 0.01 0.01 0.01 0.01 0.01 0.01 0.01 0.01 0.02 0.02
0.03 0.03 0.03 0.03 0.02 0.02 0.03 0.04 0.05 0.05 0.05 0.05 0.04 0.03 0.02 0.01 0.01 0.00 0.00 0.00 0.00 0.00 0.00 0.00 0.00 0.01 0.00 0.00 0.00 0.00 0.01 0.01 0.01 0.01 0.01 0.02 0.03 0.03 0.03 0.03 0.03 0.02 0.02
0.02 0.02 0.02 0.02 0.01 0.02 0.03 0.04 0.04 0.04 0.03 0.03 0.02 0.02 0.01 0.01 0.01 0.00 0.00 0.00 0.00 0.00 0.00 0.00 0.00 0.00 0.00 0.00 0.00 0.00 0.00 0.00 0.01 0.01 0.01 0.03 0.04 0.04 0.05 0.05 0.05 0.03 0.03

GEFSMW_prec_meanprec_168.txt.gz
QPF
0.18 0.18 0.15 0.14 0.14 0.13 0.10 0.07 0.06 0.04 0.04 0.04 0.05 0.05 0.05 0.05 0.05 0.04 0.04 0.05 0.06 0.06 0.05 0.05 0.05 0.06 0.06 0.06 0.08 0.08 0.07 0.07 0.07 0.06 0.05 0.04 0.04 0.09 0.13 0.15 0.14 0.13 0.10
0.24 0.19 0.18 0.12 0.10 0.07 0.05 0.04 0.03 0.02 0.03 0.04 0.05 0.05 0.05 0.05 0.05 0.03 0.04 0.06 0.08 0.08 0.06 0.05 0.05 0.06 0.06 0.06 0.08 0.09 0.09 0.07 0.07 0.06 0.05 0.04 0.04 0.06 0.10 0.13 0.12 0.13 0.15
0.21 0.21 0.17 0.11 0.08 0.07 0.05 0.05 0.05 0.04 0.03 0.03 0.04 0.04 0.04 0.03 0.03 0.03 0.04 0.08 0.10 0.09 0.08 0.08 0.07 0.08 0.08 0.07 0.08 0.07 0.06 0.05 0.06 0.08 0.06 0.05 0.03 0.03 0.05 0.09 0.11 0.10 0.11
0.20 0.16 0.13 0.11 0.08 0.10 0.08 0.09 0.08 0.05 0.04 0.04 0.04 0.04 0.05 0.06 0.06 0.07 0.08 0.09 0.08 0.08 0.09 0.10 0.11 0.12 0.12 0.09 0.08 0.07 0.06 0.05 0.04 0.05 0.06 0.06 0.04 0.03 0.03 0.05 0.10 0.11 0.10
0.18 0.18 0.15 0.10 0.13 0.15 0.10 0.08 0.06 0.05 0.04 0.03 0.03 0.04 0.04 0.05 0.06 0.06 0.07 0.10 0.10 0.10 0.10 0.10 0.13 0.13 0.10 0.08 0.07 0.06 0.07 0.06 0.05 0.04 0.04 0.04 0.04 0.04 0.03 0.03 0.05 0.07 0.07
0.16 0.18 0.13 0.14 0.20 0.14 0.07 0.05 0.05 0.05 0.05 0.05 0.04 0.04 0.05 0.05 0.04 0.06 0.07 0.08 0.09 0.10 0.11 0.11 0.11 0.11 0.09 0.08 0.07 0.07 0.07 0.06 0.06 0.05 0.05 0.04 0.04 0.04 0.04 0.03 0.04 0.05 0.06
0.13 0.14 0.14 0.11 0.13 0.10 0.06 0.04 0.05 0.06 0.06 0.06 0.06 0.07 0.07 0.06 0.06 0.07 0.07 0.09 0.12 0.14 0.14 0.10 0.09 0.07 0.07 0.07 0.07 0.06 0.06 0.05 0.05 0.05 0.05 0.04 0.03 0.04 0.04 0.04 0.05 0.05 0.06
0.09 0.10 0.09 0.11 0.13 0.07 0.05 0.05 0.05 0.06 0.06 0.05 0.05 0.05 0.05 0.05 0.05 0.05 0.06 0.08 0.09 0.08 0.08 0.07 0.07 0.06 0.07 0.06 0.06 0.05 0.04 0.04 0.03 0.03 0.03 0.03 0.03 0.04 0.03 0.04 0.04 0.05 0.05
0.11 0.14 0.14 0.09 0.07 0.05 0.05 0.04 0.05 0.05 0.04 0.04 0.03 0.04 0.04 0.03 0.03 0.03 0.03 0.03 0.04 0.03 0.04 0.06 0.09 0.08 0.07 0.06 0.05 0.04 0.04 0.03 0.02 0.02 0.02 0.01 0.02 0.03 0.03 0.03 0.03 0.05 0.05
0.10 0.12 0.17 0.10 0.07 0.06 0.04 0.03 0.04 0.03 0.03 0.04 0.03 0.02 0.02 0.02 0.02 0.02 0.02 0.03 0.03 0.03 0.04 0.06 0.06 0.06 0.06 0.06 0.05 0.04 0.03 0.03 0.02 0.02 0.02 0.02 0.02 0.02 0.04 0.04 0.05 0.05 0.05
0.06 0.07 0.07 0.08 0.07 0.06 0.05 0.04 0.03 0.03 0.03 0.02 0.01 0.01 0.01 0.01 0.02 0.01 0.02 0.02 0.02 0.02 0.03 0.04 0.05 0.05 0.07 0.07 0.06 0.05 0.04 0.03 0.02 0.02 0.02 0.02 0.02 0.02 0.03 0.05 0.05 0.06 0.06
0.08 0.06 0.05 0.05 0.03 0.03 0.03 0.03 0.03 0.02 0.02 0.02 0.01 0.01 0.01 0.01 0.01 0.01 0.01 0.01 0.02 0.02 0.03 0.04 0.04 0.05 0.04 0.04 0.05 0.05 0.03 0.03 0.02 0.02 0.02 0.02 0.02 0.03 0.03 0.04 0.05 0.05 0.05
0.08 0.06 0.05 0.03 0.03 0.02 0.03 0.03 0.03 0.03 0.03 0.03 0.02 0.01 0.01 0.01 0.01 0.01 0.01 0.01 0.01 0.02 0.03 0.02 0.02 0.03 0.02 0.02 0.03 0.02 0.01 0.01 0.01 0.01 0.01 0.01 0.02 0.02 0.03 0.04 0.05 0.05 0.06
0.04 0.03 0.03 0.03 0.03 0.03 0.03 0.03 0.03 0.03 0.02 0.02 0.02 0.01 0.00 0.01 0.01 0.01 0.01 0.01 0.01 0.02 0.02 0.02 0.02 0.02 0.02 0.02 0.01 0.01 0.00 0.01 0.01 0.01 0.01 0.01 0.01 0.02 0.02 0.04 0.05 0.06 0.05
0.03 0.02 0.02 0.02 0.02 0.03 0.03 0.04 0.04 0.03 0.02 0.02 0.02 0.01 0.01 0.01 0.01 0.01 0.02 0.02 0.01 0.01 0.01 0.01 0.01 0.01 0.01 0.01 0.01 0.01 0.01 0.01 0.01 0.01 0.00 0.00 0.01 0.02 0.03 0.04 0.04 0.05 0.05
0.02 0.02 0.03 0.03 0.02 0.02 0.03 0.03 0.04 0.03 0.03 0.03 0.02 0.02 0.02 0.02 0.02 0.02 0.02 0.02 0.01 0.01 0.00 0.01 0.01 0.01 0.01 0.01 0.01 0.02 0.01 0.02 0.02 0.01 0.01 0.00 0.00 0.01 0.02 0.02 0.02 0.03 0.03
0.01 0.01 0.02 0.01 0.01 0.02 0.03 0.03 0.04 0.05 0.05 0.03 0.03 0.03 0.02 0.02 0.02 0.01 0.01 0.01 0.01 0.01 0.00 0.00 0.01 0.01 0.01 0.01 0.01 0.01 0.01 0.02 0.02 0.02 0.01 0.01 0.00 0.01 0.02 0.02 0.01 0.02 0.02
0.01 0.01 0.01 0.01 0.01 0.01 0.03 0.04 0.05 0.06 0.06 0.04 0.04 0.04 0.03 0.02 0.02 0.02 0.01 0.01 0.01 0.01 0.01 0.01 0.01 0.01 0.01 0.01 0.01 0.01 0.01 0.02 0.01 0.01 0.01 0.01 0.01 0.01 0.02 0.02 0.02 0.02 0.02
0.01 0.00 0.00 0.01 0.01 0.01 0.02 0.04 0.05 0.07 0.09 0.08 0.06 0.04 0.03 0.02 0.03 0.02 0.02 0.02 0.01 0.01 0.01 0.01 0.01 0.01 0.01 0.02 0.02 0.01 0.01 0.01 0.01 0.01 0.01 0.01 0.01 0.02 0.02 0.02 0.03 0.02 0.02
0.01 0.01 0.01 0.01 0.03 0.03 0.04 0.08 0.08 0.07 0.10 0.08 0.06 0.05 0.03 0.03 0.03 0.03 0.02 0.02 0.02 0.02 0.02 0.02 0.02 0.03 0.03 0.03 0.03 0.02 0.01 0.01 0.01 0.01 0.01 0.01 0.01 0.01 0.02 0.03 0.04 0.04 0.03
0.01 0.01 0.02 0.03 0.03 0.03 0.05 0.10 0.13 0.11 0.08 0.05 0.04 0.03 0.03 0.03 0.03 0.03 0.02 0.02 0.02 0.02 0.02 0.02 0.02 0.01 0.01 0.01 0.01 0.01 0.01 0.01 0.01 0.01 0.01 0.01 0.01 0.01 0.01 0.01 0.02 0.03 0.05
0.01 0.01 0.03 0.05 0.03 0.03 0.03 0.06 0.08 0.08 0.07 0.04 0.02 0.03 0.03 0.02 0.02 0.01 0.01 0.01 0.01 0.01 0.01 0.01 0.01 0.01 0.01 0.01 0.01 0.01 0.01 0.01 0.01 0.01 0.01 0.01 0.01 0.01 0.01 0.01 0.01 0.03 0.04
0.01 0.02 0.02 0.02 0.02 0.02 0.04 0.05 0.04 0.03 0.03 0.03 0.03 0.03 0.03 0.01 0.01 0.00 0.00 0.00 0.00 0.00 0.01 0.01 0.01 0.01 0.01 0.02 0.02 0.01 0.01 0.01 0.01 0.01 0.02 0.02 0.02 0.01 0.00 0.01 0.01 0.02 0.03
0.01 0.01 0.02 0.02 0.02 0.01 0.03 0.03 0.02 0.02 0.01 0.02 0.02 0.02 0.01 0.00 0.00 0.00 0.00 0.00 0.00 0.00 0.00 0.00 0.01 0.01 0.01 0.01 0.02 0.02 0.02 0.01 0.00 0.01 0.01 0.02 0.02 0.01 0.01 0.01 0.02 0.01 0.01
0.01 0.01 0.01 0.01 0.01 0.01 0.02 0.02 0.02 0.02 0.02 0.01 0.01 0.01 0.01 0.00 0.00 0.00 0.00 0.00 0.00 0.00 0.00 0.00 0.00 0.00 0.00 0.00 0.01 0.01 0.02 0.02 0.01 0.01 0.01 0.01 0.01 0.01 0.01 0.01 0.03 0.04 0.03
0.00 0.00 0.00 0.01 0.01 0.02 0.02 0.01 0.02 0.03 0.02 0.02 0.01 0.01 0.01 0.01 0.01 0.00 0.00 0.00 0.00 0.00 0.00 0.00 0.00 0.00 0.00 0.00 0.00 0.00 0.01 0.01 0.01 0.01 0.01 0.01 0.01 0.01 0.01 0.01 0.02 0.03 0.03

GEFSMW_prec_meanprec_174.txt.gz
QPF
0.11 0.18 0.18 0.15 0.12 0.10 0.09 0.09 0.08 0.11 0.12 0.10 0.09 0.09 0.08 0.07 0.07 0.08 0.08 0.09 0.09 0.10 0.11 0.10 0.10 0.11 0.12 0.11 0.10 0.10 0.10 0.10 0.10 0.09 0.08 0.07 0.05 0.04 0.03 0.04 0.05 0.07 0.09
0.15 0.21 0.21 0.13 0.09 0.08 0.11 0.11 0.13 0.15 0.12 0.11 0.12 0.11 0.07 0.06 0.07 0.06 0.05 0.07 0.08 0.08 0.08 0.08 0.09 0.09 0.10 0.11 0.13 0.12 0.11 0.10 0.10 0.10 0.08 0.06 0.04 0.02 0.03 0.04 0.05 0.06 0.11
0.14 0.16 0.12 0.10 0.09 0.09 0.11 0.13 0.12 0.12 0.12 0.12 0.10 0.08 0.07 0.06 0.06 0.05 0.04 0.04 0.05 0.06 0.07 0.08 0.09 0.10 0.11 0.12 0.13 0.13 0.12 0.12 0.11 0.10 0.09 0.08 0.05 0.03 0.02 0.03 0.03 0.04 0.09
0.08 0.08 0.07 0.07 0.09 0.08 0.09 0.10 0.12 0.14 0.13 0.10 0.08 0.06 0.05 0.05 0.05 0.04 0.03 0.04 0.06 0.07 0.08 0.09 0.09 0.09 0.10 0.10 0.13 0.14 0.13 0.11 0.10 0.11 0.09 0.08 0.07 0.05 0.03 0.02 0.02 0.04 0.05
0.05 0.06 0.06 0.07 0.08 0.09 0.07 0.07 0.09 0.10 0.09 0.08 0.07 0.07 0.06 0.06 0.05 0.04 0.05 0.06 0.07 0.07 0.08 0.09 0.09 0.09 0.09 0.08 0.09 0.10 0.10 0.10 0.10 0.09 0.09 0.09 0.07 0.06 0.04 0.03 0.03 0.04 0.03
0.04 0.05 0.06 0.07 0.08 0.09 0.09 0.09 0.08 0.10 0.10 0.10 0.10 0.10 0.09 0.08 0.06 0.06 0.06 0.05 0.04 0.05 0.06 0.07 0.08 0.08 0.07 0.07 0.07 0.07 0.07 0.08 0.10 0.11 0.09 0.08 0.06 0.05 0.04 0.04 0.07 0.06 0.05
0.05 0.05 0.06 0.07 0.08 0.09 0.14 0.14 0.11 0.13 0.14 0.12 0.12 0.11 0.09 0.08 0.06 0.05 0.05 0.03 0.03 0.03 0.03 0.04 0.06 0.08 0.08 0.09 0.09 0.07 0.07 0.06 0.06 0.08 0.09 0.08 0.06 0.05 0.05 0.05 0.06 0.06 0.06
0.05 0.06 0.07 0.08 0.09 0.09 0.10 0.12 0.13 0.12 0.10 0.09 0.11 0.11 0.11 0.08 0.06 0.03 0.02 0.01 0.01 0.01 0.01 0.02 0.03 0.03 0.04 0.05 0.06 0.06 0.06 0.06 0.05 0.05 0.06 0.09 0.09 0.07 0.06 0.05 0.05 0.05 0.05
0.04 0.05 0.07 0.09 0.09 0.07 0.07 0.08 0.07 0.05 0.05 0.06 0.07 0.08 0.08 0.07 0.07 0.04 0.01 0.01 0.01 0.01 0.01 0.01 0.01 0.02 0.03 0.04 0.05 0.04 0.05 0.05 0.05 0.04 0.03 0.03 0.05 0.06 0.06 0.06 0.05 0.05 0.05
0.06 0.05 0.05 0.09 0.08 0.06 0.05 0.06 0.06 0.05 0.04 0.04 0.04 0.04 0.04 0.05 0.06 0.04 0.01 0.01 0.01 0.01 0.02 0.02 0.02 0.02 0.02 0.03 0.04 0.04 0.04 0.04 0.05 0.04 0.03 0.03 0.03 0.04 0.04 0.03 0.04 0.04 0.05
0.05 0.05 0.04 0.08 0.07 0.06 0.06 0.07 0.06 0.06 0.04 0.03 0.02 0.02 0.01 0.01 0.01 0.02 0.02 0.01 0.02 0.02 0.02 0.02 0.02 0.02 0.02 0.04 0.05 0.06 0.06 0.05 0.05 0.05 0.05 0.04 0.03 0.02 0.02 0.02 0.02 0.03 0.04
0.02 0.03 0.03 0.06 0.06 0.06 0.07 0.08 0.05 0.04 0.03 0.02 0.01 0.01 0.00 0.00 0.00 0.00 0.00 0.01 0.01 0.01 0.01 0.01 0.01 0.02 0.02 0.03 0.04 0.05 0.06 0.06 0.06 0.05 0.05 0.05 0.03 0.02 0.02 0.02 0.01 0.02 0.02
0.02 0.02 0.03 0.04 0.04 0.05 0.06 0.05 0.03 0.02 0.01 0.01 0.01 0.01 0.01 0.01 0.00 0.00 0.00 0.01 0.01 0.01 0.01 0.01 0.01 0.01 0.01 0.02 0.03 0.03 0.03 0.03 0.04 0.04 0.04 0.05 0.04 0.03 0.03 0.02 0.02 0.02 0.03
0.02 0.02 0.02 0.02 0.03 0.03 0.03 0.03 0.02 0.01 0.01 0.01 0.01 0.02 0.01 0.01 0.01 0.01 0.01 0.01 0.01 0.01 0.01 0.01 0.01 0.02 0.02 0.02 0.03 0.02 0.01 0.02 0.03 0.04 0.05 0.06 0.06 0.06 0.05 0.03 0.02 0.02 0.03
0.02 0.02 0.02 0.02 0.02 0.02 0.02 0.02 0.02 0.01 0.01 0.01 0.01 0.01 0.01 0.01 0.01 0.01 0.01 0.01 0.02 0.02 0.02 0.02 0.02 0.02 0.02 0.02 0.02 0.01 0.02 0.02 0.03 0.04 0.04 0.05 0.06 0.06 0.06 0.03 0.02 0.02 0.03
0.03 0.02 0.03 0.03 0.02 0.01 0.01 0.01 0.02 0.01 0.01 0.01 0.01 0.01 0.01 0.01 0.01 0.01 0.02 0.02 0.02 0.02 0.02 0.03 0.03 0.02 0.02 0.01 0.01 0.01 0.01 0.01 0.01 0.02 0.02 0.03 0.04 0.04 0.04 0.04 0.03 0.03 0.03
0.04 0.03 0.04 0.04 0.03 0.01 0.01 0.01 0.01 0.01 0.01 0.01 0.01 0.01 0.01 0.01 0.01 0.01 0.02 0.02 0.02 0.02 0.01 0.02 0.01 0.01 0.01 0.01 0.01 0.01 0.01 0.01 0.01 0.01 0.01 0.02 0.03 0.04 0.03 0.03 0.02 0.02 0.03
0.05 0.03 0.03 0.04 0.02 0.01 0.01 0.01 0.01 0.01 0.01 0.01 0.01 0.01 0.01 0.01 0.02 0.02 0.02 0.02 0.02 0.02 0.02 0.02 0.01 0.01 0.01 0.01 0.01 0.01 0.01 0.01 0.01 0.01 0.02 0.02 0.03 0.03 0.04 0.03 0.03 0.02 0.02
0.06 0.03 0.02 0.01 0.01 0.01 0.00 0.01 0.01 0.01 0.01 0.01 0.01 0.01 0.02 0.02 0.02 0.02 0.02 0.02 0.02 0.02 0.02 0.02 0.01 0.01 0.01 0.01 0.01 0.01 0.01 0.02 0.02 0.01 0.01 0.01 0.01 0.01 0.02 0.01 0.01 0.01 0.02
0.03 0.03 0.02 0.01 0.01 0.01 0.00 0.00 0.01 0.01 0.01 0.01 0.02 0.03 0.03 0.02 0.02 0.02 0.02 0.02 0.02 0.02 0.01 0.01 0.01 0.01 0.01 0.01 0.01 0.01 0.01 0.01 0.01 0.01 0.01 0.00 0.00 0.00 0.01 0.01 0.01 0.01 0.01
0.02 0.02 0.01 0.01 0.01 0.01 0.00 0.00 0.01 0.01 0.02 0.02 0.02 0.03 0.05 0.04 0.04 0.03 0.02 0.02 0.02 0.02 0.02 0.02 0.02 0.02 0.01 0.01 0.01 0.01 0.01 0.01 0.00 0.01 0.02 0.01 0.00 0.00 0.01 0.01 0.01 0.01 0.01
0.02 0.02 0.01 0.02 0.01 0.01 0.00 0.00 0.01 0.01 0.03 0.03 0.02 0.02 0.03 0.04 0.05 0.04 0.03 0.03 0.02 0.02 0.02 0.02 0.02 0.02 0.01 0.01 0.01 0.00 0.00 0.00 0.01 0.00 0.01 0.02 0.01 0.00 0.00 0.00 0.00 0.00 0.00
0.03 0.03 0.03 0.02 0.01 0.01 0.00 0.00 0.01 0.01 0.02 0.04 0.02 0.02 0.02 0.03 0.05 0.05 0.04 0.03 0.03 0.02 0.02 0.02 0.01 0.01 0.01 0.01 0.01 0.00 0.00 0.00 0.00 0.01 0.01 0.01 0.02 0.01 0.01 0.01 0.01 0.01 0.00
0.03 0.03 0.03 0.02 0.01 0.01 0.01 0.01 0.01 0.01 0.01 0.02 0.02 0.01 0.02 0.02 0.03 0.03 0.02 0.02 0.02 0.01 0.01 0.01 0.01 0.00 0.00 0.01 0.01 0.01 0.01 0.01 0.01 0.01 0.01 0.01 0.02 0.02 0.01 0.01 0.01 0.00 0.00
0.03 0.03 0.03 0.03 0.02 0.01 0.01 0.01 0.01 0.01 0.01 0.01 0.01 0.01 0.00 0.00 0.01 0.01 0.01 0.01 0.01 0.01 0.00 0.00 0.00 0.00 0.00 0.01 0.01 0.01 0.02 0.02 0.01 0.02 0.02 0.02 0.03 0.02 0.02 0.01 0.01 0.01 0.01
0.02 0.02 0.02 0.03 0.02 0.02 0.02 0.01 0.01 0.02 0.01 0.01 0.01 0.01 0.01 0.00 0.00 0.00 0.01 0.00 0.00 0.00 0.00 0.00 0.00 0.00 0.00 0.00 0.01 0.01 0.02 0.01 0.01 0.02 0.03 0.04 0.04 0.03 0.02 0.01 0.02 0.02 0.01

GEFSMW_prec_meanprec_180.txt.gz
QPF
0.03 0.05 0.06 0.08 0.07 0.07 0.07 0.06 0.05 0.05 0.04 0.06 0.06 0.07 0.08 0.07 0.06 0.05 0.05 0.05 0.05 0.05 0.07 0.08 0.09 0.10 0.09 0.11 0.13 0.13 0.13 0.12 0.13 0.13 0.12 0.10 0.09 0.09 0.10 0.10 0.09 0.08 0.06
0.03 0.05 0.07 0.11 0.10 0.08 0.06 0.05 0.04 0.03 0.04 0.06 0.11 0.09 0.06 0.04 0.04 0.04 0.04 0.05 0.06 0.06 0.07 0.07 0.08 0.10 0.10 0.10 0.12 0.14 0.14 0.15 0.15 0.16 0.15 0.12 0.10 0.09 0.08 0.09 0.09 0.08 0.06
0.05 0.06 0.07 0.07 0.05 0.05 0.05 0.05 0.04 0.05 0.04 0.06 0.07 0.07 0.05 0.03 0.03 0.03 0.03 0.04 0.07 0.08 0.08 0.07 0.08 0.10 0.12 0.12 0.11 0.12 0.14 0.16 0.16 0.15 0.16 0.14 0.12 0.10 0.08 0.07 0.08 0.07 0.06
0.08 0.09 0.08 0.06 0.04 0.06 0.06 0.04 0.03 0.04 0.04 0.05 0.06 0.05 0.05 0.05 0.04 0.04 0.03 0.04 0.06 0.07 0.07 0.06 0.07 0.08 0.08 0.07 0.07 0.10 0.14 0.15 0.15 0.14 0.14 0.13 0.14 0.16 0.14 0.10 0.07 0.06 0.05
0.06 0.07 0.06 0.05 0.05 0.06 0.07 0.05 0.04 0.03 0.03 0.03 0.05 0.05 0.05 0.04 0.04 0.04 0.04 0.05 0.05 0.05 0.05 0.04 0.04 0.04 0.04 0.06 0.07 0.09 0.11 0.12 0.11 0.12 0.14 0.14 0.13 0.14 0.14 0.13 0.09 0.06 0.04
0.04 0.04 0.04 0.04 0.04 0.06 0.07 0.05 0.04 0.04 0.04 0.03 0.03 0.05 0.05 0.06 0.06 0.05 0.04 0.04 0.04 0.03 0.02 0.02 0.02 0.02 0.02 0.04 0.06 0.06 0.08 0.09 0.10 0.11 0.13 0.15 0.15 0.14 0.12 0.11 0.12 0.10 0.06
0.04 0.03 0.04 0.05 0.06 0.05 0.05 0.04 0.04 0.04 0.04 0.04 0.04 0.05 0.06 0.07 0.07 0.06 0.04 0.03 0.02 0.02 0.01 0.01 0.01 0.01 0.02 0.03 0.05 0.05 0.05 0.06 0.07 0.08 0.10 0.12 0.12 0.12 0.12 0.11 0.11 0.10 0.09
0.02 0.02 0.03 0.04 0.05 0.05 0.04 0.04 0.04 0.04 0.04 0.04 0.04 0.04 0.05 0.06 0.06 0.05 0.03 0.02 0.01 0.01 0.01 0.01 0.01 0.01 0.02 0.02 0.05 0.07 0.06 0.05 0.05 0.06 0.08 0.09 0.09 0.09 0.09 0.08 0.09 0.08 0.08
0.01 0.03 0.04 0.04 0.04 0.05 0.05 0.04 0.03 0.04 0.04 0.03 0.03 0.03 0.03 0.04 0.04 0.03 0.02 0.02 0.02 0.01 0.01 0.00 0.01 0.01 0.01 0.02 0.03 0.06 0.09 0.09 0.08 0.08 0.09 0.09 0.07 0.08 0.09 0.09 0.09 0.08 0.07
0.02 0.04 0.07 0.07 0.06 0.05 0.04 0.03 0.03 0.04 0.03 0.03 0.03 0.03 0.02 0.03 0.04 0.04 0.03 0.01 0.01 0.01 0.01 0.01 0.01 0.01 0.01 0.01 0.03 0.05 0.07 0.09 0.10 0.11 0.10 0.10 0.07 0.07 0.07 0.09 0.09 0.08 0.07
0.03 0.06 0.05 0.03 0.04 0.03 0.02 0.03 0.04 0.04 0.04 0.04 0.03 0.02 0.01 0.02 0.03 0.03 0.03 0.01 0.01 0.01 0.01 0.01 0.01 0.01 0.01 0.01 0.01 0.02 0.03 0.06 0.08 0.11 0.13 0.14 0.10 0.08 0.08 0.08 0.08 0.08 0.08
0.02 0.05 0.03 0.03 0.02 0.02 0.02 0.03 0.04 0.04 0.04 0.04 0.02 0.01 0.02 0.02 0.03 0.03 0.03 0.02 0.02 0.01 0.01 0.01 0.01 0.01 0.00 0.01 0.01 0.02 0.03 0.04 0.07 0.11 0.13 0.15 0.13 0.10 0.10 0.09 0.09 0.08 0.08
0.02 0.03 0.03 0.03 0.03 0.03 0.03 0.03 0.03 0.04 0.04 0.03 0.02 0.02 0.03 0.04 0.05 0.05 0.04 0.03 0.02 0.01 0.01 0.01 0.01 0.01 0.01 0.01 0.01 0.02 0.02 0.03 0.04 0.07 0.10 0.12 0.12 0.09 0.08 0.08 0.08 0.07 0.06
0.02 0.02 0.03 0.04 0.04 0.04 0.04 0.03 0.04 0.04 0.04 0.02 0.01 0.01 0.01 0.02 0.04 0.05 0.04 0.02 0.01 0.01 0.01 0.01 0.01 0.01 0.01 0.01 0.01 0.01 0.02 0.02 0.02 0.04 0.07 0.11 0.14 0.10 0.06 0.07 0.09 0.08 0.06
0.02 0.02 0.03 0.05 0.05 0.06 0.05 0.04 0.04 0.04 0.04 0.03 0.01 0.00 0.01 0.01 0.01 0.02 0.02 0.01 0.01 0.01 0.01 0.02 0.02 0.01 0.01 0.01 0.00 0.01 0.01 0.02 0.02 0.03 0.04 0.07 0.12 0.15 0.09 0.07 0.08 0.08 0.06
0.02 0.03 0.04 0.04 0.04 0.06 0.05 0.05 0.04 0.04 0.04 0.03 0.01 0.01 0.01 0.01 0.01 0.01 0.02 0.02 0.01 0.01 0.01 0.01 0.01 0.01 0.01 0.01 0.01 0.01 0.01 0.02 0.02 0.02 0.03 0.03 0.04 0.07 0.08 0.05 0.05 0.06 0.06
0.02 0.03 0.04 0.04 0.05 0.06 0.05 0.04 0.04 0.04 0.04 0.03 0.01 0.01 0.01 0.01 0.01 0.01 0.02 0.02 0.02 0.02 0.02 0.01 0.01 0.02 0.02 0.01 0.01 0.01 0.01 0.01 0.01 0.02 0.02 0.02 0.04 0.03 0.05 0.05 0.03 0.04 0.05
0.03 0.03 0.04 0.05 0.04 0.05 0.06 0.04 0.03 0.03 0.03 0.02 0.01 0.01 0.01 0.02 0.02 0.02 0.03 0.02 0.02 0.02 0.02 0.02 0.03 0.03 0.02 0.01 0.01 0.00 0.01 0.02 0.01 0.01 0.02 0.02 0.03 0.04 0.04 0.05 0.04 0.03 0.04
0.08 0.06 0.06 0.06 0.05 0.04 0.03 0.03 0.03 0.03 0.02 0.01 0.01 0.01 0.01 0.03 0.03 0.03 0.03 0.02 0.02 0.01 0.02 0.02 0.02 0.02 0.02 0.01 0.01 0.01 0.01 0.02 0.01 0.01 0.01 0.02 0.02 0.03 0.06 0.06 0.05 0.04 0.05
0.10 0.10 0.07 0.06 0.06 0.04 0.03 0.03 0.02 0.03 0.03 0.02 0.01 0.01 0.01 0.02 0.04 0.05 0.04 0.03 0.02 0.01 0.01 0.01 0.01 0.02 0.02 0.01 0.01 0.01 0.01 0.02 0.02 0.02 0.02 0.03 0.03 0.02 0.03 0.06 0.06 0.05 0.06
0.07 0.10 0.10 0.07 0.05 0.04 0.04 0.03 0.03 0.02 0.02 0.01 0.01 0.02 0.02 0.02 0.03 0.04 0.04 0.02 0.01 0.01 0.01 0.01 0.02 0.02 0.02 0.02 0.02 0.02 0.02 0.02 0.02 0.03 0.03 0.03 0.03 0.02 0.01 0.03 0.04 0.04 0.04
0.03 0.07 0.09 0.08 0.05 0.04 0.04 0.03 0.03 0.02 0.01 0.01 0.01 0.02 0.02 0.03 0.02 0.02 0.02 0.02 0.01 0.02 0.02 0.02 0.02 0.02 0.02 0.02 0.02 0.02 0.02 0.02 0.02 0.03 0.03 0.03 0.02 0.02 0.02 0.02 0.02 0.02 0.03
0.03 0.04 0.05 0.05 0.04 0.04 0.04 0.03 0.03 0.01 0.00 0.01 0.02 0.02 0.03 0.03 0.03 0.03 0.02 0.01 0.01 0.02 0.01 0.01 0.02 0.02 0.03 0.03 0.03 0.02 0.02 0.02 0.02 0.02 0.01 0.01 0.03 0.04 0.03 0.02 0.02 0.02 0.02
0.04 0.03 0.03 0.03 0.03 0.03 0.02 0.03 0.03 0.01 0.01 0.01 0.02 0.02 0.02 0.02 0.02 0.02 0.02 0.01 0.01 0.02 0.01 0.01 0.02 0.02 0.02 0.02 0.02 0.01 0.01 0.01 0.01 0.01 0.01 0.01 0.02 0.03 0.04 0.03 0.02 0.02 0.03
0.04 0.03 0.02 0.02 0.03 0.02 0.02 0.02 0.02 0.01 0.01 0.02 0.02 0.01 0.01 0.02 0.02 0.01 0.01 0.00 0.01 0.02 0.01 0.01 0.01 0.01 0.01 0.01 0.00 0.00 0.00 0.00 0.00 0.00 0.01 0.02 0.02 0.03 0.04 0.03 0.03 0.03 0.04
0.02 0.01 0.01 0.01 0.02 0.01 0.01 0.01 0.01 0.02 0.01 0.01 0.01 0.01 0.01 0.01 0.01 0.01 0.01 0.01 0.01 0.01 0.01 0.01 0.01 0.01 0.00 0.00 0.00 0.00 0.00 0.00 0.00 0.01 0.01 0.02 0.02 0.02 0.03 0.03 0.03 0.04 0.04

GEFSMW_prec_meanprec_186.txt.gz
QPF
0.04 0.06 0.09 0.06 0.08 0.09 0.08 0.08 0.09 0.11 0.11 0.10 0.09 0.10 0.10 0.09 0.09 0.08 0.06 0.06 0.05 0.05 0.06 0.06 0.08 0.09 0.10 0.11 0.12 0.12 0.11 0.11 0.14 0.14 0.12 0.10 0.11 0.11 0.12 0.11 0.11 0.10 0.09
0.04 0.05 0.06 0.06 0.06 0.06 0.06 0.09 0.11 0.12 0.12 0.10 0.09 0.09 0.10 0.10 0.11 0.12 0.13 0.11 0.08 0.07 0.07 0.08 0.09 0.09 0.09 0.09 0.11 0.12 0.10 0.10 0.14 0.13 0.12 0.11 0.12 0.12 0.10 0.11 0.11 0.11 0.11
0.04 0.04 0.04 0.08 0.08 0.07 0.05 0.06 0.07 0.09 0.12 0.12 0.10 0.09 0.09 0.07 0.07 0.07 0.07 0.06 0.05 0.04 0.05 0.06 0.07 0.07 0.07 0.07 0.08 0.09 0.09 0.08 0.11 0.13 0.14 0.13 0.11 0.11 0.10 0.10 0.08 0.09 0.11
0.03 0.03 0.04 0.07 0.09 0.08 0.07 0.07 0.06 0.09 0.14 0.17 0.12 0.08 0.07 0.07 0.07 0.07 0.06 0.05 0.04 0.03 0.03 0.03 0.04 0.04 0.04 0.05 0.05 0.06 0.07 0.09 0.09 0.10 0.13 0.14 0.15 0.15 0.13 0.10 0.10 0.11 0.11
0.02 0.03 0.03 0.04 0.06 0.08 0.09 0.09 0.08 0.09 0.10 0.11 0.10 0.08 0.08 0.09 0.08 0.07 0.05 0.04 0.02 0.02 0.02 0.02 0.02 0.03 0.04 0.03 0.04 0.04 0.06 0.07 0.07 0.08 0.10 0.11 0.13 0.16 0.16 0.12 0.11 0.12 0.10
0.03 0.03 0.03 0.04 0.06 0.07 0.09 0.11 0.10 0.08 0.08 0.08 0.09 0.08 0.08 0.08 0.09 0.09 0.07 0.04 0.03 0.03 0.03 0.03 0.02 0.02 0.03 0.03 0.03 0.04 0.05 0.06 0.07 0.09 0.11 0.14 0.13 0.13 0.15 0.14 0.14 0.14 0.10
0.04 0.03 0.03 0.04 0.05 0.06 0.08 0.08 0.10 0.09 0.08 0.07 0.07 0.08 0.08 0.09 0.08 0.07 0.06 0.04 0.03 0.03 0.03 0.02 0.02 0.03 0.02 0.03 0.04 0.04 0.05 0.05 0.06 0.07 0.09 0.10 0.10 0.12 0.14 0.14 0.14 0.13 0.11
0.04 0.05 0.04 0.03 0.04 0.05 0.05 0.05 0.07 0.08 0.08 0.06 0.06 0.06 0.06 0.06 0.05 0.05 0.04 0.03 0.02 0.01 0.01 0.01 0.01 0.01 0.02 0.03 0.03 0.04 0.05 0.05 0.06 0.07 0.08 0.08 0.08 0.10 0.12 0.13 0.13 0.13 0.12
0.04 0.05 0.04 0.02 0.03 0.05 0.05 0.06 0.06 0.07 0.06 0.05 0.04 0.04 0.05 0.05 0.05 0.06 0.05 0.03 0.01 0.01 0.01 0.00 0.00 0.01 0.01 0.02 0.02 0.03 0.04 0.04 0.05 0.06 0.07 0.07 0.07 0.07 0.08 0.10 0.11 0.12 0.12
0.04 0.04 0.04 0.03 0.03 0.07 0.10 0.13 0.11 0.08 0.05 0.04 0.03 0.03 0.04 0.04 0.04 0.05 0.06 0.04 0.01 0.01 0.01 0.01 0.01 0.01 0.01 0.01 0.02 0.03 0.03 0.03 0.03 0.03 0.04 0.04 0.05 0.05 0.06 0.07 0.07 0.09 0.10
0.04 0.05 0.04 0.03 0.03 0.05 0.06 0.06 0.06 0.04 0.03 0.04 0.04 0.04 0.03 0.03 0.03 0.05 0.05 0.03 0.01 0.01 0.01 0.01 0.01 0.01 0.01 0.02 0.03 0.02 0.02 0.02 0.02 0.02 0.02 0.02 0.04 0.06 0.05 0.05 0.06 0.07 0.09
0.04 0.05 0.05 0.04 0.04 0.04 0.03 0.03 0.03 0.04 0.04 0.05 0.06 0.05 0.04 0.04 0.04 0.05 0.05 0.04 0.03 0.02 0.02 0.01 0.01 0.01 0.02 0.02 0.02 0.02 0.01 0.01 0.02 0.02 0.03 0.03 0.04 0.06 0.06 0.05 0.05 0.06 0.08
0.03 0.05 0.05 0.05 0.05 0.05 0.05 0.04 0.05 0.05 0.05 0.05 0.07 0.07 0.06 0.05 0.04 0.04 0.04 0.05 0.04 0.03 0.02 0.02 0.01 0.01 0.02 0.01 0.01 0.01 0.01 0.02 0.02 0.02 0.03 0.04 0.04 0.06 0.07 0.06 0.05 0.05 0.06
0.03 0.03 0.04 0.05 0.06 0.06 0.06 0.04 0.04 0.04 0.04 0.04 0.05 0.06 0.06 0.06 0.04 0.04 0.04 0.03 0.03 0.02 0.02 0.03 0.02 0.01 0.01 0.01 0.00 0.00 0.01 0.01 0.01 0.02 0.03 0.04 0.04 0.06 0.07 0.06 0.06 0.05 0.06
0.03 0.03 0.04 0.06 0.06 0.05 0.07 0.04 0.03 0.03 0.03 0.03 0.05 0.05 0.06 0.06 0.04 0.03 0.03 0.02 0.02 0.02 0.03 0.03 0.01 0.01 0.01 0.00 0.00 0.00 0.01 0.01 0.01 0.02 0.02 0.03 0.02 0.04 0.07 0.08 0.06 0.06 0.06
0.03 0.04 0.05 0.06 0.07 0.06 0.07 0.05 0.03 0.03 0.02 0.03 0.05 0.05 0.06 0.05 0.04 0.04 0.03 0.03 0.02 0.03 0.03 0.02 0.02 0.01 0.01 0.00 0.00 0.00 0.01 0.01 0.02 0.03 0.03 0.03 0.02 0.02 0.05 0.05 0.06 0.05 0.05
0.03 0.05 0.06 0.08 0.08 0.08 0.06 0.05 0.05 0.04 0.03 0.04 0.05 0.05 0.05 0.04 0.05 0.04 0.03 0.03 0.02 0.03 0.03 0.02 0.02 0.02 0.02 0.01 0.00 0.00 0.01 0.03 0.03 0.03 0.04 0.03 0.02 0.02 0.04 0.07 0.06 0.07 0.05
0.03 0.04 0.07 0.09 0.09 0.08 0.07 0.07 0.05 0.06 0.05 0.05 0.04 0.04 0.04 0.05 0.05 0.05 0.04 0.03 0.03 0.03 0.02 0.01 0.02 0.02 0.02 0.02 0.01 0.00 0.02 0.03 0.03 0.04 0.05 0.05 0.05 0.04 0.03 0.07 0.10 0.09 0.07
0.02 0.03 0.05 0.07 0.10 0.10 0.09 0.09 0.05 0.04 0.05 0.04 0.03 0.03 0.03 0.05 0.05 0.05 0.04 0.04 0.03 0.03 0.02 0.02 0.03 0.04 0.04 0.03 0.01 0.00 0.01 0.03 0.03 0.04 0.04 0.04 0.04 0.03 0.03 0.06 0.10 0.09 0.09
0.03 0.03 0.04 0.06 0.09 0.09 0.09 0.08 0.06 0.04 0.04 0.03 0.02 0.03 0.03 0.04 0.05 0.05 0.05 0.04 0.03 0.03 0.02 0.02 0.03 0.04 0.05 0.03 0.02 0.01 0.01 0.01 0.02 0.04 0.05 0.04 0.03 0.03 0.04 0.07 0.10 0.09 0.08
0.05 0.04 0.05 0.05 0.06 0.06 0.07 0.07 0.05 0.04 0.03 0.02 0.02 0.03 0.04 0.04 0.05 0.04 0.04 0.03 0.03 0.03 0.03 0.03 0.03 0.03 0.04 0.03 0.02 0.01 0.01 0.01 0.02 0.03 0.04 0.04 0.04 0.03 0.04 0.06 0.08 0.08 0.07
0.06 0.07 0.06 0.05 0.06 0.07 0.07 0.06 0.06 0.04 0.03 0.02 0.02 0.03 0.04 0.03 0.03 0.04 0.04 0.04 0.03 0.02 0.03 0.04 0.03 0.03 0.03 0.02 0.01 0.01 0.01 0.01 0.01 0.02 0.03 0.04 0.03 0.02 0.02 0.03 0.04 0.05 0.06
0.05 0.07 0.07 0.07 0.07 0.05 0.05 0.05 0.04 0.04 0.04 0.03 0.02 0.03 0.03 0.03 0.02 0.03 0.04 0.04 0.04 0.03 0.02 0.02 0.02 0.02 0.01 0.01 0.01 0.01 0.01 0.01 0.01 0.01 0.01 0.02 0.01 0.01 0.02 0.02 0.02 0.03 0.05
0.04 0.06 0.07 0.06 0.04 0.03 0.04 0.04 0.04 0.04 0.04 0.03 0.03 0.04 0.03 0.02 0.02 0.03 0.04 0.06 0.05 0.03 0.02 0.02 0.02 0.02 0.01 0.01 0.01 0.01 0.00 0.00 0.00 0.01 0.01 0.01 0.01 0.02 0.03 0.03 0.04 0.05 0.06
0.03 0.04 0.05 0.04 0.03 0.03 0.03 0.04 0.04 0.04 0.05 0.05 0.03 0.03 0.03 0.02 0.03 0.02 0.02 0.02 0.02 0.01 0.00 0.01 0.01 0.01 0.01 0.01 0.00 0.00 0.00 0.00 0.00 0.01 0.01 0.02 0.02 0.03 0.04 0.04 0.05 0.05 0.05
0.02 0.03 0.03 0.03 0.03 0.03 0.02 0.03 0.05 0.05 0.05 0.05 0.03 0.03 0.03 0.03 0.03 0.02 0.02 0.02 0.02 0.01 0.00 0.00 0.00 0.01 0.01 0.00 0.00 0.00 0.00 0.00 0.00 0.00 0.01 0.02 0.03 0.03 0.03 0.04 0.04 0.04 0.04

GEFSMW_prec_meanprec_192.txt.gz
QPF
0.13 0.13 0.09 0.08 0.07 0.05 0.04 0.05 0.06 0.05 0.06 0.10 0.13 0.16 0.16 0.12 0.09 0.08 0.10 0.12 0.15 0.15 0.13 0.09 0.07 0.06 0.06 0.06 0.10 0.11 0.10 0.08 0.07 0.06 0.04 0.03 0.03 0.02 0.02 0.03 0.05 0.06 0.07
0.17 0.11 0.07 0.06 0.05 0.04 0.04 0.04 0.05 0.05 0.05 0.06 0.08 0.06 0.07 0.09 0.08 0.07 0.09 0.15 0.19 0.12 0.07 0.05 0.04 0.04 0.04 0.05 0.06 0.07 0.07 0.07 0.08 0.07 0.04 0.03 0.02 0.02 0.02 0.03 0.03 0.03 0.05
0.13 0.09 0.05 0.05 0.04 0.04 0.08 0.08 0.05 0.04 0.04 0.05 0.08 0.07 0.07 0.07 0.08 0.06 0.06 0.07 0.08 0.07 0.06 0.03 0.03 0.03 0.04 0.03 0.04 0.05 0.05 0.04 0.06 0.07 0.05 0.03 0.02 0.02 0.02 0.03 0.04 0.04 0.05
0.09 0.06 0.05 0.08 0.05 0.05 0.09 0.08 0.06 0.04 0.04 0.06 0.09 0.09 0.06 0.06 0.07 0.07 0.07 0.08 0.08 0.08 0.05 0.03 0.03 0.03 0.02 0.03 0.02 0.03 0.03 0.03 0.02 0.03 0.03 0.04 0.04 0.04 0.03 0.03 0.03 0.04 0.05
0.05 0.06 0.07 0.09 0.07 0.07 0.08 0.07 0.06 0.06 0.06 0.09 0.11 0.12 0.11 0.09 0.08 0.09 0.10 0.11 0.09 0.08 0.06 0.04 0.03 0.02 0.02 0.01 0.01 0.01 0.01 0.02 0.02 0.01 0.02 0.03 0.04 0.05 0.04 0.02 0.01 0.03 0.05
0.05 0.07 0.08 0.08 0.07 0.08 0.07 0.06 0.06 0.07 0.07 0.09 0.12 0.16 0.14 0.09 0.07 0.07 0.08 0.11 0.10 0.08 0.06 0.05 0.04 0.02 0.01 0.01 0.01 0.01 0.01 0.01 0.01 0.01 0.02 0.02 0.03 0.03 0.04 0.04 0.02 0.02 0.04
0.12 0.12 0.12 0.12 0.10 0.09 0.07 0.07 0.06 0.06 0.07 0.09 0.12 0.15 0.14 0.09 0.07 0.05 0.06 0.07 0.07 0.06 0.05 0.04 0.04 0.03 0.02 0.01 0.01 0.01 0.01 0.01 0.01 0.01 0.02 0.02 0.02 0.03 0.04 0.04 0.02 0.02 0.04
0.08 0.12 0.13 0.13 0.10 0.08 0.08 0.06 0.05 0.06 0.10 0.11 0.15 0.16 0.14 0.12 0.09 0.06 0.05 0.06 0.06 0.05 0.04 0.03 0.03 0.03 0.02 0.02 0.01 0.01 0.01 0.01 0.01 0.01 0.01 0.01 0.01 0.02 0.03 0.03 0.03 0.02 0.03
0.09 0.11 0.09 0.08 0.07 0.07 0.07 0.07 0.05 0.06 0.09 0.12 0.14 0.18 0.14 0.10 0.08 0.07 0.07 0.07 0.06 0.05 0.04 0.04 0.04 0.03 0.02 0.02 0.01 0.01 0.01 0.00 0.00 0.01 0.01 0.01 0.01 0.01 0.02 0.02 0.03 0.04 0.04
0.06 0.05 0.05 0.06 0.07 0.07 0.07 0.07 0.06 0.06 0.06 0.06 0.06 0.08 0.08 0.06 0.06 0.06 0.06 0.06 0.06 0.05 0.03 0.04 0.02 0.01 0.01 0.01 0.01 0.01 0.01 0.01 0.01 0.01 0.01 0.01 0.01 0.01 0.02 0.02 0.02 0.03 0.04
0.04 0.04 0.04 0.07 0.09 0.09 0.07 0.07 0.06 0.04 0.03 0.03 0.03 0.03 0.04 0.05 0.05 0.06 0.07 0.06 0.05 0.04 0.03 0.03 0.02 0.01 0.01 0.01 0.01 0.01 0.01 0.01 0.01 0.01 0.01 0.01 0.01 0.01 0.02 0.02 0.02 0.02 0.02
0.05 0.05 0.04 0.06 0.10 0.09 0.08 0.08 0.05 0.03 0.03 0.03 0.02 0.03 0.04 0.04 0.04 0.05 0.05 0.05 0.04 0.03 0.03 0.02 0.01 0.01 0.01 0.00 0.00 0.00 0.00 0.01 0.01 0.01 0.01 0.01 0.01 0.01 0.01 0.02 0.02 0.02 0.02
0.04 0.07 0.05 0.05 0.08 0.10 0.09 0.07 0.05 0.04 0.03 0.03 0.03 0.03 0.03 0.04 0.05 0.06 0.05 0.05 0.03 0.03 0.02 0.01 0.01 0.01 0.01 0.00 0.00 0.01 0.01 0.02 0.02 0.02 0.02 0.01 0.01 0.01 0.01 0.01 0.01 0.01 0.01
0.04 0.07 0.06 0.04 0.07 0.08 0.07 0.07 0.07 0.03 0.02 0.02 0.02 0.02 0.02 0.03 0.04 0.06 0.06 0.04 0.04 0.03 0.02 0.02 0.01 0.01 0.01 0.01 0.01 0.01 0.01 0.01 0.01 0.01 0.01 0.01 0.01 0.01 0.01 0.01 0.01 0.01 0.01
0.08 0.08 0.08 0.04 0.08 0.09 0.08 0.07 0.06 0.02 0.01 0.01 0.01 0.01 0.02 0.02 0.03 0.05 0.06 0.04 0.03 0.02 0.02 0.02 0.01 0.02 0.02 0.01 0.01 0.01 0.01 0.01 0.00 0.01 0.01 0.01 0.01 0.01 0.01 0.01 0.01 0.01 0.01
0.07 0.09 0.08 0.07 0.09 0.11 0.10 0.08 0.04 0.02 0.01 0.01 0.01 0.01 0.01 0.02 0.04 0.06 0.06 0.05 0.04 0.03 0.02 0.02 0.01 0.01 0.01 0.01 0.01 0.01 0.01 0.01 0.01 0.01 0.01 0.02 0.02 0.02 0.02 0.02 0.02 0.02 0.02
0.05 0.05 0.05 0.07 0.06 0.09 0.11 0.09 0.05 0.02 0.01 0.01 0.01 0.01 0.01 0.03 0.05 0.05 0.04 0.05 0.05 0.03 0.02 0.03 0.02 0.01 0.01 0.00 0.00 0.01 0.02 0.05 0.03 0.01 0.02 0.01 0.02 0.02 0.02 0.01 0.01 0.01 0.01
0.04 0.03 0.04 0.04 0.04 0.07 0.09 0.09 0.05 0.02 0.01 0.02 0.02 0.02 0.02 0.03 0.04 0.04 0.05 0.05 0.04 0.04 0.03 0.02 0.02 0.01 0.01 0.00 0.00 0.01 0.02 0.03 0.01 0.01 0.01 0.01 0.01 0.01 0.01 0.01 0.01 0.01 0.01
0.08 0.06 0.05 0.05 0.05 0.06 0.08 0.08 0.05 0.03 0.02 0.02 0.02 0.02 0.02 0.01 0.02 0.03 0.03 0.04 0.04 0.04 0.04 0.02 0.01 0.01 0.00 0.01 0.01 0.01 0.01 0.01 0.02 0.04 0.03 0.02 0.01 0.01 0.01 0.01 0.01 0.01 0.01
0.14 0.10 0.06 0.06 0.06 0.05 0.07 0.06 0.03 0.02 0.02 0.02 0.02 0.02 0.02 0.01 0.01 0.02 0.02 0.03 0.04 0.04 0.04 0.02 0.01 0.00 0.00 0.01 0.01 0.01 0.01 0.01 0.02 0.04 0.04 0.02 0.02 0.02 0.02 0.02 0.03 0.03 0.02
0.16 0.10 0.06 0.06 0.05 0.05 0.05 0.04 0.03 0.02 0.02 0.02 0.02 0.02 0.01 0.01 0.01 0.01 0.02 0.02 0.03 0.03 0.03 0.02 0.01 0.01 0.00 0.01 0.02 0.02 0.01 0.01 0.01 0.02 0.02 0.02 0.03 0.03 0.02 0.03 0.05 0.05 0.04
0.06 0.07 0.08 0.06 0.05 0.04 0.03 0.03 0.03 0.02 0.02 0.02 0.02 0.01 0.01 0.01 0.01 0.02 0.02 0.03 0.03 0.02 0.03 0.02 0.01 0.01 0.01 0.01 0.01 0.01 0.01 0.01 0.02 0.02 0.02 0.03 0.04 0.04 0.04 0.05 0.07 0.06 0.04
0.03 0.04 0.07 0.06 0.04 0.03 0.03 0.03 0.02 0.02 0.02 0.02 0.02 0.02 0.02 0.02 0.02 0.02 0.02 0.02 0.02 0.02 0.03 0.02 0.02 0.02 0.01 0.01 0.01 0.01 0.01 0.01 0.01 0.01 0.01 0.01 0.02 0.03 0.04 0.05 0.05 0.04 0.04
0.03 0.04 0.06 0.05 0.04 0.03 0.02 0.02 0.01 0.01 0.01 0.01 0.02 0.02 0.02 0.02 0.02 0.02 0.02 0.02 0.01 0.02 0.04 0.03 0.02 0.02 0.01 0.01 0.01 0.01 0.00 0.00 0.00 0.00 0.00 0.00 0.01 0.02 0.04 0.04 0.04 0.03 0.03
0.02 0.02 0.02 0.03 0.02 0.02 0.02 0.01 0.01 0.01 0.01 0.02 0.02 0.02 0.02 0.02 0.03 0.02 0.02 0.01 0.01 0.02 0.03 0.02 0.01 0.01 0.01 0.01 0.01 0.01 0.00 0.00 0.00 0.00 0.00 0.00 0.00 0.01 0.02 0.03 0.03 0.03 0.03
0.02 0.02 0.02 0.02 0.02 0.02 0.02 0.01 0.01 0.01 0.01 0.02 0.02 0.02 0.02 0.02 0.02 0.01 0.02 0.02 0.02 0.02 0.02 0.02 0.01 0.01 0.00 0.00 0.00 0.00 0.00 0.00 0.00 0.00 0.00 0.00 0.00 0.01 0.01 0.01 0.02 0.03 0.03

GEFSMW_prec_meanprec_198.txt.gz
QPF
0.05 0.05 0.05 0.06 0.07 0.08 0.07 0.07 0.07 0.08 0.06 0.06 0.07 0.07 0.08 0.09 0.10 0.09 0.08 0.08 0.08 0.09 0.07 0.05 0.04 0.03 0.03 0.03 0.04 0.04 0.04 0.03 0.03 0.03 0.03 0.02 0.02 0.02 0.01 0.01 0.01 0.01 0.02
0.04 0.04 0.04 0.06 0.11 0.10 0.06 0.07 0.07 0.07 0.06 0.04 0.05 0.04 0.04 0.05 0.06 0.05 0.04 0.04 0.04 0.06 0.07 0.08 0.07 0.05 0.03 0.03 0.02 0.02 0.03 0.04 0.04 0.04 0.04 0.03 0.02 0.01 0.01 0.01 0.00 0.01 0.01
0.02 0.02 0.03 0.05 0.09 0.09 0.06 0.07 0.07 0.07 0.06 0.05 0.04 0.03 0.03 0.04 0.04 0.03 0.03 0.04 0.04 0.05 0.06 0.07 0.07 0.06 0.04 0.03 0.03 0.02 0.03 0.04 0.04 0.04 0.04 0.02 0.02 0.01 0.01 0.01 0.01 0.01 0.01
0.02 0.02 0.03 0.05 0.07 0.09 0.08 0.08 0.08 0.06 0.06 0.05 0.04 0.03 0.04 0.03 0.03 0.03 0.04 0.04 0.05 0.06 0.08 0.09 0.09 0.07 0.05 0.04 0.03 0.03 0.03 0.03 0.03 0.03 0.03 0.02 0.01 0.02 0.01 0.01 0.01 0.00 0.00
0.03 0.03 0.05 0.05 0.06 0.08 0.11 0.12 0.10 0.10 0.10 0.08 0.06 0.07 0.08 0.06 0.05 0.05 0.06 0.06 0.07 0.08 0.10 0.10 0.10 0.10 0.08 0.06 0.04 0.04 0.03 0.02 0.02 0.02 0.02 0.02 0.01 0.01 0.02 0.02 0.01 0.00 0.01
0.03 0.04 0.05 0.06 0.06 0.06 0.10 0.15 0.16 0.12 0.10 0.10 0.09 0.09 0.10 0.10 0.09 0.07 0.06 0.06 0.06 0.06 0.07 0.10 0.10 0.09 0.08 0.05 0.04 0.04 0.03 0.02 0.02 0.01 0.01 0.02 0.02 0.02 0.02 0.02 0.01 0.01 0.02
0.02 0.03 0.03 0.04 0.05 0.06 0.08 0.11 0.11 0.13 0.12 0.10 0.10 0.10 0.09 0.09 0.09 0.07 0.06 0.05 0.04 0.05 0.05 0.05 0.08 0.09 0.07 0.05 0.04 0.03 0.02 0.02 0.02 0.01 0.01 0.01 0.02 0.02 0.02 0.03 0.02 0.01 0.02
0.02 0.01 0.02 0.03 0.05 0.07 0.09 0.10 0.11 0.11 0.13 0.11 0.11 0.12 0.09 0.07 0.07 0.06 0.05 0.05 0.05 0.05 0.06 0.05 0.05 0.07 0.08 0.06 0.04 0.03 0.03 0.02 0.02 0.01 0.01 0.01 0.01 0.01 0.01 0.01 0.02 0.02 0.01
0.01 0.02 0.03 0.04 0.04 0.05 0.07 0.10 0.11 0.11 0.13 0.12 0.10 0.10 0.07 0.05 0.05 0.06 0.07 0.07 0.06 0.07 0.07 0.07 0.05 0.05 0.07 0.07 0.06 0.04 0.03 0.03 0.02 0.01 0.01 0.00 0.01 0.01 0.00 0.01 0.01 0.01 0.01
0.01 0.03 0.04 0.04 0.04 0.03 0.04 0.08 0.10 0.11 0.12 0.13 0.08 0.07 0.07 0.06 0.05 0.05 0.07 0.07 0.06 0.05 0.06 0.09 0.06 0.04 0.03 0.04 0.05 0.04 0.03 0.02 0.02 0.02 0.01 0.01 0.01 0.01 0.01 0.01 0.01 0.01 0.02
0.02 0.03 0.04 0.04 0.04 0.04 0.04 0.06 0.09 0.10 0.11 0.09 0.05 0.04 0.04 0.04 0.04 0.04 0.04 0.04 0.04 0.03 0.03 0.04 0.04 0.02 0.02 0.03 0.03 0.02 0.02 0.01 0.01 0.01 0.01 0.01 0.01 0.01 0.01 0.01 0.01 0.01 0.02
0.02 0.03 0.04 0.03 0.03 0.04 0.04 0.05 0.08 0.08 0.09 0.07 0.04 0.03 0.03 0.02 0.02 0.03 0.04 0.04 0.04 0.03 0.03 0.03 0.03 0.02 0.01 0.02 0.02 0.02 0.01 0.01 0.01 0.01 0.01 0.01 0.02 0.01 0.01 0.01 0.01 0.01 0.01
0.02 0.03 0.03 0.03 0.03 0.03 0.04 0.03 0.07 0.07 0.07 0.05 0.03 0.02 0.02 0.02 0.02 0.03 0.03 0.03 0.04 0.04 0.04 0.03 0.03 0.02 0.01 0.02 0.02 0.01 0.01 0.01 0.01 0.01 0.01 0.02 0.02 0.01 0.01 0.01 0.01 0.01 0.01
0.02 0.02 0.03 0.03 0.03 0.02 0.02 0.04 0.09 0.09 0.06 0.05 0.02 0.01 0.02 0.02 0.01 0.01 0.03 0.03 0.04 0.04 0.05 0.04 0.04 0.03 0.02 0.02 0.02 0.02 0.01 0.00 0.00 0.01 0.01 0.02 0.01 0.01 0.01 0.01 0.00 0.00 0.00
0.02 0.02 0.02 0.03 0.03 0.03 0.03 0.05 0.09 0.09 0.05 0.03 0.01 0.01 0.02 0.02 0.02 0.01 0.02 0.03 0.04 0.04 0.04 0.04 0.04 0.03 0.02 0.02 0.02 0.02 0.02 0.01 0.00 0.01 0.01 0.01 0.01 0.01 0.01 0.01 0.00 0.00 0.00
0.02 0.02 0.02 0.04 0.05 0.04 0.05 0.05 0.08 0.10 0.05 0.02 0.01 0.01 0.01 0.01 0.01 0.01 0.02 0.02 0.03 0.03 0.03 0.03 0.03 0.04 0.03 0.02 0.01 0.01 0.01 0.01 0.01 0.01 0.01 0.01 0.01 0.01 0.01 0.01 0.01 0.01 0.01
0.02 0.02 0.02 0.04 0.06 0.05 0.04 0.04 0.07 0.08 0.03 0.01 0.01 0.01 0.01 0.01 0.02 0.02 0.02 0.01 0.02 0.02 0.02 0.02 0.03 0.03 0.03 0.02 0.02 0.01 0.01 0.01 0.01 0.01 0.01 0.01 0.01 0.02 0.02 0.02 0.02 0.02 0.02
0.02 0.02 0.02 0.03 0.03 0.04 0.04 0.05 0.07 0.05 0.02 0.01 0.01 0.01 0.01 0.02 0.02 0.01 0.01 0.01 0.01 0.02 0.02 0.03 0.03 0.03 0.02 0.02 0.02 0.01 0.01 0.01 0.01 0.01 0.01 0.01 0.01 0.01 0.01 0.01 0.01 0.01 0.01
0.03 0.02 0.02 0.03 0.03 0.03 0.04 0.05 0.06 0.04 0.02 0.01 0.01 0.01 0.01 0.01 0.01 0.01 0.01 0.01 0.01 0.02 0.03 0.02 0.02 0.02 0.01 0.02 0.01 0.00 0.00 0.00 0.01 0.01 0.01 0.01 0.01 0.02 0.02 0.01 0.01 0.01 0.01
0.03 0.03 0.03 0.04 0.04 0.04 0.04 0.03 0.04 0.03 0.02 0.02 0.02 0.01 0.01 0.01 0.01 0.01 0.01 0.01 0.02 0.02 0.02 0.03 0.03 0.02 0.01 0.01 0.00 0.00 0.00 0.00 0.00 0.01 0.01 0.01 0.02 0.03 0.02 0.02 0.01 0.01 0.01
0.03 0.03 0.04 0.05 0.05 0.04 0.03 0.02 0.02 0.02 0.02 0.02 0.02 0.01 0.01 0.01 0.01 0.00 0.01 0.01 0.02 0.02 0.01 0.02 0.02 0.02 0.01 0.01 0.01 0.01 0.01 0.01 0.01 0.01 0.01 0.02 0.03 0.03 0.03 0.02 0.01 0.01 0.01
0.03 0.04 0.04 0.05 0.05 0.03 0.02 0.02 0.02 0.01 0.01 0.02 0.02 0.02 0.01 0.01 0.01 0.01 0.01 0.01 0.02 0.02 0.02 0.02 0.02 0.02 0.01 0.02 0.02 0.02 0.02 0.02 0.01 0.01 0.02 0.03 0.04 0.05 0.05 0.03 0.01 0.01 0.01
0.03 0.04 0.03 0.04 0.05 0.04 0.02 0.02 0.02 0.01 0.01 0.01 0.01 0.01 0.01 0.00 0.01 0.01 0.02 0.02 0.02 0.02 0.02 0.02 0.02 0.02 0.02 0.02 0.02 0.02 0.02 0.01 0.01 0.01 0.02 0.03 0.03 0.03 0.03 0.02 0.01 0.01 0.00
0.02 0.03 0.03 0.05 0.05 0.03 0.02 0.02 0.01 0.01 0.01 0.01 0.01 0.01 0.01 0.01 0.01 0.02 0.02 0.01 0.01 0.02 0.02 0.02 0.02 0.02 0.01 0.01 0.01 0.01 0.01 0.01 0.00 0.01 0.02 0.02 0.02 0.02 0.02 0.02 0.01 0.01 0.00
0.02 0.02 0.02 0.03 0.03 0.02 0.01 0.02 0.02 0.02 0.01 0.00 0.01 0.01 0.01 0.01 0.01 0.01 0.01 0.01 0.01 0.02 0.02 0.02 0.02 0.01 0.01 0.01 0.01 0.01 0.01 0.00 0.00 0.01 0.01 0.01 0.02 0.02 0.02 0.02 0.01 0.01 0.01
0.01 0.01 0.01 0.02 0.02 0.01 0.02 0.02 0.02 0.02 0.01 0.00 0.01 0.01 0.01 0.01 0.00 0.00 0.01 0.01 0.01 0.02 0.03 0.03 0.02 0.01 0.01 0.01 0.01 0.00 0.00 0.01 0.01 0.01 0.01 0.01 0.01 0.02 0.02 0.02 0.02 0.02 0.02

GEFSMW_prec_meanprec_204.txt.gz
QPF
0.02 0.02 0.02 0.02 0.02 0.02 0.02 0.02 0.02 0.02 0.03 0.03 0.02 0.02 0.03 0.04 0.04 0.04 0.05 0.06 0.07 0.09 0.11 0.10 0.08 0.06 0.06 0.06 0.05 0.05 0.04 0.04 0.04 0.05 0.05 0.04 0.04 0.04 0.04 0.03 0.02 0.01 0.01
0.03 0.03 0.02 0.02 0.02 0.02 0.02 0.02 0.02 0.03 0.03 0.03 0.03 0.02 0.02 0.03 0.04 0.04 0.05 0.07 0.09 0.09 0.09 0.09 0.09 0.07 0.06 0.06 0.06 0.05 0.05 0.05 0.05 0.05 0.05 0.05 0.04 0.04 0.03 0.03 0.02 0.01 0.01
0.03 0.04 0.03 0.02 0.02 0.02 0.02 0.02 0.02 0.02 0.03 0.03 0.03 0.02 0.03 0.04 0.04 0.05 0.06 0.07 0.09 0.09 0.09 0.10 0.08 0.06 0.06 0.05 0.04 0.04 0.05 0.05 0.05 0.05 0.06 0.04 0.03 0.03 0.02 0.02 0.01 0.01 0.01
0.02 0.03 0.03 0.02 0.02 0.02 0.02 0.02 0.01 0.02 0.02 0.02 0.03 0.04 0.04 0.05 0.05 0.06 0.06 0.07 0.10 0.11 0.12 0.12 0.08 0.05 0.05 0.06 0.06 0.05 0.05 0.05 0.05 0.05 0.05 0.04 0.03 0.03 0.02 0.01 0.02 0.02 0.02
0.02 0.02 0.01 0.02 0.02 0.02 0.03 0.03 0.02 0.02 0.02 0.02 0.03 0.04 0.05 0.05 0.06 0.08 0.09 0.11 0.10 0.09 0.08 0.07 0.08 0.07 0.06 0.06 0.06 0.05 0.06 0.07 0.07 0.07 0.05 0.04 0.03 0.03 0.03 0.02 0.02 0.03 0.03
0.03 0.02 0.02 0.02 0.02 0.02 0.03 0.03 0.02 0.02 0.02 0.03 0.04 0.04 0.05 0.06 0.07 0.07 0.07 0.06 0.06 0.07 0.07 0.07 0.07 0.08 0.09 0.10 0.10 0.08 0.06 0.06 0.08 0.09 0.08 0.06 0.04 0.03 0.02 0.02 0.02 0.02 0.03
0.02 0.02 0.01 0.02 0.03 0.03 0.02 0.02 0.02 0.02 0.02 0.02 0.02 0.03 0.05 0.05 0.06 0.07 0.06 0.06 0.05 0.05 0.06 0.06 0.07 0.07 0.07 0.09 0.11 0.11 0.10 0.09 0.08 0.07 0.09 0.09 0.08 0.05 0.03 0.02 0.02 0.02 0.02
0.01 0.01 0.01 0.03 0.04 0.03 0.02 0.02 0.02 0.02 0.02 0.02 0.02 0.03 0.05 0.05 0.05 0.05 0.05 0.05 0.05 0.05 0.05 0.06 0.07 0.07 0.07 0.06 0.07 0.09 0.10 0.10 0.08 0.06 0.07 0.07 0.08 0.08 0.06 0.03 0.03 0.03 0.03
0.01 0.01 0.01 0.03 0.05 0.04 0.04 0.03 0.04 0.03 0.03 0.03 0.03 0.04 0.05 0.06 0.05 0.04 0.04 0.05 0.06 0.06 0.05 0.05 0.06 0.06 0.07 0.09 0.10 0.10 0.09 0.09 0.09 0.06 0.06 0.06 0.06 0.07 0.08 0.06 0.04 0.04 0.05
0.01 0.01 0.01 0.02 0.03 0.04 0.05 0.04 0.04 0.03 0.03 0.05 0.05 0.04 0.04 0.05 0.05 0.04 0.04 0.05 0.04 0.04 0.04 0.06 0.07 0.07 0.07 0.07 0.09 0.12 0.12 0.11 0.09 0.08 0.07 0.06 0.05 0.06 0.07 0.07 0.07 0.06 0.06
0.01 0.02 0.01 0.01 0.01 0.02 0.02 0.03 0.03 0.03 0.03 0.04 0.04 0.03 0.03 0.04 0.05 0.05 0.05 0.05 0.05 0.04 0.05 0.05 0.07 0.08 0.06 0.06 0.06 0.06 0.07 0.08 0.09 0.09 0.09 0.08 0.07 0.06 0.06 0.06 0.05 0.05 0.05
0.01 0.02 0.02 0.01 0.01 0.01 0.01 0.02 0.02 0.02 0.03 0.05 0.03 0.03 0.03 0.03 0.04 0.05 0.05 0.06 0.05 0.05 0.05 0.04 0.04 0.04 0.05 0.05 0.06 0.06 0.05 0.06 0.06 0.07 0.06 0.05 0.04 0.03 0.03 0.04 0.03 0.03 0.03
0.01 0.02 0.02 0.02 0.02 0.01 0.01 0.01 0.02 0.02 0.04 0.06 0.05 0.04 0.03 0.03 0.03 0.05 0.06 0.05 0.05 0.05 0.05 0.04 0.04 0.04 0.04 0.04 0.04 0.05 0.05 0.05 0.05 0.05 0.04 0.03 0.02 0.01 0.01 0.02 0.02 0.02 0.02
0.01 0.02 0.02 0.03 0.02 0.02 0.02 0.03 0.04 0.04 0.06 0.05 0.03 0.03 0.03 0.02 0.02 0.03 0.05 0.05 0.05 0.05 0.04 0.03 0.03 0.04 0.03 0.02 0.03 0.03 0.04 0.05 0.03 0.03 0.02 0.02 0.01 0.01 0.01 0.01 0.02 0.02 0.02
0.02 0.02 0.02 0.03 0.02 0.03 0.04 0.06 0.05 0.05 0.07 0.05 0.02 0.02 0.02 0.03 0.03 0.03 0.04 0.04 0.03 0.02 0.02 0.02 0.03 0.04 0.02 0.01 0.02 0.02 0.03 0.04 0.03 0.03 0.02 0.01 0.01 0.01 0.01 0.01 0.01 0.01 0.02
0.02 0.02 0.03 0.03 0.03 0.05 0.07 0.06 0.06 0.07 0.08 0.04 0.02 0.02 0.01 0.01 0.02 0.02 0.02 0.02 0.02 0.02 0.02 0.03 0.03 0.03 0.02 0.01 0.01 0.02 0.02 0.03 0.02 0.02 0.02 0.01 0.01 0.01 0.01 0.01 0.01 0.02 0.02
0.02 0.02 0.03 0.04 0.04 0.06 0.06 0.06 0.08 0.09 0.06 0.03 0.03 0.02 0.02 0.02 0.02 0.01 0.01 0.01 0.01 0.02 0.02 0.01 0.01 0.03 0.03 0.02 0.02 0.02 0.02 0.02 0.02 0.01 0.01 0.01 0.01 0.01 0.01 0.01 0.02 0.02 0.03
0.02 0.02 0.02 0.02 0.03 0.05 0.05 0.07 0.10 0.06 0.02 0.02 0.02 0.02 0.02 0.02 0.02 0.02 0.01 0.01 0.02 0.02 0.02 0.01 0.01 0.03 0.04 0.03 0.02 0.02 0.02 0.02 0.01 0.01 0.01 0.01 0.01 0.01 0.00 0.00 0.00 0.01 0.01
0.02 0.02 0.02 0.02 0.03 0.05 0.07 0.07 0.04 0.02 0.01 0.02 0.02 0.02 0.02 0.02 0.01 0.01 0.01 0.01 0.01 0.01 0.01 0.01 0.02 0.04 0.05 0.03 0.03 0.02 0.01 0.01 0.01 0.01 0.01 0.01 0.01 0.01 0.01 0.01 0.00 0.01 0.01
0.02 0.02 0.02 0.02 0.03 0.04 0.04 0.02 0.01 0.01 0.02 0.02 0.03 0.03 0.02 0.01 0.01 0.01 0.01 0.01 0.01 0.01 0.01 0.01 0.02 0.03 0.03 0.02 0.02 0.01 0.01 0.01 0.01 0.01 0.01 0.01 0.01 0.01 0.01 0.01 0.01 0.01 0.02
0.02 0.02 0.02 0.03 0.03 0.04 0.02 0.02 0.01 0.02 0.02 0.03 0.02 0.01 0.01 0.01 0.01 0.01 0.02 0.01 0.01 0.01 0.01 0.01 0.01 0.03 0.02 0.01 0.01 0.01 0.01 0.01 0.02 0.02 0.02 0.02 0.02 0.02 0.01 0.01 0.01 0.01 0.02
0.03 0.03 0.03 0.03 0.03 0.03 0.02 0.02 0.02 0.02 0.04 0.03 0.02 0.01 0.01 0.01 0.01 0.02 0.02 0.02 0.01 0.01 0.01 0.01 0.03 0.03 0.02 0.01 0.01 0.01 0.02 0.03 0.03 0.04 0.03 0.02 0.02 0.01 0.01 0.01 0.01 0.01 0.01
0.04 0.04 0.03 0.02 0.02 0.02 0.02 0.03 0.02 0.03 0.03 0.02 0.02 0.02 0.01 0.01 0.01 0.02 0.02 0.01 0.01 0.01 0.01 0.02 0.04 0.04 0.02 0.02 0.03 0.04 0.05 0.04 0.04 0.04 0.03 0.02 0.01 0.01 0.00 0.01 0.01 0.01 0.02
0.03 0.03 0.03 0.02 0.02 0.02 0.02 0.03 0.02 0.02 0.02 0.01 0.01 0.01 0.01 0.01 0.02 0.03 0.03 0.03 0.02 0.01 0.02 0.02 0.03 0.03 0.03 0.03 0.03 0.04 0.03 0.03 0.03 0.03 0.02 0.01 0.01 0.01 0.01 0.01 0.02 0.02 0.01
0.03 0.03 0.03 0.02 0.02 0.02 0.02 0.02 0.02 0.02 0.01 0.01 0.00 0.00 0.01 0.01 0.02 0.02 0.02 0.02 0.02 0.02 0.01 0.01 0.02 0.01 0.02 0.02 0.02 0.02 0.02 0.02 0.02 0.02 0.01 0.01 0.02 0.02 0.01 0.01 0.01 0.02 0.02
0.02 0.01 0.01 0.01 0.01 0.01 0.01 0.01 0.02 0.02 0.01 0.01 0.01 0.01 0.01 0.01 0.01 0.02 0.01 0.01 0.01 0.01 0.01 0.02 0.02 0.01 0.02 0.02 0.02 0.02 0.01 0.01 0.01 0.01 0.02 0.03 0.03 0.03 0.02 0.01 0.01 0.01 0.02

GEFSMW_prec_meanprec_210.txt.gz
QPF
0.05 0.03 0.03 0.03 0.06 0.08 0.04 0.04 0.03 0.03 0.05 0.07 0.06 0.06 0.06 0.06 0.06 0.05 0.06 0.06 0.06 0.06 0.08 0.12 0.18 0.19 0.17 0.14 0.10 0.08 0.07 0.07 0.07 0.07 0.07 0.05 0.04 0.04 0.05 0.05 0.04 0.04 0.03
0.06 0.03 0.02 0.03 0.06 0.05 0.04 0.04 0.04 0.04 0.04 0.06 0.08 0.09 0.10 0.08 0.07 0.06 0.05 0.05 0.05 0.04 0.04 0.06 0.08 0.12 0.12 0.11 0.10 0.09 0.09 0.08 0.07 0.07 0.08 0.08 0.06 0.05 0.04 0.04 0.03 0.03 0.03
0.05 0.03 0.03 0.04 0.05 0.04 0.04 0.03 0.04 0.05 0.04 0.05 0.07 0.08 0.09 0.09 0.08 0.06 0.05 0.05 0.04 0.03 0.03 0.04 0.06 0.09 0.09 0.08 0.08 0.09 0.10 0.10 0.10 0.09 0.08 0.08 0.07 0.06 0.05 0.03 0.02 0.02 0.02
0.03 0.02 0.02 0.03 0.03 0.03 0.04 0.04 0.04 0.04 0.04 0.05 0.07 0.08 0.09 0.10 0.09 0.06 0.04 0.04 0.04 0.04 0.03 0.04 0.05 0.06 0.07 0.08 0.08 0.09 0.10 0.10 0.10 0.12 0.12 0.11 0.10 0.09 0.07 0.05 0.03 0.03 0.03
0.03 0.02 0.02 0.02 0.02 0.02 0.03 0.03 0.03 0.04 0.05 0.05 0.06 0.07 0.09 0.07 0.07 0.06 0.05 0.05 0.04 0.04 0.03 0.04 0.04 0.05 0.07 0.08 0.07 0.09 0.09 0.10 0.11 0.12 0.13 0.13 0.12 0.09 0.08 0.05 0.04 0.04 0.03
0.03 0.03 0.03 0.03 0.02 0.02 0.03 0.03 0.04 0.04 0.05 0.05 0.05 0.06 0.06 0.05 0.04 0.05 0.04 0.04 0.04 0.04 0.04 0.05 0.06 0.07 0.09 0.10 0.09 0.09 0.08 0.09 0.09 0.10 0.12 0.14 0.15 0.12 0.09 0.06 0.04 0.04 0.03
0.03 0.03 0.03 0.03 0.03 0.02 0.02 0.04 0.04 0.05 0.05 0.05 0.05 0.05 0.04 0.04 0.04 0.05 0.05 0.04 0.04 0.04 0.05 0.05 0.06 0.08 0.10 0.10 0.10 0.09 0.08 0.09 0.10 0.10 0.10 0.10 0.11 0.13 0.13 0.11 0.08 0.06 0.05
0.03 0.03 0.03 0.02 0.02 0.02 0.02 0.03 0.04 0.04 0.04 0.05 0.05 0.05 0.05 0.05 0.06 0.06 0.06 0.05 0.05 0.05 0.07 0.07 0.09 0.13 0.13 0.10 0.10 0.09 0.08 0.08 0.09 0.09 0.10 0.10 0.09 0.08 0.10 0.11 0.10 0.09 0.06
0.02 0.03 0.03 0.03 0.03 0.03 0.03 0.03 0.04 0.05 0.05 0.05 0.06 0.07 0.07 0.07 0.07 0.07 0.06 0.06 0.07 0.07 0.08 0.10 0.11 0.12 0.12 0.10 0.09 0.08 0.08 0.09 0.10 0.10 0.10 0.09 0.08 0.07 0.07 0.08 0.09 0.09 0.08
0.01 0.02 0.02 0.03 0.04 0.04 0.05 0.03 0.04 0.06 0.06 0.05 0.06 0.06 0.06 0.09 0.10 0.08 0.07 0.08 0.09 0.09 0.10 0.10 0.11 0.11 0.11 0.09 0.07 0.07 0.07 0.08 0.10 0.10 0.10 0.10 0.08 0.08 0.08 0.10 0.11 0.11 0.11
0.01 0.01 0.02 0.03 0.04 0.05 0.07 0.06 0.05 0.04 0.04 0.03 0.04 0.05 0.05 0.07 0.09 0.09 0.08 0.08 0.10 0.10 0.10 0.09 0.08 0.08 0.09 0.09 0.07 0.08 0.09 0.10 0.10 0.12 0.13 0.11 0.09 0.10 0.11 0.12 0.13 0.14 0.12
0.01 0.01 0.02 0.03 0.03 0.03 0.04 0.06 0.05 0.04 0.04 0.03 0.03 0.04 0.05 0.06 0.09 0.10 0.08 0.08 0.09 0.08 0.07 0.06 0.05 0.05 0.06 0.07 0.08 0.08 0.09 0.10 0.11 0.11 0.11 0.09 0.07 0.07 0.09 0.09 0.09 0.09 0.08
0.01 0.01 0.02 0.03 0.03 0.03 0.03 0.04 0.05 0.06 0.05 0.04 0.03 0.03 0.03 0.04 0.06 0.07 0.08 0.08 0.07 0.05 0.05 0.04 0.06 0.06 0.06 0.07 0.07 0.07 0.07 0.07 0.09 0.10 0.09 0.07 0.06 0.05 0.05 0.05 0.06 0.06 0.05
0.01 0.02 0.02 0.03 0.04 0.03 0.03 0.03 0.04 0.06 0.07 0.06 0.04 0.03 0.03 0.04 0.04 0.06 0.08 0.05 0.05 0.05 0.05 0.06 0.06 0.06 0.06 0.08 0.06 0.04 0.04 0.05 0.06 0.08 0.07 0.05 0.04 0.04 0.05 0.04 0.04 0.04 0.04
0.01 0.01 0.03 0.03 0.04 0.04 0.03 0.04 0.04 0.06 0.08 0.07 0.05 0.03 0.03 0.04 0.04 0.05 0.05 0.05 0.06 0.05 0.05 0.07 0.08 0.06 0.05 0.03 0.02 0.02 0.02 0.03 0.04 0.07 0.06 0.05 0.04 0.03 0.03 0.03 0.03 0.03 0.04
0.01 0.01 0.03 0.04 0.05 0.05 0.04 0.04 0.05 0.06 0.08 0.10 0.08 0.04 0.03 0.03 0.03 0.04 0.04 0.04 0.05 0.07 0.09 0.09 0.06 0.03 0.02 0.02 0.01 0.02 0.03 0.04 0.05 0.05 0.05 0.04 0.03 0.02 0.02 0.02 0.01 0.01 0.02
0.02 0.02 0.03 0.05 0.05 0.05 0.04 0.04 0.05 0.07 0.07 0.06 0.04 0.04 0.04 0.04 0.03 0.02 0.03 0.04 0.05 0.08 0.07 0.05 0.03 0.03 0.03 0.01 0.01 0.01 0.03 0.04 0.05 0.04 0.04 0.03 0.02 0.02 0.02 0.02 0.02 0.01 0.02
0.03 0.03 0.04 0.05 0.05 0.05 0.05 0.06 0.05 0.05 0.05 0.05 0.04 0.04 0.04 0.04 0.04 0.03 0.04 0.05 0.05 0.05 0.05 0.03 0.03 0.04 0.03 0.01 0.00 0.01 0.02 0.03 0.04 0.03 0.02 0.02 0.02 0.02 0.03 0.03 0.02 0.02 0.03
0.04 0.04 0.04 0.04 0.05 0.05 0.05 0.05 0.04 0.03 0.04 0.05 0.06 0.05 0.04 0.04 0.05 0.04 0.05 0.07 0.06 0.05 0.04 0.03 0.03 0.03 0.03 0.02 0.02 0.03 0.03 0.02 0.04 0.04 0.02 0.02 0.02 0.03 0.03 0.04 0.03 0.03 0.03
0.03 0.04 0.04 0.04 0.05 0.05 0.03 0.02 0.02 0.02 0.03 0.04 0.04 0.05 0.05 0.05 0.05 0.05 0.06 0.05 0.05 0.04 0.03 0.03 0.03 0.04 0.05 0.04 0.02 0.03 0.02 0.02 0.04 0.03 0.03 0.04 0.04 0.04 0.04 0.03 0.04 0.04 0.04
0.02 0.02 0.02 0.02 0.03 0.03 0.04 0.03 0.02 0.02 0.03 0.03 0.03 0.05 0.05 0.05 0.05 0.05 0.05 0.05 0.04 0.03 0.03 0.03 0.04 0.07 0.07 0.03 0.02 0.02 0.02 0.02 0.02 0.02 0.03 0.03 0.03 0.04 0.04 0.05 0.05 0.05 0.05
0.01 0.01 0.02 0.02 0.02 0.03 0.04 0.03 0.03 0.03 0.03 0.03 0.05 0.03 0.04 0.05 0.04 0.03 0.03 0.03 0.03 0.02 0.04 0.04 0.07 0.09 0.05 0.03 0.03 0.03 0.03 0.02 0.01 0.02 0.04 0.04 0.05 0.05 0.05 0.04 0.04 0.04 0.03
0.01 0.01 0.01 0.02 0.02 0.03 0.03 0.03 0.04 0.03 0.03 0.03 0.03 0.02 0.03 0.04 0.03 0.03 0.03 0.03 0.02 0.02 0.04 0.06 0.06 0.05 0.04 0.04 0.04 0.04 0.03 0.02 0.02 0.04 0.05 0.05 0.05 0.04 0.04 0.03 0.02 0.02 0.02
0.01 0.01 0.01 0.01 0.01 0.01 0.02 0.03 0.03 0.03 0.04 0.03 0.02 0.02 0.02 0.02 0.02 0.02 0.03 0.02 0.02 0.03 0.04 0.05 0.04 0.04 0.04 0.04 0.03 0.03 0.02 0.02 0.02 0.02 0.02 0.03 0.02 0.02 0.02 0.03 0.02 0.02 0.02
0.02 0.01 0.01 0.01 0.01 0.01 0.02 0.03 0.03 0.03 0.04 0.03 0.02 0.01 0.01 0.02 0.02 0.02 0.02 0.01 0.02 0.02 0.03 0.03 0.03 0.02 0.02 0.02 0.02 0.02 0.02 0.01 0.00 0.00 0.01 0.01 0.01 0.02 0.03 0.03 0.03 0.03 0.02
0.01 0.01 0.01 0.01 0.01 0.01 0.02 0.03 0.03 0.04 0.04 0.03 0.03 0.02 0.02 0.02 0.02 0.01 0.01 0.01 0.01 0.01 0.02 0.02 0.01 0.01 0.01 0.01 0.01 0.01 0.01 0.01 0.00 0.00 0.01 0.02 0.01 0.01 0.02 0.03 0.03 0.02 0.01

GEFSMW_prec_meanprec_216.txt.gz
QPF
0.06 0.06 0.07 0.08 0.09 0.08 0.06 0.06 0.06 0.08 0.06 0.06 0.06 0.05 0.07 0.12 0.14 0.12 0.10 0.08 0.05 0.04 0.03 0.03 0.03 0.03 0.05 0.06 0.09 0.09 0.09 0.10 0.11 0.11 0.09 0.07 0.07 0.07 0.06 0.06 0.05 0.04 0.04
0.09 0.08 0.09 0.10 0.10 0.11 0.11 0.09 0.04 0.04 0.03 0.03 0.04 0.05 0.07 0.12 0.14 0.14 0.12 0.08 0.06 0.05 0.03 0.03 0.03 0.04 0.05 0.05 0.05 0.05 0.05 0.07 0.09 0.09 0.07 0.06 0.05 0.05 0.06 0.07 0.06 0.04 0.04
0.12 0.12 0.13 0.11 0.07 0.07 0.06 0.04 0.04 0.03 0.02 0.03 0.05 0.06 0.07 0.08 0.12 0.13 0.13 0.11 0.08 0.06 0.05 0.05 0.04 0.04 0.04 0.04 0.04 0.04 0.05 0.05 0.07 0.11 0.10 0.06 0.04 0.02 0.03 0.04 0.05 0.03 0.03
0.13 0.15 0.14 0.09 0.06 0.04 0.04 0.04 0.04 0.04 0.03 0.04 0.04 0.05 0.04 0.04 0.07 0.08 0.08 0.08 0.07 0.06 0.07 0.08 0.06 0.05 0.04 0.03 0.04 0.05 0.04 0.05 0.05 0.08 0.10 0.08 0.07 0.06 0.05 0.06 0.06 0.03 0.03
0.11 0.11 0.10 0.10 0.10 0.06 0.04 0.04 0.03 0.03 0.04 0.03 0.03 0.03 0.03 0.03 0.04 0.03 0.03 0.04 0.05 0.05 0.07 0.08 0.08 0.06 0.05 0.04 0.04 0.05 0.05 0.07 0.07 0.06 0.08 0.10 0.10 0.09 0.08 0.06 0.06 0.04 0.03
0.08 0.08 0.08 0.06 0.05 0.04 0.04 0.03 0.03 0.04 0.04 0.04 0.04 0.03 0.03 0.03 0.02 0.02 0.02 0.02 0.04 0.04 0.05 0.05 0.05 0.06 0.06 0.05 0.06 0.08 0.08 0.09 0.09 0.08 0.08 0.08 0.08 0.06 0.06 0.04 0.04 0.03 0.03
0.06 0.05 0.04 0.04 0.03 0.03 0.03 0.03 0.03 0.04 0.05 0.05 0.04 0.03 0.03 0.03 0.02 0.02 0.02 0.02 0.03 0.03 0.04 0.05 0.04 0.05 0.05 0.06 0.07 0.07 0.07 0.07 0.07 0.05 0.05 0.05 0.05 0.04 0.05 0.05 0.04 0.04 0.03
0.04 0.03 0.03 0.03 0.03 0.03 0.03 0.03 0.03 0.03 0.04 0.05 0.05 0.04 0.04 0.04 0.03 0.03 0.03 0.03 0.04 0.03 0.04 0.06 0.05 0.06 0.07 0.06 0.06 0.05 0.05 0.04 0.04 0.04 0.04 0.04 0.04 0.04 0.04 0.05 0.05 0.05 0.04
0.04 0.03 0.02 0.03 0.03 0.03 0.03 0.02 0.04 0.04 0.04 0.04 0.06 0.06 0.05 0.05 0.04 0.03 0.04 0.05 0.06 0.06 0.07 0.06 0.06 0.07 0.07 0.06 0.05 0.04 0.04 0.03 0.03 0.03 0.05 0.06 0.05 0.05 0.05 0.06 0.06 0.06 0.05
0.04 0.03 0.02 0.03 0.03 0.03 0.03 0.03 0.04 0.04 0.03 0.03 0.04 0.05 0.05 0.06 0.07 0.04 0.04 0.06 0.06 0.06 0.07 0.07 0.07 0.08 0.09 0.08 0.04 0.02 0.02 0.03 0.03 0.03 0.03 0.03 0.03 0.03 0.03 0.05 0.06 0.06 0.06
0.02 0.02 0.02 0.04 0.04 0.04 0.05 0.04 0.05 0.06 0.06 0.04 0.03 0.03 0.04 0.05 0.06 0.05 0.04 0.05 0.05 0.04 0.05 0.05 0.05 0.04 0.05 0.05 0.03 0.02 0.02 0.02 0.03 0.02 0.02 0.03 0.03 0.03 0.03 0.03 0.04 0.06 0.07
0.03 0.02 0.02 0.03 0.04 0.05 0.06 0.06 0.05 0.06 0.05 0.04 0.03 0.02 0.04 0.08 0.06 0.05 0.05 0.05 0.05 0.03 0.02 0.02 0.03 0.03 0.03 0.02 0.02 0.02 0.02 0.02 0.02 0.02 0.02 0.03 0.04 0.04 0.03 0.03 0.03 0.05 0.06
0.03 0.02 0.02 0.02 0.03 0.03 0.04 0.03 0.04 0.05 0.05 0.03 0.02 0.02 0.03 0.05 0.05 0.05 0.06 0.05 0.04 0.03 0.02 0.02 0.03 0.03 0.03 0.02 0.02 0.02 0.01 0.01 0.01 0.02 0.02 0.02 0.04 0.04 0.03 0.03 0.03 0.03 0.04
0.03 0.02 0.01 0.01 0.01 0.01 0.01 0.02 0.02 0.03 0.04 0.04 0.04 0.04 0.04 0.04 0.05 0.04 0.05 0.04 0.02 0.02 0.03 0.03 0.02 0.02 0.03 0.03 0.02 0.01 0.01 0.01 0.01 0.01 0.02 0.02 0.03 0.04 0.03 0.03 0.03 0.03 0.04
0.02 0.01 0.01 0.01 0.01 0.01 0.01 0.01 0.01 0.02 0.04 0.05 0.05 0.05 0.04 0.04 0.03 0.03 0.04 0.04 0.02 0.02 0.02 0.02 0.02 0.03 0.02 0.01 0.01 0.02 0.01 0.01 0.01 0.01 0.02 0.02 0.03 0.04 0.03 0.02 0.03 0.03 0.03
0.02 0.01 0.01 0.01 0.01 0.01 0.01 0.00 0.01 0.01 0.01 0.03 0.04 0.04 0.03 0.03 0.04 0.04 0.06 0.05 0.03 0.03 0.02 0.02 0.02 0.02 0.01 0.01 0.01 0.01 0.01 0.01 0.01 0.02 0.03 0.03 0.04 0.04 0.03 0.03 0.02 0.02 0.02
0.02 0.01 0.01 0.01 0.01 0.01 0.01 0.01 0.01 0.02 0.04 0.04 0.03 0.03 0.03 0.04 0.05 0.05 0.05 0.05 0.04 0.03 0.02 0.02 0.02 0.02 0.01 0.01 0.00 0.01 0.01 0.01 0.02 0.04 0.06 0.05 0.04 0.04 0.02 0.02 0.02 0.02 0.02
0.03 0.02 0.01 0.01 0.01 0.02 0.02 0.02 0.03 0.04 0.03 0.02 0.02 0.03 0.04 0.05 0.06 0.05 0.04 0.04 0.03 0.02 0.02 0.02 0.01 0.01 0.01 0.01 0.01 0.01 0.01 0.01 0.02 0.05 0.08 0.07 0.05 0.03 0.02 0.02 0.01 0.01 0.02
0.02 0.02 0.02 0.02 0.02 0.02 0.02 0.02 0.02 0.01 0.01 0.01 0.01 0.02 0.03 0.06 0.07 0.05 0.04 0.03 0.03 0.02 0.01 0.01 0.01 0.01 0.01 0.01 0.01 0.01 0.00 0.01 0.03 0.06 0.08 0.06 0.04 0.03 0.02 0.01 0.01 0.02 0.02
0.01 0.00 0.00 0.00 0.01 0.01 0.01 0.01 0.01 0.01 0.01 0.01 0.02 0.02 0.04 0.07 0.05 0.04 0.04 0.03 0.02 0.02 0.02 0.01 0.01 0.01 0.00 0.00 0.01 0.01 0.01 0.02 0.05 0.06 0.05 0.05 0.03 0.03 0.02 0.01 0.01 0.02 0.03
0.01 0.00 0.00 0.00 0.00 0.00 0.00 0.01 0.01 0.01 0.01 0.02 0.03 0.05 0.08 0.05 0.03 0.03 0.02 0.02 0.02 0.02 0.01 0.01 0.01 0.01 0.00 0.01 0.01 0.02 0.03 0.05 0.05 0.03 0.02 0.03 0.03 0.03 0.03 0.02 0.02 0.02 0.03
0.01 0.00 0.00 0.00 0.00 0.00 0.01 0.01 0.01 0.01 0.02 0.03 0.03 0.03 0.03 0.02 0.01 0.01 0.02 0.02 0.02 0.02 0.02 0.02 0.02 0.01 0.00 0.00 0.01 0.02 0.02 0.02 0.02 0.01 0.01 0.02 0.03 0.03 0.03 0.03 0.04 0.04 0.03
0.01 0.00 0.00 0.00 0.00 0.00 0.00 0.01 0.01 0.02 0.03 0.03 0.02 0.01 0.01 0.01 0.01 0.01 0.01 0.03 0.03 0.02 0.02 0.02 0.01 0.01 0.01 0.01 0.01 0.01 0.02 0.02 0.01 0.01 0.01 0.01 0.02 0.02 0.01 0.01 0.02 0.02 0.02
0.01 0.00 0.00 0.00 0.00 0.00 0.00 0.01 0.02 0.04 0.03 0.01 0.01 0.01 0.00 0.00 0.00 0.01 0.01 0.02 0.03 0.03 0.02 0.01 0.01 0.01 0.01 0.01 0.01 0.01 0.01 0.01 0.01 0.01 0.01 0.01 0.01 0.01 0.00 0.01 0.01 0.01 0.01
0.00 0.00 0.00 0.00 0.00 0.00 0.01 0.01 0.02 0.05 0.03 0.01 0.01 0.00 0.00 0.01 0.00 0.00 0.01 0.01 0.02 0.03 0.04 0.03 0.02 0.02 0.02 0.02 0.02 0.02 0.02 0.02 0.02 0.02 0.02 0.01 0.01 0.01 0.00 0.00 0.00 0.00 0.01
0.01 0.00 0.00 0.00 0.00 0.00 0.00 0.01 0.04 0.06 0.02 0.01 0.01 0.00 0.01 0.00 0.01 0.01 0.01 0.02 0.02 0.02 0.03 0.03 0.03 0.02 0.02 0.01 0.01 0.01 0.02 0.02 0.02 0.02 0.02 0.02 0.02 0.02 0.01 0.01 0.01 0.00 0.00

GEFSMW_prec_meanprec_222.txt.gz
QPF
0.12 0.13 0.13 0.10 0.07 0.06 0.09 0.07 0.04 0.05 0.05 0.02 0.01 0.01 0.01 0.02 0.02 0.02 0.03 0.05 0.07 0.09 0.08 0.08 0.08 0.07 0.04 0.02 0.01 0.02 0.03 0.03 0.04 0.05 0.05 0.04 0.04 0.04 0.05 0.06 0.06 0.05 0.04
0.11 0.12 0.13 0.10 0.10 0.08 0.08 0.07 0.06 0.05 0.04 0.02 0.02 0.02 0.02 0.01 0.02 0.03 0.04 0.05 0.07 0.08 0.08 0.07 0.06 0.06 0.05 0.03 0.02 0.02 0.02 0.03 0.04 0.04 0.05 0.04 0.04 0.04 0.04 0.05 0.07 0.06 0.05
0.13 0.12 0.11 0.09 0.10 0.09 0.07 0.07 0.08 0.05 0.04 0.04 0.03 0.02 0.01 0.01 0.02 0.04 0.07 0.07 0.06 0.03 0.02 0.03 0.03 0.03 0.03 0.03 0.03 0.03 0.02 0.02 0.02 0.03 0.05 0.06 0.06 0.05 0.05 0.04 0.05 0.06 0.05
0.10 0.09 0.09 0.09 0.11 0.10 0.08 0.09 0.10 0.05 0.05 0.04 0.03 0.02 0.02 0.03 0.03 0.03 0.04 0.04 0.04 0.02 0.02 0.02 0.02 0.03 0.03 0.03 0.03 0.03 0.02 0.01 0.02 0.03 0.04 0.05 0.05 0.06 0.07 0.06 0.06 0.05 0.05
0.09 0.07 0.08 0.09 0.10 0.09 0.06 0.06 0.06 0.05 0.04 0.03 0.03 0.03 0.04 0.04 0.03 0.03 0.03 0.02 0.02 0.02 0.02 0.01 0.01 0.02 0.03 0.04 0.03 0.03 0.02 0.02 0.03 0.03 0.03 0.04 0.04 0.04 0.05 0.07 0.07 0.07 0.05
0.09 0.11 0.11 0.09 0.09 0.08 0.06 0.04 0.04 0.04 0.03 0.03 0.03 0.03 0.04 0.04 0.03 0.03 0.03 0.02 0.02 0.02 0.02 0.03 0.03 0.03 0.04 0.05 0.04 0.03 0.03 0.03 0.04 0.05 0.05 0.04 0.03 0.03 0.04 0.05 0.06 0.08 0.07
0.08 0.09 0.09 0.08 0.07 0.07 0.05 0.04 0.04 0.02 0.02 0.04 0.04 0.04 0.04 0.04 0.03 0.03 0.03 0.02 0.02 0.01 0.02 0.03 0.03 0.03 0.03 0.04 0.04 0.04 0.03 0.03 0.04 0.05 0.05 0.04 0.03 0.02 0.03 0.04 0.05 0.06 0.05
0.06 0.06 0.06 0.06 0.06 0.05 0.06 0.06 0.04 0.04 0.04 0.05 0.05 0.05 0.04 0.04 0.04 0.03 0.03 0.02 0.01 0.02 0.03 0.04 0.04 0.04 0.05 0.05 0.05 0.04 0.04 0.04 0.05 0.06 0.06 0.05 0.04 0.03 0.03 0.03 0.04 0.06 0.05
0.05 0.04 0.04 0.05 0.05 0.04 0.05 0.06 0.04 0.04 0.05 0.05 0.04 0.04 0.04 0.05 0.05 0.04 0.03 0.03 0.02 0.02 0.03 0.03 0.03 0.06 0.07 0.09 0.08 0.06 0.05 0.05 0.06 0.06 0.06 0.05 0.04 0.03 0.02 0.02 0.03 0.05 0.07
0.03 0.03 0.02 0.03 0.03 0.03 0.04 0.04 0.03 0.03 0.03 0.04 0.04 0.03 0.03 0.04 0.05 0.05 0.05 0.04 0.04 0.04 0.07 0.05 0.04 0.06 0.08 0.11 0.12 0.11 0.09 0.08 0.07 0.07 0.07 0.05 0.04 0.03 0.02 0.02 0.02 0.03 0.03
0.02 0.03 0.03 0.02 0.02 0.03 0.03 0.03 0.03 0.03 0.03 0.03 0.03 0.02 0.02 0.02 0.04 0.06 0.05 0.05 0.05 0.07 0.09 0.06 0.04 0.05 0.06 0.08 0.09 0.10 0.10 0.09 0.07 0.06 0.05 0.05 0.04 0.03 0.02 0.01 0.01 0.02 0.02
0.03 0.03 0.03 0.02 0.02 0.02 0.02 0.03 0.03 0.04 0.03 0.02 0.02 0.02 0.02 0.02 0.04 0.06 0.05 0.05 0.07 0.08 0.08 0.06 0.05 0.05 0.06 0.06 0.05 0.07 0.07 0.07 0.04 0.03 0.03 0.03 0.03 0.03 0.02 0.02 0.02 0.02 0.03
0.02 0.02 0.02 0.02 0.02 0.02 0.02 0.02 0.03 0.03 0.03 0.02 0.02 0.02 0.02 0.02 0.03 0.03 0.04 0.05 0.06 0.06 0.06 0.04 0.03 0.03 0.03 0.03 0.04 0.04 0.04 0.04 0.03 0.02 0.02 0.02 0.02 0.03 0.03 0.02 0.02 0.02 0.03
0.01 0.02 0.01 0.01 0.02 0.02 0.02 0.02 0.02 0.02 0.02 0.02 0.03 0.03 0.03 0.02 0.02 0.03 0.04 0.06 0.07 0.05 0.04 0.03 0.01 0.01 0.01 0.02 0.02 0.02 0.02 0.02 0.02 0.02 0.02 0.02 0.02 0.02 0.03 0.04 0.03 0.02 0.02
0.02 0.02 0.01 0.01 0.01 0.01 0.01 0.01 0.02 0.02 0.01 0.02 0.02 0.02 0.01 0.02 0.04 0.05 0.05 0.06 0.06 0.05 0.04 0.03 0.02 0.01 0.01 0.01 0.02 0.01 0.01 0.01 0.02 0.02 0.02 0.03 0.03 0.04 0.03 0.03 0.03 0.02 0.02
0.02 0.01 0.00 0.00 0.01 0.01 0.01 0.01 0.01 0.01 0.01 0.02 0.02 0.02 0.03 0.04 0.04 0.05 0.06 0.06 0.05 0.04 0.03 0.02 0.02 0.01 0.01 0.01 0.01 0.01 0.01 0.01 0.01 0.01 0.02 0.02 0.03 0.03 0.03 0.03 0.02 0.02 0.02
0.02 0.01 0.00 0.00 0.01 0.01 0.01 0.01 0.01 0.01 0.01 0.02 0.04 0.05 0.05 0.05 0.04 0.04 0.03 0.03 0.02 0.02 0.01 0.01 0.01 0.01 0.01 0.01 0.01 0.01 0.00 0.00 0.01 0.01 0.01 0.02 0.02 0.02 0.02 0.02 0.02 0.02 0.02
0.03 0.02 0.01 0.01 0.01 0.02 0.02 0.02 0.02 0.02 0.03 0.04 0.04 0.04 0.04 0.04 0.03 0.02 0.01 0.01 0.01 0.02 0.01 0.01 0.01 0.01 0.01 0.01 0.01 0.00 0.00 0.00 0.00 0.01 0.01 0.02 0.03 0.04 0.03 0.02 0.02 0.02 0.01
0.02 0.02 0.02 0.02 0.02 0.03 0.03 0.03 0.02 0.02 0.02 0.01 0.02 0.02 0.02 0.01 0.01 0.01 0.01 0.00 0.00 0.01 0.02 0.01 0.01 0.01 0.01 0.01 0.01 0.01 0.01 0.00 0.00 0.00 0.01 0.03 0.06 0.06 0.04 0.02 0.02 0.02 0.01
0.01 0.01 0.01 0.01 0.02 0.02 0.01 0.01 0.01 0.01 0.01 0.01 0.02 0.01 0.01 0.02 0.02 0.01 0.01 0.00 0.00 0.00 0.01 0.01 0.01 0.01 0.01 0.01 0.01 0.01 0.01 0.02 0.01 0.01 0.02 0.06 0.07 0.04 0.03 0.03 0.02 0.02 0.02
0.01 0.01 0.01 0.01 0.01 0.01 0.01 0.00 0.00 0.01 0.01 0.01 0.01 0.01 0.00 0.01 0.01 0.00 0.00 0.00 0.00 0.00 0.00 0.01 0.01 0.01 0.02 0.02 0.02 0.03 0.03 0.02 0.02 0.02 0.04 0.05 0.05 0.03 0.03 0.03 0.02 0.03 0.03
0.01 0.01 0.01 0.01 0.01 0.01 0.00 0.00 0.00 0.01 0.01 0.01 0.00 0.00 0.00 0.00 0.00 0.00 0.00 0.00 0.00 0.00 0.01 0.01 0.02 0.02 0.03 0.03 0.03 0.02 0.01 0.01 0.01 0.02 0.02 0.02 0.02 0.02 0.02 0.04 0.03 0.04 0.03
0.01 0.01 0.01 0.01 0.00 0.00 0.00 0.00 0.01 0.01 0.01 0.00 0.00 0.00 0.00 0.00 0.00 0.00 0.00 0.00 0.00 0.00 0.01 0.01 0.01 0.02 0.03 0.03 0.02 0.02 0.02 0.02 0.02 0.01 0.01 0.01 0.01 0.01 0.02 0.03 0.05 0.05 0.04
0.01 0.01 0.01 0.01 0.01 0.01 0.00 0.00 0.01 0.01 0.00 0.00 0.00 0.00 0.00 0.00 0.00 0.00 0.00 0.00 0.00 0.01 0.01 0.01 0.01 0.02 0.02 0.02 0.02 0.02 0.02 0.02 0.02 0.02 0.01 0.01 0.01 0.01 0.01 0.01 0.02 0.03 0.04
0.01 0.01 0.01 0.01 0.01 0.01 0.01 0.00 0.01 0.01 0.00 0.00 0.00 0.00 0.00 0.00 0.00 0.00 0.00 0.00 0.01 0.00 0.00 0.01 0.01 0.01 0.01 0.01 0.01 0.02 0.02 0.01 0.01 0.01 0.01 0.01 0.01 0.01 0.01 0.01 0.01 0.01 0.01
0.01 0.01 0.01 0.01 0.01 0.01 0.01 0.01 0.01 0.01 0.01 0.01 0.01 0.01 0.00 0.00 0.00 0.00 0.00 0.00 0.00 0.00 0.00 0.00 0.00 0.01 0.01 0.01 0.02 0.02 0.02 0.01 0.01 0.01 0.01 0.01 0.01 0.00 0.00 0.01 0.01 0.01 0.01

GEFSMW_prec_meanprec_228.txt.gz
QPF
0.05 0.06 0.07 0.07 0.05 0.03 0.02 0.02 0.02 0.02 0.01 0.01 0.02 0.02 0.02 0.03 0.04 0.04 0.02 0.03 0.04 0.05 0.07 0.07 0.06 0.06 0.08 0.10 0.10 0.06 0.04 0.03 0.03 0.04 0.04 0.02 0.03 0.03 0.04 0.04 0.05 0.05 0.04
0.05 0.05 0.06 0.08 0.06 0.04 0.02 0.01 0.01 0.01 0.01 0.02 0.02 0.02 0.03 0.03 0.03 0.03 0.02 0.02 0.02 0.03 0.04 0.06 0.05 0.05 0.07 0.07 0.07 0.08 0.05 0.03 0.04 0.05 0.05 0.04 0.03 0.02 0.02 0.03 0.05 0.07 0.06
0.08 0.07 0.06 0.08 0.07 0.06 0.03 0.01 0.01 0.02 0.02 0.02 0.03 0.04 0.04 0.03 0.03 0.02 0.02 0.02 0.02 0.01 0.02 0.03 0.03 0.05 0.05 0.04 0.05 0.05 0.05 0.04 0.03 0.04 0.06 0.06 0.05 0.03 0.03 0.03 0.04 0.06 0.08
0.06 0.04 0.05 0.06 0.07 0.07 0.04 0.03 0.04 0.03 0.03 0.03 0.05 0.06 0.05 0.04 0.04 0.02 0.02 0.02 0.02 0.02 0.02 0.03 0.03 0.04 0.05 0.05 0.04 0.04 0.04 0.04 0.04 0.05 0.06 0.07 0.06 0.05 0.05 0.04 0.04 0.05 0.07
0.05 0.06 0.06 0.06 0.06 0.07 0.06 0.06 0.06 0.04 0.03 0.04 0.05 0.05 0.05 0.04 0.03 0.02 0.03 0.03 0.03 0.02 0.01 0.02 0.03 0.04 0.05 0.06 0.05 0.04 0.04 0.04 0.04 0.05 0.06 0.06 0.06 0.06 0.07 0.05 0.05 0.06 0.07
0.06 0.07 0.09 0.09 0.07 0.06 0.06 0.06 0.05 0.04 0.03 0.03 0.03 0.04 0.04 0.04 0.04 0.03 0.03 0.02 0.03 0.03 0.03 0.02 0.04 0.04 0.04 0.05 0.06 0.05 0.04 0.05 0.06 0.06 0.06 0.07 0.06 0.05 0.06 0.06 0.05 0.05 0.06
0.04 0.05 0.07 0.07 0.06 0.06 0.05 0.05 0.05 0.04 0.03 0.03 0.02 0.02 0.03 0.03 0.03 0.04 0.03 0.03 0.03 0.03 0.04 0.03 0.04 0.04 0.03 0.04 0.05 0.04 0.04 0.04 0.06 0.06 0.05 0.05 0.06 0.06 0.06 0.06 0.05 0.05 0.05
0.03 0.04 0.05 0.05 0.05 0.06 0.05 0.04 0.05 0.06 0.05 0.03 0.03 0.02 0.03 0.02 0.03 0.03 0.03 0.03 0.04 0.03 0.04 0.03 0.04 0.04 0.04 0.05 0.05 0.04 0.04 0.04 0.04 0.04 0.04 0.05 0.06 0.07 0.05 0.04 0.05 0.06 0.06
0.02 0.03 0.05 0.05 0.04 0.06 0.07 0.06 0.07 0.07 0.06 0.06 0.06 0.04 0.02 0.02 0.03 0.04 0.05 0.05 0.04 0.03 0.04 0.04 0.05 0.05 0.04 0.06 0.07 0.05 0.04 0.04 0.04 0.04 0.05 0.05 0.05 0.06 0.06 0.05 0.05 0.06 0.05
0.02 0.02 0.03 0.05 0.05 0.05 0.06 0.06 0.08 0.08 0.07 0.06 0.08 0.07 0.04 0.02 0.03 0.03 0.04 0.05 0.05 0.05 0.05 0.05 0.06 0.05 0.04 0.04 0.05 0.06 0.07 0.07 0.06 0.06 0.06 0.06 0.06 0.06 0.06 0.05 0.05 0.05 0.05
0.02 0.01 0.01 0.03 0.04 0.05 0.06 0.06 0.05 0.05 0.04 0.04 0.05 0.06 0.06 0.05 0.04 0.03 0.03 0.04 0.06 0.06 0.07 0.06 0.05 0.05 0.05 0.06 0.07 0.06 0.06 0.07 0.07 0.07 0.07 0.07 0.07 0.07 0.07 0.06 0.06 0.06 0.05
0.02 0.01 0.02 0.01 0.01 0.02 0.04 0.05 0.04 0.04 0.04 0.03 0.02 0.03 0.04 0.05 0.04 0.03 0.04 0.03 0.04 0.05 0.05 0.04 0.04 0.04 0.06 0.07 0.08 0.06 0.05 0.05 0.05 0.04 0.04 0.04 0.05 0.06 0.06 0.06 0.06 0.06 0.06
0.02 0.02 0.01 0.01 0.01 0.01 0.01 0.02 0.02 0.02 0.02 0.02 0.02 0.02 0.03 0.03 0.03 0.03 0.04 0.04 0.05 0.05 0.04 0.03 0.02 0.03 0.05 0.06 0.07 0.08 0.06 0.04 0.04 0.03 0.02 0.03 0.03 0.04 0.04 0.05 0.05 0.05 0.05
0.01 0.01 0.01 0.01 0.01 0.01 0.01 0.01 0.02 0.02 0.01 0.01 0.02 0.02 0.02 0.02 0.02 0.03 0.05 0.06 0.05 0.05 0.04 0.03 0.02 0.03 0.05 0.05 0.04 0.04 0.05 0.04 0.04 0.03 0.03 0.03 0.04 0.04 0.03 0.04 0.05 0.04 0.03
0.01 0.02 0.01 0.01 0.01 0.01 0.01 0.01 0.02 0.02 0.01 0.01 0.01 0.02 0.02 0.02 0.03 0.04 0.05 0.05 0.05 0.05 0.04 0.03 0.03 0.02 0.04 0.04 0.04 0.03 0.03 0.04 0.04 0.04 0.03 0.03 0.04 0.05 0.04 0.04 0.05 0.04 0.03
0.01 0.01 0.01 0.01 0.00 0.01 0.01 0.01 0.01 0.01 0.01 0.01 0.01 0.02 0.02 0.04 0.05 0.04 0.05 0.04 0.03 0.02 0.02 0.02 0.02 0.02 0.02 0.03 0.03 0.03 0.02 0.02 0.03 0.03 0.03 0.03 0.03 0.04 0.03 0.03 0.04 0.04 0.03
0.01 0.01 0.01 0.01 0.01 0.01 0.01 0.01 0.01 0.01 0.01 0.01 0.01 0.02 0.04 0.04 0.03 0.03 0.03 0.02 0.02 0.02 0.01 0.01 0.01 0.01 0.01 0.01 0.01 0.02 0.02 0.02 0.02 0.02 0.02 0.03 0.03 0.03 0.03 0.04 0.04 0.03 0.02
0.01 0.01 0.01 0.01 0.01 0.01 0.01 0.01 0.01 0.01 0.02 0.03 0.04 0.06 0.04 0.02 0.02 0.02 0.01 0.01 0.01 0.01 0.01 0.01 0.01 0.01 0.01 0.00 0.00 0.01 0.02 0.02 0.02 0.01 0.02 0.02 0.03 0.03 0.03 0.04 0.04 0.03 0.03
0.00 0.01 0.01 0.01 0.01 0.01 0.01 0.02 0.03 0.03 0.03 0.04 0.04 0.04 0.02 0.01 0.01 0.01 0.01 0.01 0.01 0.01 0.00 0.00 0.00 0.01 0.01 0.00 0.00 0.00 0.01 0.02 0.02 0.01 0.02 0.02 0.04 0.04 0.04 0.05 0.05 0.05 0.04
0.01 0.01 0.01 0.01 0.01 0.02 0.02 0.03 0.03 0.02 0.02 0.02 0.02 0.01 0.00 0.00 0.01 0.01 0.01 0.01 0.01 0.01 0.00 0.00 0.00 0.01 0.01 0.00 0.00 0.00 0.01 0.01 0.01 0.02 0.04 0.04 0.04 0.04 0.06 0.07 0.05 0.04 0.03
0.01 0.00 0.01 0.01 0.01 0.02 0.01 0.01 0.01 0.01 0.00 0.00 0.00 0.00 0.00 0.00 0.01 0.01 0.01 0.01 0.01 0.01 0.01 0.01 0.01 0.02 0.02 0.01 0.01 0.02 0.02 0.03 0.05 0.07 0.06 0.05 0.05 0.05 0.05 0.03 0.02 0.02 0.02
0.01 0.01 0.01 0.01 0.01 0.01 0.01 0.01 0.01 0.00 0.00 0.00 0.01 0.00 0.00 0.00 0.00 0.01 0.01 0.01 0.01 0.01 0.01 0.01 0.01 0.02 0.02 0.02 0.03 0.04 0.04 0.05 0.05 0.05 0.04 0.04 0.04 0.03 0.03 0.02 0.02 0.01 0.01
0.01 0.01 0.01 0.01 0.01 0.01 0.01 0.01 0.01 0.00 0.00 0.00 0.01 0.00 0.00 0.00 0.00 0.00 0.00 0.00 0.01 0.01 0.01 0.01 0.01 0.01 0.01 0.01 0.01 0.01 0.02 0.02 0.02 0.02 0.01 0.01 0.02 0.03 0.03 0.04 0.03 0.03 0.02
0.00 0.00 0.01 0.01 0.01 0.01 0.01 0.01 0.01 0.01 0.00 0.00 0.00 0.00 0.00 0.00 0.00 0.00 0.00 0.00 0.00 0.00 0.00 0.00 0.00 0.00 0.00 0.00 0.00 0.01 0.02 0.02 0.01 0.01 0.01 0.01 0.01 0.02 0.02 0.04 0.04 0.04 0.04
0.00 0.01 0.01 0.01 0.01 0.01 0.01 0.01 0.01 0.01 0.00 0.00 0.00 0.00 0.00 0.00 0.00 0.00 0.00 0.00 0.00 0.00 0.00 0.00 0.00 0.00 0.00 0.00 0.01 0.02 0.01 0.01 0.01 0.01 0.01 0.01 0.01 0.01 0.02 0.02 0.03 0.04 0.03
0.00 0.01 0.01 0.01 0.01 0.01 0.01 0.01 0.01 0.01 0.00 0.00 0.00 0.00 0.00 0.00 0.00 0.00 0.00 0.00 0.00 0.00 0.00 0.00 0.00 0.00 0.00 0.00 0.01 0.01 0.01 0.01 0.01 0.01 0.01 0.01 0.01 0.01 0.02 0.02 0.03 0.03 0.04

GEFSMW_prec_meanprec_234.txt.gz
QPF
0.02 0.02 0.03 0.03 0.04 0.04 0.04 0.04 0.03 0.05 0.05 0.05 0.05 0.05 0.05 0.04 0.03 0.03 0.03 0.03 0.03 0.05 0.06 0.05 0.06 0.06 0.06 0.06 0.06 0.06 0.07 0.09 0.09 0.09 0.07 0.05 0.04 0.04 0.04 0.05 0.05 0.05 0.05
0.03 0.03 0.03 0.04 0.04 0.05 0.04 0.04 0.04 0.05 0.05 0.05 0.05 0.05 0.05 0.05 0.04 0.04 0.04 0.04 0.03 0.04 0.06 0.06 0.06 0.07 0.07 0.06 0.06 0.07 0.08 0.08 0.12 0.13 0.13 0.11 0.09 0.07 0.05 0.04 0.04 0.04 0.04
0.02 0.02 0.02 0.02 0.03 0.04 0.03 0.03 0.04 0.04 0.04 0.04 0.04 0.04 0.05 0.05 0.05 0.05 0.05 0.05 0.04 0.03 0.04 0.06 0.06 0.06 0.06 0.05 0.05 0.06 0.06 0.07 0.08 0.10 0.11 0.10 0.10 0.09 0.07 0.04 0.03 0.04 0.04
0.02 0.02 0.01 0.01 0.01 0.02 0.02 0.02 0.03 0.04 0.04 0.03 0.03 0.04 0.05 0.05 0.05 0.05 0.05 0.06 0.05 0.04 0.05 0.05 0.06 0.06 0.05 0.05 0.05 0.05 0.05 0.06 0.05 0.07 0.09 0.08 0.10 0.10 0.09 0.06 0.05 0.05 0.05
0.01 0.01 0.01 0.02 0.01 0.02 0.03 0.03 0.04 0.05 0.04 0.04 0.04 0.05 0.05 0.05 0.05 0.05 0.05 0.05 0.07 0.07 0.06 0.06 0.05 0.06 0.05 0.05 0.05 0.05 0.05 0.06 0.06 0.06 0.07 0.08 0.09 0.10 0.09 0.08 0.08 0.07 0.05
0.03 0.03 0.04 0.03 0.02 0.03 0.04 0.05 0.06 0.06 0.04 0.04 0.04 0.04 0.05 0.05 0.05 0.06 0.08 0.07 0.07 0.06 0.06 0.05 0.05 0.05 0.05 0.05 0.07 0.08 0.08 0.08 0.08 0.08 0.08 0.09 0.09 0.09 0.09 0.10 0.09 0.07 0.05
0.03 0.03 0.04 0.03 0.03 0.03 0.03 0.05 0.06 0.06 0.04 0.03 0.04 0.04 0.05 0.06 0.06 0.06 0.06 0.06 0.06 0.06 0.06 0.05 0.05 0.05 0.05 0.05 0.07 0.10 0.09 0.09 0.09 0.10 0.09 0.09 0.09 0.09 0.10 0.11 0.12 0.10 0.07
0.02 0.02 0.03 0.03 0.03 0.02 0.02 0.03 0.04 0.04 0.04 0.03 0.04 0.05 0.05 0.05 0.05 0.05 0.05 0.05 0.06 0.05 0.05 0.06 0.06 0.04 0.05 0.04 0.06 0.08 0.08 0.08 0.08 0.09 0.09 0.08 0.08 0.09 0.10 0.12 0.12 0.11 0.10
0.01 0.01 0.03 0.03 0.02 0.02 0.02 0.03 0.04 0.03 0.03 0.03 0.04 0.04 0.04 0.05 0.05 0.05 0.04 0.05 0.05 0.06 0.06 0.07 0.05 0.04 0.05 0.06 0.07 0.07 0.07 0.07 0.06 0.06 0.06 0.06 0.05 0.06 0.07 0.08 0.09 0.11 0.11
0.01 0.01 0.02 0.02 0.03 0.03 0.04 0.04 0.04 0.04 0.03 0.04 0.04 0.04 0.04 0.04 0.04 0.04 0.04 0.05 0.05 0.06 0.07 0.06 0.06 0.06 0.06 0.06 0.06 0.06 0.05 0.06 0.06 0.06 0.05 0.04 0.04 0.05 0.06 0.07 0.08 0.09 0.09
0.02 0.01 0.02 0.02 0.03 0.03 0.04 0.06 0.05 0.05 0.04 0.04 0.05 0.04 0.04 0.03 0.04 0.04 0.05 0.06 0.07 0.07 0.07 0.07 0.07 0.06 0.06 0.05 0.05 0.06 0.05 0.06 0.06 0.06 0.05 0.05 0.05 0.06 0.06 0.07 0.07 0.07 0.08
0.01 0.01 0.01 0.02 0.02 0.02 0.04 0.05 0.06 0.05 0.05 0.05 0.04 0.04 0.04 0.05 0.05 0.06 0.06 0.06 0.07 0.08 0.09 0.08 0.07 0.06 0.05 0.06 0.06 0.06 0.07 0.07 0.06 0.05 0.06 0.05 0.06 0.06 0.06 0.07 0.08 0.07 0.09
0.01 0.01 0.01 0.02 0.02 0.01 0.02 0.03 0.03 0.03 0.04 0.04 0.04 0.04 0.04 0.05 0.05 0.06 0.05 0.04 0.05 0.07 0.08 0.08 0.08 0.07 0.07 0.06 0.06 0.07 0.07 0.06 0.06 0.06 0.07 0.07 0.07 0.06 0.06 0.07 0.07 0.07 0.08
0.01 0.01 0.02 0.03 0.02 0.01 0.02 0.01 0.01 0.01 0.02 0.02 0.03 0.03 0.03 0.03 0.04 0.05 0.05 0.05 0.05 0.07 0.07 0.07 0.07 0.07 0.07 0.05 0.05 0.05 0.04 0.04 0.05 0.06 0.07 0.06 0.06 0.06 0.05 0.05 0.07 0.07 0.08
0.02 0.02 0.02 0.02 0.03 0.02 0.02 0.02 0.01 0.01 0.01 0.01 0.02 0.03 0.03 0.03 0.03 0.03 0.04 0.05 0.05 0.05 0.05 0.06 0.05 0.05 0.05 0.05 0.05 0.04 0.04 0.04 0.05 0.05 0.06 0.06 0.06 0.05 0.05 0.05 0.06 0.07 0.07
0.01 0.02 0.02 0.02 0.02 0.02 0.01 0.01 0.01 0.01 0.01 0.01 0.01 0.01 0.01 0.02 0.02 0.02 0.03 0.04 0.05 0.06 0.05 0.05 0.04 0.03 0.02 0.02 0.02 0.04 0.04 0.05 0.06 0.06 0.06 0.06 0.06 0.05 0.04 0.04 0.05 0.05 0.06
0.02 0.02 0.03 0.03 0.03 0.02 0.02 0.01 0.01 0.01 0.01 0.01 0.01 0.01 0.01 0.01 0.01 0.02 0.03 0.02 0.04 0.05 0.04 0.03 0.03 0.02 0.02 0.01 0.01 0.01 0.03 0.04 0.05 0.05 0.05 0.05 0.05 0.06 0.05 0.04 0.05 0.05 0.03
0.01 0.02 0.03 0.02 0.02 0.02 0.02 0.01 0.01 0.01 0.00 0.00 0.01 0.00 0.00 0.01 0.02 0.04 0.04 0.03 0.03 0.02 0.02 0.02 0.03 0.03 0.02 0.01 0.01 0.01 0.04 0.04 0.04 0.04 0.03 0.04 0.06 0.07 0.06 0.05 0.06 0.06 0.03
0.01 0.01 0.02 0.02 0.02 0.01 0.01 0.02 0.01 0.00 0.00 0.00 0.01 0.01 0.02 0.03 0.03 0.03 0.03 0.02 0.02 0.02 0.02 0.02 0.02 0.03 0.03 0.01 0.01 0.01 0.03 0.04 0.03 0.03 0.03 0.03 0.05 0.06 0.06 0.06 0.06 0.08 0.06
0.01 0.01 0.02 0.02 0.01 0.01 0.01 0.01 0.01 0.01 0.01 0.01 0.02 0.02 0.02 0.02 0.03 0.02 0.01 0.01 0.01 0.02 0.01 0.01 0.02 0.02 0.02 0.01 0.01 0.00 0.01 0.03 0.02 0.03 0.02 0.02 0.03 0.04 0.05 0.06 0.06 0.05 0.06
0.01 0.01 0.01 0.01 0.01 0.01 0.02 0.01 0.01 0.02 0.02 0.02 0.02 0.02 0.01 0.01 0.01 0.01 0.01 0.01 0.01 0.01 0.01 0.01 0.02 0.02 0.02 0.01 0.01 0.00 0.00 0.02 0.03 0.03 0.02 0.03 0.04 0.04 0.04 0.05 0.05 0.04 0.04
0.00 0.00 0.00 0.01 0.01 0.01 0.02 0.03 0.03 0.02 0.02 0.02 0.02 0.02 0.01 0.01 0.00 0.00 0.01 0.01 0.01 0.01 0.02 0.02 0.02 0.02 0.02 0.02 0.01 0.01 0.01 0.01 0.03 0.04 0.04 0.04 0.03 0.03 0.02 0.02 0.02 0.02 0.03
0.00 0.00 0.01 0.02 0.02 0.02 0.02 0.03 0.03 0.02 0.03 0.03 0.02 0.03 0.02 0.01 0.01 0.00 0.00 0.01 0.01 0.00 0.00 0.01 0.01 0.01 0.01 0.00 0.00 0.00 0.00 0.00 0.01 0.02 0.02 0.01 0.01 0.01 0.01 0.02 0.02 0.02 0.03
0.01 0.01 0.01 0.02 0.03 0.02 0.01 0.01 0.02 0.02 0.04 0.03 0.03 0.03 0.03 0.02 0.01 0.01 0.00 0.00 0.00 0.00 0.00 0.00 0.01 0.01 0.01 0.00 0.00 0.00 0.00 0.00 0.00 0.01 0.01 0.01 0.01 0.01 0.01 0.01 0.02 0.02 0.02
0.01 0.01 0.01 0.02 0.02 0.02 0.01 0.01 0.01 0.02 0.03 0.02 0.02 0.02 0.02 0.02 0.01 0.01 0.01 0.00 0.00 0.00 0.00 0.00 0.00 0.00 0.00 0.00 0.00 0.00 0.00 0.00 0.00 0.01 0.01 0.02 0.02 0.02 0.02 0.02 0.02 0.02 0.02
0.01 0.01 0.01 0.01 0.01 0.01 0.01 0.01 0.01 0.02 0.03 0.03 0.03 0.02 0.02 0.02 0.01 0.01 0.01 0.01 0.00 0.00 0.00 0.00 0.00 0.00 0.01 0.01 0.01 0.00 0.00 0.00 0.00 0.01 0.01 0.02 0.02 0.02 0.02 0.03 0.03 0.03 0.03

GEFSMW_prec_meanprec_240.txt.gz
QPF
0.06 0.05 0.05 0.05 0.04 0.03 0.03 0.03 0.03 0.03 0.03 0.04 0.04 0.04 0.03 0.02 0.02 0.03 0.04 0.03 0.03 0.02 0.02 0.02 0.02 0.03 0.03 0.02 0.03 0.05 0.06 0.05 0.05 0.05 0.04 0.04 0.03 0.02 0.01 0.01 0.02 0.03 0.03
0.05 0.05 0.06 0.06 0.06 0.06 0.05 0.03 0.03 0.03 0.03 0.04 0.04 0.04 0.03 0.03 0.02 0.03 0.02 0.02 0.02 0.02 0.02 0.02 0.02 0.02 0.03 0.04 0.04 0.05 0.05 0.05 0.03 0.04 0.04 0.04 0.04 0.04 0.03 0.03 0.04 0.03 0.03
0.06 0.05 0.03 0.03 0.03 0.05 0.05 0.04 0.04 0.03 0.03 0.04 0.06 0.05 0.03 0.03 0.03 0.02 0.02 0.01 0.02 0.02 0.02 0.02 0.02 0.02 0.03 0.04 0.04 0.04 0.04 0.04 0.04 0.03 0.04 0.03 0.03 0.03 0.03 0.03 0.04 0.03 0.03
0.06 0.04 0.02 0.02 0.01 0.01 0.02 0.02 0.03 0.03 0.03 0.04 0.07 0.06 0.03 0.02 0.01 0.02 0.02 0.02 0.02 0.02 0.03 0.03 0.03 0.02 0.02 0.03 0.04 0.05 0.04 0.04 0.03 0.03 0.03 0.03 0.03 0.02 0.02 0.02 0.03 0.03 0.03
0.07 0.07 0.05 0.03 0.03 0.03 0.03 0.03 0.03 0.03 0.03 0.02 0.03 0.03 0.02 0.01 0.02 0.02 0.01 0.01 0.01 0.02 0.03 0.04 0.06 0.04 0.03 0.03 0.04 0.04 0.05 0.04 0.04 0.03 0.03 0.02 0.02 0.03 0.03 0.03 0.03 0.03 0.04
0.05 0.06 0.08 0.08 0.08 0.09 0.06 0.05 0.05 0.03 0.03 0.03 0.03 0.02 0.02 0.02 0.02 0.01 0.01 0.01 0.01 0.02 0.03 0.04 0.06 0.06 0.05 0.04 0.04 0.05 0.06 0.06 0.05 0.04 0.03 0.02 0.03 0.04 0.05 0.04 0.03 0.02 0.03
0.05 0.05 0.09 0.08 0.07 0.05 0.04 0.04 0.05 0.04 0.04 0.03 0.03 0.03 0.03 0.03 0.02 0.01 0.01 0.01 0.01 0.01 0.01 0.03 0.05 0.07 0.07 0.05 0.04 0.04 0.05 0.06 0.07 0.08 0.06 0.04 0.04 0.04 0.03 0.04 0.03 0.03 0.03
0.08 0.04 0.05 0.06 0.06 0.03 0.03 0.03 0.04 0.04 0.04 0.03 0.04 0.05 0.05 0.04 0.03 0.02 0.01 0.01 0.01 0.02 0.01 0.02 0.03 0.05 0.07 0.06 0.05 0.05 0.04 0.04 0.04 0.06 0.08 0.07 0.04 0.03 0.03 0.03 0.03 0.03 0.02
0.03 0.03 0.02 0.04 0.05 0.03 0.02 0.02 0.03 0.04 0.04 0.04 0.04 0.06 0.05 0.05 0.05 0.03 0.02 0.02 0.01 0.01 0.02 0.03 0.03 0.04 0.06 0.06 0.05 0.05 0.04 0.03 0.02 0.03 0.04 0.05 0.04 0.03 0.03 0.02 0.03 0.05 0.05
0.02 0.01 0.02 0.02 0.03 0.03 0.02 0.02 0.02 0.03 0.04 0.04 0.04 0.04 0.04 0.04 0.04 0.03 0.02 0.01 0.01 0.01 0.02 0.03 0.03 0.03 0.04 0.05 0.05 0.05 0.05 0.03 0.02 0.02 0.01 0.02 0.02 0.02 0.02 0.02 0.03 0.05 0.07
0.02 0.02 0.02 0.02 0.02 0.03 0.03 0.03 0.02 0.02 0.04 0.04 0.04 0.04 0.03 0.03 0.03 0.03 0.02 0.02 0.02 0.02 0.02 0.03 0.02 0.02 0.03 0.04 0.04 0.04 0.05 0.04 0.03 0.02 0.02 0.02 0.02 0.02 0.02 0.02 0.03 0.04 0.05
0.02 0.02 0.02 0.02 0.02 0.03 0.03 0.03 0.02 0.03 0.03 0.03 0.04 0.04 0.04 0.03 0.03 0.02 0.02 0.01 0.02 0.02 0.02 0.02 0.02 0.03 0.03 0.03 0.04 0.04 0.04 0.03 0.02 0.02 0.02 0.02 0.01 0.01 0.01 0.02 0.02 0.02 0.02
0.02 0.03 0.02 0.02 0.02 0.03 0.03 0.02 0.02 0.02 0.02 0.03 0.04 0.05 0.04 0.04 0.03 0.02 0.02 0.02 0.02 0.02 0.02 0.02 0.02 0.03 0.04 0.04 0.05 0.05 0.04 0.03 0.03 0.02 0.02 0.01 0.01 0.01 0.01 0.01 0.01 0.01 0.01
0.02 0.02 0.02 0.03 0.03 0.03 0.03 0.02 0.01 0.01 0.02 0.02 0.03 0.05 0.06 0.06 0.05 0.04 0.04 0.03 0.02 0.02 0.01 0.01 0.01 0.02 0.04 0.07 0.08 0.09 0.10 0.10 0.10 0.09 0.07 0.04 0.02 0.02 0.01 0.01 0.01 0.01 0.01
0.02 0.02 0.02 0.03 0.03 0.03 0.02 0.02 0.01 0.01 0.01 0.01 0.02 0.02 0.03 0.04 0.04 0.04 0.03 0.02 0.01 0.01 0.01 0.01 0.01 0.01 0.02 0.04 0.05 0.04 0.04 0.05 0.06 0.07 0.08 0.08 0.08 0.07 0.04 0.03 0.02 0.02 0.02
0.03 0.02 0.03 0.03 0.03 0.03 0.02 0.02 0.02 0.01 0.01 0.01 0.01 0.01 0.01 0.01 0.01 0.01 0.01 0.01 0.01 0.01 0.01 0.01 0.01 0.02 0.02 0.04 0.03 0.03 0.02 0.02 0.02 0.02 0.03 0.04 0.05 0.08 0.09 0.09 0.08 0.07 0.05
0.03 0.02 0.02 0.02 0.03 0.02 0.02 0.03 0.02 0.02 0.02 0.01 0.01 0.01 0.01 0.01 0.01 0.01 0.01 0.01 0.01 0.01 0.01 0.01 0.03 0.03 0.03 0.02 0.02 0.02 0.01 0.01 0.01 0.01 0.01 0.02 0.02 0.03 0.03 0.04 0.05 0.07 0.09
0.03 0.03 0.02 0.02 0.03 0.02 0.02 0.02 0.02 0.02 0.01 0.01 0.01 0.01 0.01 0.01 0.01 0.01 0.00 0.01 0.01 0.01 0.01 0.02 0.04 0.03 0.02 0.01 0.01 0.01 0.01 0.01 0.00 0.01 0.01 0.01 0.02 0.02 0.03 0.02 0.02 0.03 0.04
0.03 0.03 0.03 0.03 0.05 0.03 0.02 0.02 0.02 0.01 0.01 0.01 0.01 0.01 0.01 0.01 0.01 0.01 0.01 0.01 0.01 0.01 0.01 0.01 0.02 0.01 0.01 0.01 0.01 0.00 0.00 0.00 0.00 0.01 0.01 0.01 0.01 0.01 0.02 0.02 0.01 0.01 0.02
0.02 0.03 0.03 0.04 0.05 0.04 0.02 0.02 0.02 0.02 0.01 0.01 0.01 0.01 0.01 0.01 0.01 0.01 0.01 0.01 0.01 0.01 0.01 0.01 0.00 0.00 0.00 0.00 0.00 0.00 0.00 0.00 0.00 0.01 0.01 0.02 0.02 0.01 0.01 0.01 0.01 0.00 0.02
0.03 0.03 0.03 0.04 0.04 0.03 0.02 0.01 0.01 0.02 0.01 0.01 0.01 0.01 0.02 0.02 0.01 0.01 0.01 0.01 0.01 0.00 0.00 0.00 0.00 0.00 0.00 0.00 0.00 0.00 0.00 0.00 0.00 0.00 0.01 0.01 0.01 0.01 0.01 0.01 0.01 0.01 0.01
0.02 0.03 0.03 0.03 0.03 0.03 0.02 0.01 0.01 0.01 0.01 0.01 0.01 0.01 0.01 0.01 0.01 0.01 0.01 0.01 0.00 0.00 0.00 0.00 0.00 0.00 0.00 0.00 0.00 0.00 0.00 0.00 0.00 0.00 0.00 0.00 0.00 0.01 0.02 0.02 0.02 0.02 0.01
0.02 0.03 0.02 0.02 0.02 0.02 0.02 0.02 0.01 0.02 0.01 0.01 0.01 0.00 0.01 0.01 0.01 0.01 0.01 0.01 0.01 0.01 0.01 0.00 0.00 0.00 0.00 0.00 0.00 0.00 0.00 0.00 0.00 0.00 0.00 0.00 0.00 0.01 0.01 0.02 0.01 0.01 0.01
0.03 0.03 0.02 0.02 0.02 0.02 0.02 0.02 0.02 0.02 0.02 0.02 0.01 0.01 0.01 0.01 0.01 0.01 0.01 0.01 0.01 0.01 0.01 0.01 0.01 0.01 0.00 0.00 0.00 0.00 0.00 0.00 0.00 0.00 0.00 0.00 0.00 0.00 0.00 0.01 0.01 0.00 0.01
0.05 0.04 0.02 0.02 0.01 0.01 0.02 0.02 0.03 0.02 0.02 0.02 0.01 0.01 0.01 0.01 0.01 0.01 0.00 0.01 0.01 0.01 0.01 0.01 0.01 0.01 0.01 0.01 0.00 0.00 0.00 0.00 0.00 0.00 0.00 0.00 0.01 0.01 0.01 0.01 0.00 0.00 0.01
0.03 0.03 0.03 0.03 0.02 0.01 0.01 0.01 0.02 0.02 0.02 0.02 0.02 0.02 0.02 0.01 0.01 0.01 0.00 0.01 0.01 0.01 0.01 0.01 0.01 0.01 0.01 0.01 0.01 0.01 0.01 0.01 0.01 0.01 0.00 0.00 0.01 0.02 0.02 0.02 0.01 0.01 0.01

GEFSMW_prec_meanprec_246.txt.gz
QPF
0.07 0.08 0.07 0.06 0.04 0.04 0.05 0.05 0.05 0.05 0.05 0.04 0.03 0.04 0.05 0.08 0.06 0.04 0.03 0.02 0.02 0.03 0.03 0.03 0.03 0.02 0.02 0.02 0.03 0.04 0.04 0.05 0.05 0.07 0.06 0.04 0.04 0.03 0.02 0.02 0.01 0.02 0.03
0.05 0.06 0.07 0.06 0.05 0.04 0.04 0.06 0.05 0.06 0.05 0.05 0.03 0.04 0.04 0.06 0.05 0.03 0.02 0.02 0.02 0.02 0.02 0.02 0.02 0.02 0.02 0.04 0.04 0.03 0.03 0.03 0.04 0.05 0.04 0.03 0.03 0.03 0.02 0.01 0.01 0.02 0.03
0.03 0.04 0.05 0.05 0.04 0.04 0.05 0.05 0.06 0.07 0.06 0.05 0.03 0.03 0.03 0.04 0.03 0.02 0.02 0.01 0.01 0.01 0.01 0.01 0.01 0.01 0.01 0.02 0.03 0.03 0.03 0.03 0.03 0.04 0.03 0.02 0.02 0.02 0.02 0.02 0.01 0.02 0.02
0.01 0.01 0.01 0.02 0.03 0.04 0.06 0.05 0.06 0.07 0.07 0.05 0.03 0.02 0.02 0.01 0.01 0.01 0.01 0.01 0.01 0.01 0.01 0.01 0.01 0.01 0.01 0.01 0.02 0.02 0.02 0.03 0.02 0.02 0.02 0.02 0.01 0.01 0.01 0.02 0.01 0.01 0.02
0.01 0.01 0.02 0.02 0.03 0.04 0.05 0.06 0.06 0.07 0.07 0.05 0.04 0.02 0.01 0.01 0.02 0.01 0.01 0.01 0.01 0.01 0.02 0.01 0.01 0.01 0.01 0.01 0.01 0.02 0.01 0.02 0.02 0.02 0.02 0.02 0.01 0.01 0.01 0.02 0.02 0.02 0.02
0.02 0.02 0.03 0.05 0.05 0.05 0.04 0.04 0.07 0.07 0.07 0.05 0.04 0.03 0.02 0.02 0.02 0.03 0.02 0.02 0.02 0.02 0.02 0.02 0.01 0.01 0.01 0.01 0.02 0.02 0.02 0.02 0.02 0.02 0.02 0.02 0.02 0.01 0.01 0.01 0.01 0.02 0.02
0.03 0.04 0.04 0.05 0.07 0.05 0.04 0.03 0.04 0.05 0.05 0.04 0.03 0.03 0.04 0.03 0.02 0.02 0.02 0.02 0.01 0.01 0.02 0.01 0.01 0.01 0.01 0.01 0.02 0.02 0.03 0.03 0.03 0.02 0.02 0.02 0.02 0.01 0.01 0.01 0.01 0.01 0.01
0.03 0.03 0.04 0.05 0.05 0.04 0.04 0.03 0.03 0.04 0.04 0.03 0.03 0.03 0.04 0.04 0.03 0.03 0.02 0.01 0.01 0.02 0.02 0.01 0.01 0.01 0.01 0.02 0.02 0.02 0.04 0.04 0.03 0.03 0.02 0.03 0.03 0.02 0.01 0.01 0.01 0.01 0.01
0.03 0.04 0.04 0.04 0.04 0.05 0.05 0.04 0.03 0.03 0.03 0.03 0.03 0.03 0.04 0.05 0.04 0.02 0.02 0.01 0.02 0.02 0.03 0.02 0.01 0.01 0.01 0.02 0.02 0.02 0.03 0.04 0.04 0.04 0.04 0.04 0.03 0.03 0.02 0.02 0.02 0.02 0.03
0.03 0.03 0.03 0.04 0.05 0.05 0.05 0.04 0.03 0.04 0.03 0.03 0.03 0.03 0.04 0.04 0.05 0.03 0.03 0.02 0.02 0.02 0.02 0.01 0.01 0.01 0.02 0.02 0.03 0.03 0.03 0.04 0.04 0.04 0.03 0.02 0.02 0.03 0.03 0.03 0.02 0.03 0.04
0.03 0.03 0.03 0.04 0.04 0.04 0.03 0.03 0.03 0.03 0.04 0.03 0.03 0.02 0.03 0.04 0.06 0.04 0.03 0.02 0.02 0.01 0.01 0.01 0.01 0.01 0.01 0.02 0.04 0.04 0.04 0.04 0.04 0.03 0.02 0.02 0.02 0.02 0.02 0.03 0.03 0.03 0.03
0.01 0.02 0.02 0.03 0.02 0.02 0.03 0.03 0.03 0.02 0.03 0.03 0.03 0.03 0.04 0.05 0.06 0.04 0.03 0.02 0.02 0.01 0.01 0.02 0.01 0.00 0.00 0.01 0.03 0.05 0.05 0.06 0.07 0.05 0.04 0.02 0.02 0.02 0.01 0.01 0.01 0.02 0.02
0.01 0.01 0.02 0.02 0.01 0.01 0.02 0.03 0.03 0.03 0.03 0.02 0.03 0.03 0.04 0.05 0.05 0.05 0.04 0.03 0.02 0.01 0.01 0.01 0.01 0.01 0.01 0.01 0.02 0.03 0.03 0.03 0.04 0.05 0.06 0.06 0.05 0.03 0.02 0.02 0.01 0.02 0.02
0.02 0.02 0.01 0.01 0.01 0.01 0.02 0.02 0.02 0.02 0.02 0.02 0.03 0.04 0.05 0.07 0.07 0.07 0.06 0.06 0.05 0.04 0.03 0.02 0.02 0.01 0.01 0.01 0.02 0.02 0.02 0.02 0.02 0.02 0.03 0.04 0.06 0.06 0.05 0.04 0.03 0.02 0.02
0.03 0.02 0.01 0.01 0.01 0.01 0.02 0.02 0.02 0.02 0.01 0.01 0.01 0.02 0.02 0.03 0.05 0.07 0.08 0.07 0.07 0.07 0.05 0.04 0.03 0.02 0.02 0.02 0.02 0.02 0.01 0.01 0.01 0.01 0.01 0.01 0.02 0.02 0.03 0.03 0.03 0.03 0.03
0.03 0.03 0.02 0.02 0.02 0.01 0.02 0.02 0.03 0.02 0.01 0.01 0.01 0.02 0.02 0.02 0.03 0.05 0.06 0.07 0.06 0.06 0.05 0.04 0.03 0.02 0.01 0.01 0.01 0.01 0.01 0.01 0.01 0.01 0.01 0.01 0.01 0.02 0.02 0.02 0.03 0.03 0.03
0.02 0.03 0.02 0.01 0.01 0.01 0.01 0.02 0.02 0.02 0.02 0.02 0.02 0.02 0.02 0.02 0.02 0.02 0.04 0.05 0.06 0.05 0.04 0.03 0.03 0.02 0.02 0.01 0.01 0.01 0.01 0.01 0.01 0.01 0.01 0.01 0.01 0.01 0.01 0.02 0.02 0.02 0.03
0.02 0.01 0.01 0.01 0.01 0.02 0.02 0.03 0.02 0.02 0.02 0.02 0.02 0.02 0.02 0.02 0.01 0.01 0.02 0.02 0.04 0.05 0.05 0.04 0.03 0.03 0.02 0.01 0.00 0.00 0.01 0.01 0.01 0.01 0.01 0.01 0.01 0.01 0.01 0.02 0.02 0.03 0.03
0.01 0.01 0.01 0.02 0.03 0.03 0.03 0.03 0.02 0.03 0.04 0.02 0.03 0.03 0.03 0.03 0.01 0.01 0.01 0.01 0.01 0.01 0.02 0.03 0.03 0.02 0.01 0.01 0.00 0.00 0.01 0.01 0.01 0.01 0.01 0.01 0.01 0.01 0.01 0.01 0.02 0.03 0.04
0.01 0.01 0.02 0.02 0.03 0.04 0.04 0.03 0.02 0.02 0.03 0.03 0.03 0.04 0.04 0.02 0.01 0.01 0.01 0.01 0.01 0.01 0.00 0.01 0.02 0.01 0.00 0.00 0.00 0.00 0.00 0.00 0.00 0.00 0.00 0.01 0.01 0.01 0.00 0.00 0.01 0.02 0.02
0.01 0.01 0.02 0.03 0.03 0.03 0.03 0.03 0.03 0.02 0.02 0.03 0.03 0.03 0.03 0.02 0.02 0.01 0.01 0.00 0.00 0.00 0.01 0.01 0.00 0.00 0.00 0.00 0.01 0.00 0.00 0.00 0.00 0.00 0.00 0.00 0.01 0.01 0.00 0.00 0.01 0.01 0.01
0.02 0.03 0.05 0.04 0.04 0.04 0.04 0.04 0.04 0.03 0.03 0.03 0.02 0.03 0.02 0.02 0.02 0.01 0.01 0.00 0.00 0.00 0.01 0.00 0.00 0.00 0.00 0.00 0.01 0.00 0.00 0.00 0.00 0.00 0.00 0.00 0.00 0.01 0.01 0.00 0.01 0.01 0.01
0.03 0.03 0.07 0.08 0.06 0.05 0.05 0.05 0.05 0.04 0.03 0.02 0.02 0.02 0.02 0.02 0.01 0.01 0.01 0.00 0.00 0.00 0.00 0.00 0.00 0.00 0.01 0.01 0.01 0.01 0.01 0.00 0.00 0.00 0.00 0.00 0.00 0.00 0.00 0.01 0.02 0.01 0.01
0.03 0.03 0.04 0.05 0.04 0.05 0.06 0.06 0.05 0.04 0.03 0.03 0.02 0.02 0.02 0.01 0.01 0.01 0.01 0.01 0.00 0.00 0.00 0.00 0.00 0.01 0.01 0.01 0.01 0.01 0.01 0.00 0.00 0.00 0.00 0.00 0.00 0.01 0.01 0.01 0.01 0.01 0.01
0.03 0.03 0.03 0.03 0.03 0.03 0.04 0.04 0.05 0.04 0.04 0.03 0.03 0.02 0.01 0.01 0.01 0.01 0.00 0.00 0.00 0.00 0.00 0.00 0.00 0.01 0.01 0.01 0.01 0.01 0.01 0.01 0.00 0.00 0.00 0.00 0.00 0.01 0.02 0.02 0.01 0.01 0.01
0.04 0.04 0.04 0.04 0.03 0.03 0.03 0.04 0.04 0.03 0.03 0.03 0.03 0.02 0.02 0.01 0.01 0.01 0.01 0.01 0.00 0.00 0.00 0.00 0.00 0.01 0.01 0.01 0.00 0.01 0.01 0.01 0.01 0.01 0.01 0.00 0.00 0.02 0.03 0.02 0.01 0.01 0.00

GEFSMW_prec_meanprec_252.txt.gz
QPF
0.00 0.01 0.02 0.03 0.02 0.02 0.03 0.02 0.02 0.03 0.03 0.05 0.05 0.05 0.04 0.04 0.03 0.02 0.02 0.03 0.03 0.04 0.04 0.04 0.05 0.05 0.04 0.04 0.04 0.04 0.04 0.04 0.05 0.06 0.05 0.05 0.06 0.06 0.05 0.04 0.03 0.04 0.05
0.00 0.01 0.01 0.01 0.01 0.02 0.02 0.02 0.01 0.02 0.03 0.06 0.07 0.05 0.04 0.05 0.04 0.02 0.02 0.02 0.02 0.02 0.03 0.04 0.04 0.04 0.04 0.05 0.05 0.04 0.03 0.03 0.03 0.04 0.05 0.04 0.04 0.04 0.03 0.03 0.03 0.04 0.06
0.01 0.00 0.01 0.01 0.01 0.01 0.01 0.02 0.01 0.02 0.04 0.08 0.10 0.07 0.04 0.04 0.04 0.03 0.02 0.02 0.02 0.02 0.02 0.02 0.03 0.04 0.04 0.04 0.04 0.04 0.03 0.04 0.03 0.03 0.04 0.04 0.04 0.03 0.03 0.03 0.03 0.03 0.04
0.01 0.00 0.01 0.01 0.01 0.00 0.01 0.02 0.03 0.07 0.07 0.06 0.09 0.09 0.07 0.04 0.02 0.02 0.03 0.02 0.02 0.03 0.03 0.03 0.04 0.04 0.03 0.04 0.03 0.03 0.03 0.03 0.03 0.03 0.03 0.04 0.04 0.03 0.04 0.04 0.03 0.02 0.03
0.00 0.00 0.00 0.00 0.01 0.02 0.02 0.04 0.05 0.08 0.08 0.07 0.07 0.07 0.05 0.03 0.01 0.02 0.02 0.02 0.03 0.03 0.02 0.02 0.02 0.03 0.03 0.04 0.04 0.04 0.04 0.03 0.03 0.04 0.04 0.05 0.05 0.04 0.03 0.03 0.03 0.02 0.03
0.00 0.00 0.01 0.01 0.02 0.04 0.05 0.06 0.08 0.11 0.10 0.07 0.06 0.05 0.03 0.02 0.01 0.01 0.02 0.02 0.02 0.03 0.03 0.02 0.03 0.02 0.03 0.04 0.05 0.05 0.04 0.04 0.04 0.04 0.04 0.06 0.05 0.04 0.03 0.02 0.02 0.03 0.03
0.00 0.00 0.01 0.02 0.04 0.06 0.10 0.12 0.11 0.10 0.09 0.07 0.04 0.03 0.02 0.01 0.01 0.02 0.02 0.02 0.02 0.02 0.02 0.02 0.02 0.02 0.03 0.03 0.04 0.05 0.05 0.03 0.04 0.05 0.05 0.05 0.05 0.04 0.03 0.03 0.02 0.02 0.02
0.01 0.01 0.01 0.02 0.05 0.08 0.10 0.09 0.06 0.05 0.04 0.04 0.03 0.02 0.02 0.01 0.01 0.01 0.01 0.02 0.02 0.02 0.02 0.02 0.02 0.02 0.01 0.02 0.03 0.04 0.04 0.03 0.03 0.04 0.06 0.05 0.04 0.04 0.04 0.03 0.02 0.02 0.01
0.01 0.01 0.02 0.02 0.05 0.05 0.04 0.04 0.04 0.03 0.02 0.03 0.02 0.02 0.01 0.01 0.01 0.01 0.01 0.02 0.02 0.02 0.02 0.02 0.02 0.02 0.02 0.01 0.02 0.03 0.03 0.04 0.03 0.05 0.07 0.05 0.05 0.04 0.04 0.04 0.03 0.03 0.03
0.01 0.02 0.02 0.03 0.04 0.04 0.04 0.05 0.05 0.03 0.03 0.03 0.03 0.02 0.02 0.01 0.02 0.01 0.01 0.01 0.02 0.02 0.02 0.02 0.02 0.02 0.02 0.02 0.02 0.03 0.03 0.04 0.05 0.05 0.06 0.05 0.04 0.03 0.04 0.05 0.05 0.04 0.04
0.02 0.02 0.03 0.03 0.03 0.04 0.04 0.03 0.02 0.02 0.02 0.02 0.03 0.03 0.02 0.02 0.03 0.03 0.01 0.02 0.02 0.03 0.02 0.02 0.02 0.02 0.02 0.02 0.02 0.03 0.04 0.05 0.05 0.05 0.04 0.04 0.04 0.04 0.05 0.05 0.05 0.06 0.05
0.01 0.01 0.01 0.02 0.02 0.03 0.02 0.02 0.02 0.02 0.02 0.02 0.03 0.03 0.03 0.04 0.03 0.03 0.02 0.03 0.04 0.03 0.03 0.02 0.02 0.02 0.02 0.02 0.02 0.02 0.02 0.03 0.03 0.03 0.04 0.04 0.05 0.05 0.05 0.05 0.04 0.05 0.05
0.01 0.01 0.01 0.01 0.01 0.01 0.02 0.02 0.02 0.02 0.02 0.02 0.02 0.02 0.03 0.03 0.03 0.03 0.03 0.04 0.05 0.04 0.04 0.04 0.03 0.02 0.02 0.02 0.02 0.02 0.02 0.02 0.02 0.03 0.03 0.04 0.06 0.08 0.06 0.05 0.06 0.05 0.05
0.01 0.02 0.02 0.01 0.01 0.01 0.01 0.01 0.02 0.03 0.03 0.02 0.03 0.03 0.03 0.03 0.04 0.04 0.06 0.07 0.06 0.06 0.06 0.05 0.04 0.04 0.03 0.03 0.03 0.03 0.03 0.02 0.02 0.02 0.02 0.02 0.03 0.04 0.07 0.08 0.09 0.08 0.08
0.02 0.02 0.02 0.01 0.02 0.01 0.01 0.01 0.01 0.02 0.02 0.02 0.03 0.03 0.03 0.03 0.03 0.05 0.07 0.08 0.08 0.08 0.06 0.05 0.05 0.05 0.05 0.05 0.06 0.05 0.04 0.03 0.02 0.02 0.02 0.01 0.01 0.01 0.02 0.04 0.06 0.08 0.10
0.01 0.01 0.01 0.01 0.01 0.01 0.01 0.01 0.02 0.01 0.02 0.02 0.02 0.03 0.03 0.04 0.04 0.04 0.03 0.03 0.05 0.05 0.04 0.04 0.04 0.06 0.06 0.06 0.07 0.06 0.05 0.04 0.04 0.03 0.02 0.02 0.02 0.01 0.02 0.02 0.02 0.02 0.04
0.02 0.02 0.02 0.02 0.02 0.02 0.02 0.01 0.01 0.02 0.01 0.01 0.02 0.02 0.02 0.02 0.03 0.03 0.03 0.03 0.03 0.03 0.03 0.04 0.04 0.06 0.07 0.07 0.06 0.06 0.05 0.04 0.04 0.03 0.02 0.02 0.02 0.02 0.02 0.02 0.02 0.01 0.01
0.02 0.03 0.02 0.02 0.01 0.01 0.01 0.01 0.01 0.02 0.01 0.01 0.02 0.02 0.01 0.01 0.01 0.02 0.03 0.03 0.03 0.02 0.02 0.04 0.06 0.07 0.08 0.07 0.06 0.05 0.05 0.05 0.03 0.02 0.02 0.01 0.01 0.02 0.02 0.02 0.01 0.01 0.01
0.01 0.01 0.01 0.01 0.01 0.01 0.01 0.01 0.02 0.02 0.02 0.02 0.01 0.01 0.01 0.01 0.01 0.02 0.02 0.02 0.03 0.02 0.01 0.03 0.06 0.07 0.07 0.07 0.06 0.06 0.05 0.04 0.03 0.02 0.02 0.01 0.01 0.01 0.01 0.01 0.02 0.02 0.02
0.01 0.00 0.00 0.00 0.01 0.01 0.01 0.01 0.02 0.02 0.02 0.01 0.01 0.01 0.01 0.02 0.02 0.02 0.02 0.02 0.02 0.02 0.01 0.02 0.04 0.04 0.04 0.04 0.03 0.02 0.02 0.02 0.02 0.02 0.02 0.01 0.01 0.00 0.00 0.01 0.01 0.02 0.02
0.01 0.00 0.00 0.01 0.01 0.01 0.01 0.02 0.03 0.03 0.03 0.03 0.02 0.02 0.02 0.02 0.02 0.02 0.02 0.02 0.02 0.02 0.02 0.02 0.03 0.04 0.02 0.01 0.01 0.01 0.01 0.01 0.01 0.01 0.02 0.02 0.01 0.00 0.00 0.01 0.01 0.02 0.02
0.00 0.00 0.00 0.01 0.01 0.01 0.02 0.02 0.03 0.04 0.03 0.03 0.02 0.02 0.01 0.01 0.01 0.01 0.01 0.02 0.02 0.03 0.03 0.02 0.02 0.01 0.01 0.00 0.00 0.00 0.00 0.01 0.01 0.01 0.01 0.01 0.01 0.01 0.01 0.00 0.00 0.01 0.01
0.01 0.01 0.00 0.00 0.01 0.01 0.02 0.02 0.02 0.02 0.03 0.03 0.02 0.02 0.02 0.02 0.01 0.02 0.01 0.02 0.02 0.02 0.02 0.02 0.01 0.01 0.01 0.00 0.00 0.00 0.00 0.00 0.01 0.01 0.01 0.01 0.01 0.01 0.01 0.01 0.00 0.01 0.02
0.01 0.01 0.00 0.00 0.00 0.00 0.01 0.01 0.02 0.02 0.03 0.03 0.03 0.04 0.03 0.03 0.03 0.02 0.02 0.02 0.02 0.02 0.02 0.02 0.01 0.01 0.01 0.00 0.00 0.00 0.00 0.00 0.00 0.01 0.01 0.01 0.01 0.02 0.01 0.01 0.01 0.02 0.03
0.01 0.01 0.01 0.01 0.01 0.01 0.01 0.01 0.02 0.03 0.03 0.04 0.05 0.05 0.04 0.03 0.03 0.02 0.02 0.01 0.01 0.01 0.01 0.01 0.01 0.00 0.00 0.00 0.00 0.00 0.00 0.00 0.00 0.00 0.01 0.01 0.01 0.03 0.03 0.02 0.02 0.03 0.03
0.01 0.01 0.01 0.01 0.01 0.01 0.01 0.01 0.02 0.03 0.04 0.05 0.06 0.07 0.07 0.05 0.03 0.03 0.02 0.01 0.01 0.01 0.00 0.00 0.00 0.00 0.00 0.00 0.00 0.00 0.00 0.00 0.00 0.00 0.01 0.01 0.01 0.02 0.03 0.03 0.04 0.04 0.03

GEFSMW_prec_meanprec_258.txt.gz
QPF
0.00 0.00 0.01 0.02 0.02 0.02 0.02 0.03 0.03 0.03 0.02 0.03 0.03 0.03 0.04 0.06 0.07 0.06 0.07 0.09 0.07 0.06 0.07 0.07 0.08 0.09 0.09 0.08 0.06 0.06 0.06 0.06 0.05 0.04 0.04 0.04 0.03 0.03 0.03 0.03 0.04 0.04 0.03
0.00 0.01 0.01 0.03 0.02 0.02 0.02 0.03 0.05 0.05 0.03 0.03 0.03 0.04 0.05 0.06 0.06 0.06 0.07 0.06 0.04 0.04 0.05 0.06 0.07 0.08 0.09 0.08 0.07 0.06 0.06 0.06 0.06 0.05 0.05 0.05 0.05 0.04 0.02 0.02 0.02 0.03 0.03
0.01 0.01 0.01 0.03 0.02 0.02 0.03 0.04 0.06 0.05 0.04 0.04 0.03 0.03 0.05 0.06 0.06 0.06 0.06 0.05 0.04 0.03 0.03 0.04 0.06 0.08 0.08 0.07 0.07 0.06 0.06 0.06 0.06 0.06 0.06 0.05 0.04 0.04 0.04 0.02 0.02 0.03 0.03
0.01 0.01 0.01 0.01 0.03 0.03 0.03 0.05 0.07 0.07 0.05 0.05 0.05 0.06 0.07 0.07 0.07 0.09 0.08 0.05 0.04 0.04 0.03 0.04 0.05 0.07 0.07 0.07 0.06 0.07 0.07 0.07 0.06 0.06 0.06 0.05 0.04 0.04 0.04 0.03 0.03 0.04 0.03
0.01 0.01 0.01 0.01 0.03 0.04 0.04 0.05 0.08 0.09 0.07 0.06 0.07 0.07 0.07 0.07 0.08 0.08 0.07 0.06 0.06 0.04 0.03 0.03 0.05 0.06 0.06 0.06 0.06 0.07 0.06 0.07 0.05 0.05 0.06 0.06 0.05 0.04 0.04 0.06 0.05 0.05 0.04
0.01 0.01 0.01 0.02 0.02 0.02 0.05 0.07 0.09 0.09 0.10 0.10 0.09 0.09 0.08 0.08 0.07 0.06 0.06 0.05 0.05 0.04 0.03 0.03 0.05 0.05 0.06 0.05 0.05 0.05 0.06 0.07 0.06 0.05 0.05 0.05 0.06 0.05 0.04 0.05 0.06 0.06 0.05
0.01 0.01 0.01 0.02 0.03 0.03 0.03 0.03 0.04 0.06 0.08 0.10 0.08 0.07 0.08 0.09 0.07 0.06 0.06 0.04 0.04 0.04 0.04 0.03 0.04 0.04 0.04 0.04 0.04 0.05 0.06 0.06 0.06 0.06 0.05 0.05 0.05 0.05 0.05 0.05 0.05 0.05 0.06
0.02 0.03 0.03 0.03 0.03 0.04 0.03 0.03 0.03 0.03 0.03 0.05 0.06 0.05 0.05 0.06 0.06 0.06 0.05 0.04 0.04 0.04 0.05 0.04 0.03 0.03 0.03 0.03 0.04 0.04 0.06 0.06 0.06 0.05 0.06 0.06 0.06 0.03 0.04 0.04 0.05 0.05 0.05
0.03 0.05 0.05 0.03 0.03 0.02 0.02 0.03 0.03 0.03 0.02 0.02 0.04 0.04 0.05 0.04 0.04 0.06 0.04 0.04 0.03 0.03 0.04 0.04 0.03 0.03 0.03 0.04 0.05 0.05 0.05 0.05 0.05 0.05 0.06 0.06 0.06 0.05 0.04 0.05 0.06 0.06 0.06
0.04 0.08 0.08 0.05 0.04 0.03 0.01 0.02 0.02 0.02 0.02 0.02 0.02 0.02 0.03 0.03 0.04 0.04 0.04 0.05 0.04 0.04 0.04 0.04 0.04 0.04 0.05 0.05 0.05 0.05 0.04 0.05 0.05 0.05 0.05 0.06 0.06 0.05 0.05 0.06 0.06 0.07 0.07
0.06 0.09 0.06 0.06 0.04 0.03 0.02 0.02 0.02 0.02 0.02 0.02 0.03 0.03 0.03 0.03 0.04 0.04 0.03 0.05 0.05 0.04 0.04 0.04 0.04 0.04 0.05 0.06 0.06 0.04 0.04 0.05 0.06 0.06 0.05 0.05 0.05 0.05 0.05 0.05 0.07 0.08 0.10
0.04 0.04 0.04 0.04 0.05 0.04 0.03 0.03 0.02 0.02 0.03 0.03 0.05 0.04 0.04 0.04 0.04 0.03 0.03 0.05 0.05 0.05 0.06 0.06 0.05 0.05 0.05 0.05 0.05 0.04 0.03 0.03 0.04 0.04 0.04 0.03 0.04 0.05 0.06 0.07 0.08 0.09 0.09
0.03 0.03 0.03 0.04 0.04 0.04 0.04 0.04 0.03 0.03 0.03 0.04 0.05 0.05 0.05 0.05 0.04 0.04 0.05 0.07 0.07 0.07 0.07 0.07 0.06 0.06 0.06 0.05 0.06 0.05 0.04 0.03 0.03 0.03 0.03 0.02 0.03 0.05 0.06 0.07 0.08 0.07 0.07
0.06 0.06 0.06 0.05 0.05 0.05 0.06 0.06 0.06 0.06 0.05 0.04 0.05 0.06 0.06 0.06 0.05 0.04 0.05 0.08 0.09 0.09 0.08 0.07 0.06 0.06 0.05 0.05 0.06 0.06 0.05 0.04 0.05 0.04 0.04 0.03 0.04 0.05 0.05 0.05 0.06 0.07 0.07
0.07 0.06 0.04 0.04 0.04 0.04 0.05 0.05 0.05 0.05 0.05 0.04 0.04 0.05 0.07 0.08 0.06 0.05 0.05 0.07 0.10 0.14 0.14 0.10 0.07 0.05 0.05 0.04 0.05 0.05 0.06 0.05 0.05 0.05 0.04 0.03 0.03 0.02 0.02 0.02 0.04 0.05 0.06
0.02 0.01 0.01 0.01 0.02 0.03 0.03 0.03 0.04 0.04 0.04 0.04 0.05 0.04 0.06 0.08 0.07 0.07 0.06 0.05 0.06 0.09 0.12 0.10 0.08 0.06 0.05 0.05 0.04 0.04 0.04 0.05 0.05 0.04 0.04 0.03 0.02 0.02 0.01 0.01 0.01 0.02 0.04
0.01 0.01 0.01 0.01 0.02 0.02 0.02 0.03 0.03 0.04 0.03 0.03 0.03 0.04 0.05 0.06 0.06 0.06 0.08 0.06 0.06 0.07 0.07 0.06 0.05 0.04 0.04 0.05 0.05 0.05 0.05 0.05 0.05 0.05 0.05 0.04 0.02 0.02 0.01 0.01 0.01 0.01 0.02
0.00 0.00 0.01 0.01 0.02 0.02 0.02 0.02 0.02 0.03 0.03 0.04 0.04 0.04 0.06 0.05 0.06 0.05 0.06 0.07 0.08 0.07 0.07 0.05 0.03 0.02 0.02 0.03 0.04 0.04 0.04 0.04 0.05 0.05 0.06 0.06 0.05 0.04 0.02 0.02 0.02 0.02 0.02
0.00 0.01 0.01 0.01 0.01 0.01 0.01 0.01 0.02 0.02 0.03 0.03 0.03 0.03 0.04 0.05 0.06 0.04 0.04 0.05 0.06 0.06 0.06 0.05 0.03 0.03 0.03 0.03 0.03 0.03 0.03 0.04 0.05 0.05 0.05 0.05 0.05 0.04 0.03 0.02 0.03 0.03 0.02
0.01 0.01 0.01 0.01 0.01 0.02 0.02 0.02 0.03 0.02 0.03 0.03 0.03 0.03 0.04 0.05 0.06 0.05 0.05 0.05 0.05 0.05 0.05 0.05 0.03 0.03 0.04 0.04 0.03 0.02 0.02 0.03 0.03 0.03 0.03 0.03 0.02 0.02 0.02 0.02 0.03 0.03 0.03
0.02 0.01 0.01 0.01 0.02 0.02 0.02 0.03 0.04 0.03 0.04 0.03 0.03 0.04 0.05 0.04 0.05 0.05 0.05 0.05 0.04 0.04 0.04 0.05 0.04 0.04 0.04 0.03 0.02 0.01 0.01 0.02 0.02 0.02 0.02 0.02 0.01 0.01 0.01 0.01 0.02 0.02 0.03
0.01 0.01 0.02 0.02 0.02 0.02 0.03 0.05 0.06 0.05 0.05 0.03 0.03 0.04 0.04 0.05 0.04 0.04 0.04 0.04 0.04 0.04 0.04 0.04 0.04 0.03 0.03 0.01 0.00 0.00 0.00 0.00 0.01 0.01 0.01 0.01 0.01 0.01 0.01 0.01 0.01 0.02 0.04
0.02 0.01 0.01 0.02 0.02 0.03 0.04 0.05 0.08 0.08 0.07 0.08 0.05 0.05 0.04 0.05 0.06 0.05 0.05 0.04 0.05 0.05 0.04 0.03 0.03 0.02 0.02 0.01 0.00 0.00 0.00 0.00 0.01 0.01 0.01 0.01 0.01 0.01 0.01 0.01 0.01 0.02 0.04
0.02 0.02 0.02 0.03 0.04 0.04 0.04 0.04 0.05 0.06 0.06 0.07 0.07 0.06 0.05 0.05 0.05 0.05 0.05 0.05 0.06 0.06 0.05 0.04 0.03 0.02 0.02 0.02 0.01 0.00 0.00 0.00 0.00 0.01 0.00 0.00 0.00 0.01 0.01 0.01 0.02 0.02 0.03
0.01 0.02 0.03 0.04 0.04 0.03 0.02 0.02 0.03 0.04 0.05 0.05 0.05 0.06 0.08 0.06 0.05 0.06 0.07 0.06 0.05 0.04 0.04 0.05 0.03 0.03 0.03 0.02 0.02 0.01 0.01 0.01 0.00 0.00 0.01 0.01 0.01 0.01 0.01 0.01 0.02 0.03 0.04
0.02 0.01 0.01 0.03 0.02 0.02 0.02 0.02 0.03 0.03 0.04 0.04 0.03 0.03 0.04 0.04 0.03 0.03 0.06 0.07 0.05 0.04 0.04 0.04 0.03 0.02 0.02 0.02 0.02 0.01 0.01 0.01 0.01 0.01 0.01 0.01 0.01 0.01 0.01 0.01 0.02 0.03 0.04